<?xml version="1.0" encoding="UTF-8" standalone="no" ?>
<gpx xmlns="http://www.topografix.com/GPX/1/1" xmlns:xsi="http://www.w3.org/2001/XMLSchema-instance" xsi:schemaLocation="http://www.topografix.com/GPX/1/1 http://www.topografix.com/GPX/1/1/gpx.xsd" version="1.1" creator="VisuGPX - https://www.visugpx.com">
  <metadata>
    <name>De Villeurbanne à Limonest</name>
  </metadata>
  <trk>
    <name><![CDATA[Vélo de route 24.04.2021 12:03]]></name>
    <extensions>
      <line xmlns="http://www.topografix.com/GPX/gpx_style/0/2">
        <color>0000FF</color>
        <width>4</width>
      </line>
    </extensions>
    <trkseg>
      <trkpt lat="45.75506" lon="4.88977">
        <ele>229.223297</ele>
        <time>2021-04-24T06:11:56.494Z</time>
      </trkpt>
      <trkpt lat="45.75498" lon="4.88982">
        <ele>229.223297</ele>
        <time>2021-04-24T06:12:14.506Z</time>
      </trkpt>
      <trkpt lat="45.75488" lon="4.88984">
        <ele>229.223297</ele>
        <time>2021-04-24T06:12:19.491Z</time>
      </trkpt>
      <trkpt lat="45.75489" lon="4.88997">
        <ele>229.223297</ele>
        <time>2021-04-24T06:12:26.515Z</time>
      </trkpt>
      <trkpt lat="45.75492" lon="4.89011">
        <ele>229.223297</ele>
        <time>2021-04-24T06:12:29.500Z</time>
      </trkpt>
      <trkpt lat="45.75499" lon="4.89019">
        <ele>229.223297</ele>
        <time>2021-04-24T06:12:32.547Z</time>
      </trkpt>
      <trkpt lat="45.75509" lon="4.89018">
        <ele>229.223297</ele>
        <time>2021-04-24T06:12:34.488Z</time>
      </trkpt>
      <trkpt lat="45.75518" lon="4.89016">
        <ele>229.223297</ele>
        <time>2021-04-24T06:12:36.500Z</time>
      </trkpt>
      <trkpt lat="45.75529" lon="4.89014">
        <ele>229.223297</ele>
        <time>2021-04-24T06:12:38.510Z</time>
      </trkpt>
      <trkpt lat="45.75538" lon="4.89013">
        <ele>229.223297</ele>
        <time>2021-04-24T06:12:40.507Z</time>
      </trkpt>
      <trkpt lat="45.75549" lon="4.89011">
        <ele>229.489275</ele>
        <time>2021-04-24T06:12:43.493Z</time>
      </trkpt>
      <trkpt lat="45.75555" lon="4.88999">
        <ele>229.824739</ele>
        <time>2021-04-24T06:12:46.496Z</time>
      </trkpt>
      <trkpt lat="45.75553" lon="4.8898">
        <ele>230.260289</ele>
        <time>2021-04-24T06:12:49.486Z</time>
      </trkpt>
      <trkpt lat="45.75552" lon="4.88967">
        <ele>230.551534</ele>
        <time>2021-04-24T06:12:51.482Z</time>
      </trkpt>
      <trkpt lat="45.7555" lon="4.88952">
        <ele>230.896965</ele>
        <time>2021-04-24T06:12:53.493Z</time>
      </trkpt>
      <trkpt lat="45.75548" lon="4.88937">
        <ele>231.24111</ele>
        <time>2021-04-24T06:12:55.491Z</time>
      </trkpt>
      <trkpt lat="45.75545" lon="4.8892">
        <ele>231.629813</ele>
        <time>2021-04-24T06:12:57.497Z</time>
      </trkpt>
      <trkpt lat="45.75543" lon="4.88902">
        <ele>232.030284</ele>
        <time>2021-04-24T06:12:59.504Z</time>
      </trkpt>
      <trkpt lat="45.7554" lon="4.88886">
        <ele>232.388757</ele>
        <time>2021-04-24T06:13:01.498Z</time>
      </trkpt>
      <trkpt lat="45.75538" lon="4.8887">
        <ele>232.754148</ele>
        <time>2021-04-24T06:13:03.496Z</time>
      </trkpt>
      <trkpt lat="45.75536" lon="4.88852">
        <ele>233.163949</ele>
        <time>2021-04-24T06:13:05.517Z</time>
      </trkpt>
      <trkpt lat="45.75534" lon="4.88835">
        <ele>233.537061</ele>
        <time>2021-04-24T06:13:07.508Z</time>
      </trkpt>
      <trkpt lat="45.75532" lon="4.88817">
        <ele>233.952917</ele>
        <time>2021-04-24T06:13:09.503Z</time>
      </trkpt>
      <trkpt lat="45.75531" lon="4.88798">
        <ele>234.365148</ele>
        <time>2021-04-24T06:13:11.516Z</time>
      </trkpt>
      <trkpt lat="45.75529" lon="4.88781">
        <ele>234.758501</ele>
        <time>2021-04-24T06:13:13.493Z</time>
      </trkpt>
      <trkpt lat="45.75525" lon="4.88762">
        <ele>235.120648</ele>
        <time>2021-04-24T06:13:15.514Z</time>
      </trkpt>
      <trkpt lat="45.75523" lon="4.88746">
        <ele>235.393611</ele>
        <time>2021-04-24T06:13:17.492Z</time>
      </trkpt>
      <trkpt lat="45.75519" lon="4.88725">
        <ele>235.750808</ele>
        <time>2021-04-24T06:13:20.485Z</time>
      </trkpt>
      <trkpt lat="45.75514" lon="4.88704">
        <ele>236.113622</ele>
        <time>2021-04-24T06:13:22.489Z</time>
      </trkpt>
      <trkpt lat="45.7551" lon="4.88685">
        <ele>236.436125</ele>
        <time>2021-04-24T06:13:24.476Z</time>
      </trkpt>
      <trkpt lat="45.75504" lon="4.88667">
        <ele>236.766174</ele>
        <time>2021-04-24T06:13:26.482Z</time>
      </trkpt>
      <trkpt lat="45.75501" lon="4.8865">
        <ele>237.058374</ele>
        <time>2021-04-24T06:13:28.494Z</time>
      </trkpt>
      <trkpt lat="45.75495" lon="4.88634">
        <ele>237.362921</ele>
        <time>2021-04-24T06:13:30.489Z</time>
      </trkpt>
      <trkpt lat="45.75488" lon="4.88618">
        <ele>237.676839</ele>
        <time>2021-04-24T06:13:32.490Z</time>
      </trkpt>
      <trkpt lat="45.75483" lon="4.88602">
        <ele>237.95427</ele>
        <time>2021-04-24T06:13:34.486Z</time>
      </trkpt>
      <trkpt lat="45.75477" lon="4.88589">
        <ele>238.205534</ele>
        <time>2021-04-24T06:13:36.507Z</time>
      </trkpt>
      <trkpt lat="45.75477" lon="4.88576">
        <ele>238.427528</ele>
        <time>2021-04-24T06:13:39.491Z</time>
      </trkpt>
      <trkpt lat="45.75484" lon="4.88567">
        <ele>238.649691</ele>
        <time>2021-04-24T06:13:41.492Z</time>
      </trkpt>
      <trkpt lat="45.75494" lon="4.88562">
        <ele>238.892401</ele>
        <time>2021-04-24T06:13:43.492Z</time>
      </trkpt>
      <trkpt lat="45.75505" lon="4.8856">
        <ele>239.154507</ele>
        <time>2021-04-24T06:13:45.506Z</time>
      </trkpt>
      <trkpt lat="45.75518" lon="4.8856">
        <ele>239.277614</ele>
        <time>2021-04-24T06:13:47.497Z</time>
      </trkpt>
      <trkpt lat="45.75533" lon="4.88556">
        <ele>239.395373</ele>
        <time>2021-04-24T06:13:49.519Z</time>
      </trkpt>
      <trkpt lat="45.75548" lon="4.88552">
        <ele>239.524166</ele>
        <time>2021-04-24T06:13:51.503Z</time>
      </trkpt>
      <trkpt lat="45.75563" lon="4.88551">
        <ele>239.639613</ele>
        <time>2021-04-24T06:13:54.526Z</time>
      </trkpt>
      <trkpt lat="45.75576" lon="4.8855">
        <ele>239.748788</ele>
        <time>2021-04-24T06:13:56.484Z</time>
      </trkpt>
      <trkpt lat="45.75591" lon="4.88547">
        <ele>239.864084</ele>
        <time>2021-04-24T06:13:58.501Z</time>
      </trkpt>
      <trkpt lat="45.75605" lon="4.88546">
        <ele>239.978163</ele>
        <time>2021-04-24T06:14:00.499Z</time>
      </trkpt>
      <trkpt lat="45.7562" lon="4.88547">
        <ele>240.099476</ele>
        <time>2021-04-24T06:14:02.500Z</time>
      </trkpt>
      <trkpt lat="45.75634" lon="4.88542">
        <ele>240.215892</ele>
        <time>2021-04-24T06:14:04.488Z</time>
      </trkpt>
      <trkpt lat="45.75643" lon="4.8854">
        <ele>240.289518</ele>
        <time>2021-04-24T06:14:05.483Z</time>
      </trkpt>
      <trkpt lat="45.75659" lon="4.88538">
        <ele>240.419993</ele>
        <time>2021-04-24T06:14:07.485Z</time>
      </trkpt>
      <trkpt lat="45.75675" lon="4.88537">
        <ele>240.542774</ele>
        <time>2021-04-24T06:14:09.484Z</time>
      </trkpt>
      <trkpt lat="45.75689" lon="4.88536">
        <ele>240.509101</ele>
        <time>2021-04-24T06:14:11.488Z</time>
      </trkpt>
      <trkpt lat="45.75705" lon="4.88532">
        <ele>240.12263</ele>
        <time>2021-04-24T06:14:13.494Z</time>
      </trkpt>
      <trkpt lat="45.75719" lon="4.88532">
        <ele>239.775036</ele>
        <time>2021-04-24T06:14:15.487Z</time>
      </trkpt>
      <trkpt lat="45.75733" lon="4.88528">
        <ele>239.434527</ele>
        <time>2021-04-24T06:14:17.492Z</time>
      </trkpt>
      <trkpt lat="45.75747" lon="4.88527">
        <ele>239.081811</ele>
        <time>2021-04-24T06:14:19.499Z</time>
      </trkpt>
      <trkpt lat="45.7576" lon="4.88526">
        <ele>238.765779</ele>
        <time>2021-04-24T06:14:21.496Z</time>
      </trkpt>
      <trkpt lat="45.75774" lon="4.88525">
        <ele>238.427392</ele>
        <time>2021-04-24T06:14:23.499Z</time>
      </trkpt>
      <trkpt lat="45.75784" lon="4.88523">
        <ele>238.188209</ele>
        <time>2021-04-24T06:14:25.495Z</time>
      </trkpt>
      <trkpt lat="45.75793" lon="4.8852">
        <ele>237.938222</ele>
        <time>2021-04-24T06:14:28.499Z</time>
      </trkpt>
      <trkpt lat="45.75802" lon="4.88515">
        <ele>237.708803</ele>
        <time>2021-04-24T06:14:31.553Z</time>
      </trkpt>
      <trkpt lat="45.75808" lon="4.88499">
        <ele>237.395071</ele>
        <time>2021-04-24T06:14:34.479Z</time>
      </trkpt>
      <trkpt lat="45.75808" lon="4.88483">
        <ele>237.119443</ele>
        <time>2021-04-24T06:14:36.480Z</time>
      </trkpt>
      <trkpt lat="45.75804" lon="4.88466">
        <ele>236.819332</ele>
        <time>2021-04-24T06:14:38.490Z</time>
      </trkpt>
      <trkpt lat="45.75801" lon="4.88448">
        <ele>236.498216</ele>
        <time>2021-04-24T06:14:40.502Z</time>
      </trkpt>
      <trkpt lat="45.75796" lon="4.88431">
        <ele>236.198243</ele>
        <time>2021-04-24T06:14:42.493Z</time>
      </trkpt>
      <trkpt lat="45.75793" lon="4.88413">
        <ele>235.984864</ele>
        <time>2021-04-24T06:14:44.490Z</time>
      </trkpt>
      <trkpt lat="45.75791" lon="4.88395">
        <ele>235.769898</ele>
        <time>2021-04-24T06:14:46.493Z</time>
      </trkpt>
      <trkpt lat="45.75789" lon="4.88377">
        <ele>235.544126</ele>
        <time>2021-04-24T06:14:48.505Z</time>
      </trkpt>
      <trkpt lat="45.75786" lon="4.88356">
        <ele>235.292382</ele>
        <time>2021-04-24T06:14:50.503Z</time>
      </trkpt>
      <trkpt lat="45.75782" lon="4.88338">
        <ele>235.068242</ele>
        <time>2021-04-24T06:14:52.559Z</time>
      </trkpt>
      <trkpt lat="45.75777" lon="4.88323">
        <ele>234.871111</ele>
        <time>2021-04-24T06:14:54.487Z</time>
      </trkpt>
      <trkpt lat="45.75771" lon="4.88308">
        <ele>234.67222</ele>
        <time>2021-04-24T06:14:56.504Z</time>
      </trkpt>
      <trkpt lat="45.75766" lon="4.88292">
        <ele>234.466782</ele>
        <time>2021-04-24T06:14:58.516Z</time>
      </trkpt>
      <trkpt lat="45.75761" lon="4.88274">
        <ele>234.233762</ele>
        <time>2021-04-24T06:15:00.500Z</time>
      </trkpt>
      <trkpt lat="45.75757" lon="4.88256">
        <ele>234.003656</ele>
        <time>2021-04-24T06:15:02.493Z</time>
      </trkpt>
      <trkpt lat="45.75751" lon="4.88238">
        <ele>233.774823</ele>
        <time>2021-04-24T06:15:04.497Z</time>
      </trkpt>
      <trkpt lat="45.75746" lon="4.88219">
        <ele>233.531066</ele>
        <time>2021-04-24T06:15:06.493Z</time>
      </trkpt>
      <trkpt lat="45.75741" lon="4.88201">
        <ele>233.294251</ele>
        <time>2021-04-24T06:15:08.500Z</time>
      </trkpt>
      <trkpt lat="45.75736" lon="4.88182">
        <ele>233.186522</ele>
        <time>2021-04-24T06:15:10.500Z</time>
      </trkpt>
      <trkpt lat="45.75731" lon="4.88162">
        <ele>233.236043</ele>
        <time>2021-04-24T06:15:12.501Z</time>
      </trkpt>
      <trkpt lat="45.75726" lon="4.88144">
        <ele>233.282179</ele>
        <time>2021-04-24T06:15:14.503Z</time>
      </trkpt>
      <trkpt lat="45.75719" lon="4.88124">
        <ele>233.33691</ele>
        <time>2021-04-24T06:15:16.490Z</time>
      </trkpt>
      <trkpt lat="45.75713" lon="4.88106">
        <ele>233.385486</ele>
        <time>2021-04-24T06:15:18.498Z</time>
      </trkpt>
      <trkpt lat="45.75706" lon="4.88086">
        <ele>233.437986</ele>
        <time>2021-04-24T06:15:20.488Z</time>
      </trkpt>
      <trkpt lat="45.75701" lon="4.88067">
        <ele>233.487031</ele>
        <time>2021-04-24T06:15:22.498Z</time>
      </trkpt>
      <trkpt lat="45.75694" lon="4.88049">
        <ele>233.536379</ele>
        <time>2021-04-24T06:15:24.508Z</time>
      </trkpt>
      <trkpt lat="45.75691" lon="4.88032">
        <ele>233.579267</ele>
        <time>2021-04-24T06:15:26.499Z</time>
      </trkpt>
      <trkpt lat="45.75688" lon="4.88015">
        <ele>233.62176</ele>
        <time>2021-04-24T06:15:28.508Z</time>
      </trkpt>
      <trkpt lat="45.75683" lon="4.87996">
        <ele>233.670939</ele>
        <time>2021-04-24T06:15:30.503Z</time>
      </trkpt>
      <trkpt lat="45.75676" lon="4.87977">
        <ele>233.721985</ele>
        <time>2021-04-24T06:15:32.493Z</time>
      </trkpt>
      <trkpt lat="45.75673" lon="4.87956">
        <ele>233.773395</ele>
        <time>2021-04-24T06:15:34.499Z</time>
      </trkpt>
      <trkpt lat="45.75668" lon="4.87937">
        <ele>233.669614</ele>
        <time>2021-04-24T06:15:36.495Z</time>
      </trkpt>
      <trkpt lat="45.75662" lon="4.87919">
        <ele>233.515077</ele>
        <time>2021-04-24T06:15:38.486Z</time>
      </trkpt>
      <trkpt lat="45.75657" lon="4.87898">
        <ele>233.3504</ele>
        <time>2021-04-24T06:15:40.486Z</time>
      </trkpt>
      <trkpt lat="45.7565" lon="4.87879">
        <ele>233.19246</ele>
        <time>2021-04-24T06:15:42.495Z</time>
      </trkpt>
      <trkpt lat="45.75645" lon="4.8786">
        <ele>233.036397</ele>
        <time>2021-04-24T06:15:44.489Z</time>
      </trkpt>
      <trkpt lat="45.7564" lon="4.87839">
        <ele>232.869828</ele>
        <time>2021-04-24T06:15:46.483Z</time>
      </trkpt>
      <trkpt lat="45.75633" lon="4.87821">
        <ele>232.715496</ele>
        <time>2021-04-24T06:15:48.482Z</time>
      </trkpt>
      <trkpt lat="45.75628" lon="4.87802">
        <ele>232.561115</ele>
        <time>2021-04-24T06:15:50.483Z</time>
      </trkpt>
      <trkpt lat="45.75624" lon="4.87783">
        <ele>232.410031</ele>
        <time>2021-04-24T06:15:52.487Z</time>
      </trkpt>
      <trkpt lat="45.75617" lon="4.87766">
        <ele>232.265511</ele>
        <time>2021-04-24T06:15:54.505Z</time>
      </trkpt>
      <trkpt lat="45.75611" lon="4.8775">
        <ele>232.122701</ele>
        <time>2021-04-24T06:15:56.507Z</time>
      </trkpt>
      <trkpt lat="45.75607" lon="4.87734">
        <ele>231.998096</ele>
        <time>2021-04-24T06:15:58.490Z</time>
      </trkpt>
      <trkpt lat="45.75601" lon="4.87719">
        <ele>231.867249</ele>
        <time>2021-04-24T06:16:00.497Z</time>
      </trkpt>
      <trkpt lat="45.75597" lon="4.877">
        <ele>231.710167</ele>
        <time>2021-04-24T06:16:02.546Z</time>
      </trkpt>
      <trkpt lat="45.75591" lon="4.87686">
        <ele>231.570613</ele>
        <time>2021-04-24T06:16:04.498Z</time>
      </trkpt>
      <trkpt lat="45.7559" lon="4.8767">
        <ele>231.439072</ele>
        <time>2021-04-24T06:16:06.496Z</time>
      </trkpt>
      <trkpt lat="45.75586" lon="4.87655">
        <ele>231.305378</ele>
        <time>2021-04-24T06:16:08.486Z</time>
      </trkpt>
      <trkpt lat="45.75581" lon="4.87638">
        <ele>231.156823</ele>
        <time>2021-04-24T06:16:10.493Z</time>
      </trkpt>
      <trkpt lat="45.75577" lon="4.8762">
        <ele>231.003233</ele>
        <time>2021-04-24T06:16:12.487Z</time>
      </trkpt>
      <trkpt lat="45.75573" lon="4.87602">
        <ele>230.845273</ele>
        <time>2021-04-24T06:16:14.494Z</time>
      </trkpt>
      <trkpt lat="45.7557" lon="4.87584">
        <ele>230.693232</ele>
        <time>2021-04-24T06:16:16.492Z</time>
      </trkpt>
      <trkpt lat="45.75567" lon="4.87564">
        <ele>230.519555</ele>
        <time>2021-04-24T06:16:18.497Z</time>
      </trkpt>
      <trkpt lat="45.75564" lon="4.87543">
        <ele>230.345318</ele>
        <time>2021-04-24T06:16:20.492Z</time>
      </trkpt>
      <trkpt lat="45.75562" lon="4.87521">
        <ele>230.167378</ele>
        <time>2021-04-24T06:16:22.495Z</time>
      </trkpt>
      <trkpt lat="45.7556" lon="4.875">
        <ele>229.989264</ele>
        <time>2021-04-24T06:16:24.493Z</time>
      </trkpt>
      <trkpt lat="45.75554" lon="4.87478">
        <ele>229.793394</ele>
        <time>2021-04-24T06:16:26.504Z</time>
      </trkpt>
      <trkpt lat="45.75553" lon="4.87458">
        <ele>229.661231</ele>
        <time>2021-04-24T06:16:28.500Z</time>
      </trkpt>
      <trkpt lat="45.75549" lon="4.87446">
        <ele>229.597783</ele>
        <time>2021-04-24T06:16:29.508Z</time>
      </trkpt>
      <trkpt lat="45.75546" lon="4.87424">
        <ele>229.490787</ele>
        <time>2021-04-24T06:16:31.502Z</time>
      </trkpt>
      <trkpt lat="45.75543" lon="4.87405">
        <ele>229.39408</ele>
        <time>2021-04-24T06:16:33.500Z</time>
      </trkpt>
      <trkpt lat="45.7554" lon="4.87384">
        <ele>229.28991</ele>
        <time>2021-04-24T06:16:35.506Z</time>
      </trkpt>
      <trkpt lat="45.75534" lon="4.87361">
        <ele>229.170275</ele>
        <time>2021-04-24T06:16:37.502Z</time>
      </trkpt>
      <trkpt lat="45.75533" lon="4.87339">
        <ele>229.062643</ele>
        <time>2021-04-24T06:16:39.515Z</time>
      </trkpt>
      <trkpt lat="45.75532" lon="4.87316">
        <ele>228.950475</ele>
        <time>2021-04-24T06:16:41.498Z</time>
      </trkpt>
      <trkpt lat="45.75532" lon="4.87293">
        <ele>228.836722</ele>
        <time>2021-04-24T06:16:43.502Z</time>
      </trkpt>
      <trkpt lat="45.75533" lon="4.87271">
        <ele>228.727348</ele>
        <time>2021-04-24T06:16:45.545Z</time>
      </trkpt>
      <trkpt lat="45.75535" lon="4.87251">
        <ele>228.631394</ele>
        <time>2021-04-24T06:16:47.488Z</time>
      </trkpt>
      <trkpt lat="45.75536" lon="4.87234">
        <ele>228.547724</ele>
        <time>2021-04-24T06:16:49.499Z</time>
      </trkpt>
      <trkpt lat="45.75531" lon="4.8722">
        <ele>228.469787</ele>
        <time>2021-04-24T06:16:50.499Z</time>
      </trkpt>
      <trkpt lat="45.75524" lon="4.87207">
        <ele>228.340415</ele>
        <time>2021-04-24T06:16:51.522Z</time>
      </trkpt>
      <trkpt lat="45.75519" lon="4.87194">
        <ele>228.217084</ele>
        <time>2021-04-24T06:16:52.489Z</time>
      </trkpt>
      <trkpt lat="45.75517" lon="4.87169">
        <ele>228.006793</ele>
        <time>2021-04-24T06:16:54.493Z</time>
      </trkpt>
      <trkpt lat="45.75514" lon="4.87147">
        <ele>227.826907</ele>
        <time>2021-04-24T06:16:56.493Z</time>
      </trkpt>
      <trkpt lat="45.75513" lon="4.87134">
        <ele>227.71936</ele>
        <time>2021-04-24T06:16:57.527Z</time>
      </trkpt>
      <trkpt lat="45.75509" lon="4.87112">
        <ele>227.529376</ele>
        <time>2021-04-24T06:16:59.482Z</time>
      </trkpt>
      <trkpt lat="45.75506" lon="4.87088">
        <ele>227.321414</ele>
        <time>2021-04-24T06:17:01.487Z</time>
      </trkpt>
      <trkpt lat="45.75503" lon="4.87064">
        <ele>227.126324</ele>
        <time>2021-04-24T06:17:03.483Z</time>
      </trkpt>
      <trkpt lat="45.75502" lon="4.87043">
        <ele>226.951913</ele>
        <time>2021-04-24T06:17:05.495Z</time>
      </trkpt>
      <trkpt lat="45.75499" lon="4.87021">
        <ele>226.76274</ele>
        <time>2021-04-24T06:17:07.499Z</time>
      </trkpt>
      <trkpt lat="45.75495" lon="4.86997">
        <ele>226.56193</ele>
        <time>2021-04-24T06:17:09.486Z</time>
      </trkpt>
      <trkpt lat="45.75491" lon="4.86976">
        <ele>226.376574</ele>
        <time>2021-04-24T06:17:11.510Z</time>
      </trkpt>
      <trkpt lat="45.75489" lon="4.86956">
        <ele>226.364631</ele>
        <time>2021-04-24T06:17:13.504Z</time>
      </trkpt>
      <trkpt lat="45.75485" lon="4.86938">
        <ele>226.430508</ele>
        <time>2021-04-24T06:17:15.491Z</time>
      </trkpt>
      <trkpt lat="45.75483" lon="4.86917">
        <ele>226.50053</ele>
        <time>2021-04-24T06:17:17.509Z</time>
      </trkpt>
      <trkpt lat="45.75484" lon="4.86897">
        <ele>226.571134</ele>
        <time>2021-04-24T06:17:19.496Z</time>
      </trkpt>
      <trkpt lat="45.75484" lon="4.86879">
        <ele>226.629956</ele>
        <time>2021-04-24T06:17:21.491Z</time>
      </trkpt>
      <trkpt lat="45.75482" lon="4.86862">
        <ele>226.690687</ele>
        <time>2021-04-24T06:17:23.495Z</time>
      </trkpt>
      <trkpt lat="45.75478" lon="4.86847">
        <ele>226.743017</ele>
        <time>2021-04-24T06:17:25.487Z</time>
      </trkpt>
      <trkpt lat="45.75473" lon="4.86831">
        <ele>226.802191</ele>
        <time>2021-04-24T06:17:27.491Z</time>
      </trkpt>
      <trkpt lat="45.75468" lon="4.86815">
        <ele>226.863715</ele>
        <time>2021-04-24T06:17:29.490Z</time>
      </trkpt>
      <trkpt lat="45.75462" lon="4.86799">
        <ele>226.925376</ele>
        <time>2021-04-24T06:17:31.496Z</time>
      </trkpt>
      <trkpt lat="45.7546" lon="4.86782">
        <ele>226.98577</ele>
        <time>2021-04-24T06:17:34.490Z</time>
      </trkpt>
      <trkpt lat="45.75459" lon="4.86766">
        <ele>227.039696</ele>
        <time>2021-04-24T06:17:36.511Z</time>
      </trkpt>
      <trkpt lat="45.75459" lon="4.86751">
        <ele>227.088993</ele>
        <time>2021-04-24T06:17:38.500Z</time>
      </trkpt>
      <trkpt lat="45.7546" lon="4.86736">
        <ele>227.140651</ele>
        <time>2021-04-24T06:17:40.498Z</time>
      </trkpt>
      <trkpt lat="45.75459" lon="4.86721">
        <ele>227.193857</ele>
        <time>2021-04-24T06:17:42.493Z</time>
      </trkpt>
      <trkpt lat="45.75458" lon="4.86705">
        <ele>227.205982</ele>
        <time>2021-04-24T06:17:44.493Z</time>
      </trkpt>
      <trkpt lat="45.75457" lon="4.86691">
        <ele>227.214771</ele>
        <time>2021-04-24T06:17:46.505Z</time>
      </trkpt>
      <trkpt lat="45.75466" lon="4.86681">
        <ele>227.224705</ele>
        <time>2021-04-24T06:17:49.506Z</time>
      </trkpt>
      <trkpt lat="45.75471" lon="4.86668">
        <ele>227.234278</ele>
        <time>2021-04-24T06:17:53.504Z</time>
      </trkpt>
      <trkpt lat="45.7547" lon="4.86653">
        <ele>227.243835</ele>
        <time>2021-04-24T06:17:55.501Z</time>
      </trkpt>
      <trkpt lat="45.75467" lon="4.86629">
        <ele>227.259449</ele>
        <time>2021-04-24T06:17:58.478Z</time>
      </trkpt>
      <trkpt lat="45.75462" lon="4.86617">
        <ele>227.267606</ele>
        <time>2021-04-24T06:17:59.485Z</time>
      </trkpt>
      <trkpt lat="45.75449" lon="4.86599">
        <ele>227.283878</ele>
        <time>2021-04-24T06:18:01.482Z</time>
      </trkpt>
      <trkpt lat="45.75446" lon="4.86579">
        <ele>227.296865</ele>
        <time>2021-04-24T06:18:03.484Z</time>
      </trkpt>
      <trkpt lat="45.75442" lon="4.86557">
        <ele>227.310793</ele>
        <time>2021-04-24T06:18:05.492Z</time>
      </trkpt>
      <trkpt lat="45.7544" lon="4.86535">
        <ele>227.32489</ele>
        <time>2021-04-24T06:18:07.489Z</time>
      </trkpt>
      <trkpt lat="45.75437" lon="4.86514">
        <ele>227.338345</ele>
        <time>2021-04-24T06:18:09.503Z</time>
      </trkpt>
      <trkpt lat="45.7543" lon="4.86493">
        <ele>227.352955</ele>
        <time>2021-04-24T06:18:11.494Z</time>
      </trkpt>
      <trkpt lat="45.75426" lon="4.86474">
        <ele>227.333688</ele>
        <time>2021-04-24T06:18:13.496Z</time>
      </trkpt>
      <trkpt lat="45.75426" lon="4.86455">
        <ele>227.288312</ele>
        <time>2021-04-24T06:18:15.498Z</time>
      </trkpt>
      <trkpt lat="45.75424" lon="4.86435">
        <ele>227.241248</ele>
        <time>2021-04-24T06:18:17.492Z</time>
      </trkpt>
      <trkpt lat="45.75424" lon="4.86417">
        <ele>227.200944</ele>
        <time>2021-04-24T06:18:19.486Z</time>
      </trkpt>
      <trkpt lat="45.75423" lon="4.864">
        <ele>227.161353</ele>
        <time>2021-04-24T06:18:21.492Z</time>
      </trkpt>
      <trkpt lat="45.75423" lon="4.86385">
        <ele>227.126394</ele>
        <time>2021-04-24T06:18:23.494Z</time>
      </trkpt>
      <trkpt lat="45.75421" lon="4.8637">
        <ele>227.091329</ele>
        <time>2021-04-24T06:18:25.489Z</time>
      </trkpt>
      <trkpt lat="45.7542" lon="4.86357">
        <ele>227.061226</ele>
        <time>2021-04-24T06:18:27.488Z</time>
      </trkpt>
      <trkpt lat="45.75419" lon="4.86338">
        <ele>227.016269</ele>
        <time>2021-04-24T06:18:30.498Z</time>
      </trkpt>
      <trkpt lat="45.75417" lon="4.86323">
        <ele>226.980577</ele>
        <time>2021-04-24T06:18:32.498Z</time>
      </trkpt>
      <trkpt lat="45.75414" lon="4.86306">
        <ele>226.939758</ele>
        <time>2021-04-24T06:18:34.492Z</time>
      </trkpt>
      <trkpt lat="45.75412" lon="4.86288">
        <ele>226.897622</ele>
        <time>2021-04-24T06:18:36.502Z</time>
      </trkpt>
      <trkpt lat="45.7541" lon="4.86269">
        <ele>226.85392</ele>
        <time>2021-04-24T06:18:38.493Z</time>
      </trkpt>
      <trkpt lat="45.75408" lon="4.8625">
        <ele>226.809614</ele>
        <time>2021-04-24T06:18:40.488Z</time>
      </trkpt>
      <trkpt lat="45.75406" lon="4.86233">
        <ele>226.770214</ele>
        <time>2021-04-24T06:18:42.490Z</time>
      </trkpt>
      <trkpt lat="45.75403" lon="4.86217">
        <ele>226.986397</ele>
        <time>2021-04-24T06:18:44.505Z</time>
      </trkpt>
      <trkpt lat="45.75401" lon="4.86202">
        <ele>227.262327</ele>
        <time>2021-04-24T06:18:46.516Z</time>
      </trkpt>
      <trkpt lat="45.75399" lon="4.86181">
        <ele>227.620344</ele>
        <time>2021-04-24T06:18:48.499Z</time>
      </trkpt>
      <trkpt lat="45.75402" lon="4.86164">
        <ele>227.93013</ele>
        <time>2021-04-24T06:18:52.496Z</time>
      </trkpt>
      <trkpt lat="45.75394" lon="4.8615">
        <ele>228.242555</ele>
        <time>2021-04-24T06:18:53.496Z</time>
      </trkpt>
      <trkpt lat="45.75389" lon="4.86128">
        <ele>228.643797</ele>
        <time>2021-04-24T06:18:55.491Z</time>
      </trkpt>
      <trkpt lat="45.75384" lon="4.86106">
        <ele>229.041591</ele>
        <time>2021-04-24T06:18:57.504Z</time>
      </trkpt>
      <trkpt lat="45.75382" lon="4.86093">
        <ele>229.277697</ele>
        <time>2021-04-24T06:18:58.492Z</time>
      </trkpt>
      <trkpt lat="45.75382" lon="4.86079">
        <ele>229.513307</ele>
        <time>2021-04-24T06:19:00.490Z</time>
      </trkpt>
      <trkpt lat="45.75381" lon="4.86061">
        <ele>229.840679</ele>
        <time>2021-04-24T06:19:02.490Z</time>
      </trkpt>
      <trkpt lat="45.75375" lon="4.8604">
        <ele>230.226576</ele>
        <time>2021-04-24T06:19:03.506Z</time>
      </trkpt>
      <trkpt lat="45.75374" lon="4.86026">
        <ele>230.464175</ele>
        <time>2021-04-24T06:19:06.492Z</time>
      </trkpt>
      <trkpt lat="45.75373" lon="4.86011">
        <ele>230.732676</ele>
        <time>2021-04-24T06:19:08.495Z</time>
      </trkpt>
      <trkpt lat="45.75371" lon="4.85995">
        <ele>231.011486</ele>
        <time>2021-04-24T06:19:10.501Z</time>
      </trkpt>
      <trkpt lat="45.75369" lon="4.85982">
        <ele>231.252133</ele>
        <time>2021-04-24T06:19:12.498Z</time>
      </trkpt>
      <trkpt lat="45.75372" lon="4.85967">
        <ele>231.810215</ele>
        <time>2021-04-24T06:19:16.497Z</time>
      </trkpt>
      <trkpt lat="45.75365" lon="4.85902">
        <ele>234.054442</ele>
        <time>2021-04-24T06:19:55.489Z</time>
      </trkpt>
      <trkpt lat="45.75362" lon="4.85881">
        <ele>234.769989</ele>
        <time>2021-04-24T06:19:57.494Z</time>
      </trkpt>
      <trkpt lat="45.75356" lon="4.8586">
        <ele>235.542676</ele>
        <time>2021-04-24T06:19:59.488Z</time>
      </trkpt>
      <trkpt lat="45.75354" lon="4.85841">
        <ele>236.190949</ele>
        <time>2021-04-24T06:20:01.504Z</time>
      </trkpt>
      <trkpt lat="45.75349" lon="4.85817">
        <ele>237.070934</ele>
        <time>2021-04-24T06:20:03.490Z</time>
      </trkpt>
      <trkpt lat="45.75347" lon="4.85795">
        <ele>237.809905</ele>
        <time>2021-04-24T06:20:05.498Z</time>
      </trkpt>
      <trkpt lat="45.75344" lon="4.85772">
        <ele>238.62413</ele>
        <time>2021-04-24T06:20:07.499Z</time>
      </trkpt>
      <trkpt lat="45.75342" lon="4.85751">
        <ele>239.363326</ele>
        <time>2021-04-24T06:20:09.507Z</time>
      </trkpt>
      <trkpt lat="45.7534" lon="4.85733">
        <ele>239.975118</ele>
        <time>2021-04-24T06:20:11.485Z</time>
      </trkpt>
      <trkpt lat="45.7534" lon="4.85713">
        <ele>239.533698</ele>
        <time>2021-04-24T06:20:13.482Z</time>
      </trkpt>
      <trkpt lat="45.75338" lon="4.8569">
        <ele>238.922422</ele>
        <time>2021-04-24T06:20:15.492Z</time>
      </trkpt>
      <trkpt lat="45.75337" lon="4.8567">
        <ele>238.400012</ele>
        <time>2021-04-24T06:20:17.492Z</time>
      </trkpt>
      <trkpt lat="45.75334" lon="4.85651">
        <ele>237.886912</ele>
        <time>2021-04-24T06:20:19.505Z</time>
      </trkpt>
      <trkpt lat="45.75329" lon="4.85629">
        <ele>237.275413</ele>
        <time>2021-04-24T06:20:21.500Z</time>
      </trkpt>
      <trkpt lat="45.75325" lon="4.85606">
        <ele>236.652969</ele>
        <time>2021-04-24T06:20:23.492Z</time>
      </trkpt>
      <trkpt lat="45.7532" lon="4.85586">
        <ele>236.068321</ele>
        <time>2021-04-24T06:20:25.490Z</time>
      </trkpt>
      <trkpt lat="45.75317" lon="4.85565">
        <ele>235.50273</ele>
        <time>2021-04-24T06:20:27.483Z</time>
      </trkpt>
      <trkpt lat="45.75311" lon="4.85544">
        <ele>234.893231</ele>
        <time>2021-04-24T06:20:29.484Z</time>
      </trkpt>
      <trkpt lat="45.7531" lon="4.85529">
        <ele>234.511395</ele>
        <time>2021-04-24T06:20:30.488Z</time>
      </trkpt>
      <trkpt lat="45.75308" lon="4.85504">
        <ele>233.848526</ele>
        <time>2021-04-24T06:20:32.476Z</time>
      </trkpt>
      <trkpt lat="45.75303" lon="4.85483">
        <ele>233.257552</ele>
        <time>2021-04-24T06:20:34.490Z</time>
      </trkpt>
      <trkpt lat="45.75297" lon="4.85461">
        <ele>232.981712</ele>
        <time>2021-04-24T06:20:36.483Z</time>
      </trkpt>
      <trkpt lat="45.753" lon="4.85441">
        <ele>232.76758</ele>
        <time>2021-04-24T06:20:38.500Z</time>
      </trkpt>
      <trkpt lat="45.753" lon="4.8542">
        <ele>232.564054</ele>
        <time>2021-04-24T06:20:40.502Z</time>
      </trkpt>
      <trkpt lat="45.75298" lon="4.85398">
        <ele>232.339178</ele>
        <time>2021-04-24T06:20:42.500Z</time>
      </trkpt>
      <trkpt lat="45.75297" lon="4.85376">
        <ele>232.118801</ele>
        <time>2021-04-24T06:20:44.494Z</time>
      </trkpt>
      <trkpt lat="45.75296" lon="4.85355">
        <ele>231.905147</ele>
        <time>2021-04-24T06:20:46.513Z</time>
      </trkpt>
      <trkpt lat="45.75294" lon="4.85334">
        <ele>231.69824</ele>
        <time>2021-04-24T06:20:48.503Z</time>
      </trkpt>
      <trkpt lat="45.75291" lon="4.85315">
        <ele>231.501437</ele>
        <time>2021-04-24T06:20:50.496Z</time>
      </trkpt>
      <trkpt lat="45.7529" lon="4.85296">
        <ele>231.316945</ele>
        <time>2021-04-24T06:20:52.529Z</time>
      </trkpt>
      <trkpt lat="45.75289" lon="4.85272">
        <ele>231.076376</ele>
        <time>2021-04-24T06:20:54.489Z</time>
      </trkpt>
      <trkpt lat="45.75287" lon="4.85255">
        <ele>230.900952</ele>
        <time>2021-04-24T06:20:56.499Z</time>
      </trkpt>
      <trkpt lat="45.7528" lon="4.8524">
        <ele>230.722588</ele>
        <time>2021-04-24T06:20:58.822Z</time>
      </trkpt>
      <trkpt lat="45.75278" lon="4.85226">
        <ele>230.557558</ele>
        <time>2021-04-24T06:21:00.514Z</time>
      </trkpt>
      <trkpt lat="45.75274" lon="4.85209">
        <ele>230.260736</ele>
        <time>2021-04-24T06:21:03.502Z</time>
      </trkpt>
      <trkpt lat="45.75276" lon="4.85196">
        <ele>230.0568</ele>
        <time>2021-04-24T06:21:06.493Z</time>
      </trkpt>
      <trkpt lat="45.75273" lon="4.85184">
        <ele>229.847656</ele>
        <time>2021-04-24T06:21:08.502Z</time>
      </trkpt>
      <trkpt lat="45.75267" lon="4.85174">
        <ele>229.639099</ele>
        <time>2021-04-24T06:21:09.507Z</time>
      </trkpt>
      <trkpt lat="45.75261" lon="4.85162">
        <ele>229.409626</ele>
        <time>2021-04-24T06:21:11.503Z</time>
      </trkpt>
      <trkpt lat="45.75256" lon="4.8515">
        <ele>229.186724</ele>
        <time>2021-04-24T06:21:13.496Z</time>
      </trkpt>
      <trkpt lat="45.75259" lon="4.85131">
        <ele>228.87862</ele>
        <time>2021-04-24T06:21:17.499Z</time>
      </trkpt>
      <trkpt lat="45.75259" lon="4.85109">
        <ele>228.532867</ele>
        <time>2021-04-24T06:21:20.488Z</time>
      </trkpt>
      <trkpt lat="45.75262" lon="4.85097">
        <ele>228.32893</ele>
        <time>2021-04-24T06:21:21.516Z</time>
      </trkpt>
      <trkpt lat="45.75266" lon="4.85079">
        <ele>228.032307</ele>
        <time>2021-04-24T06:21:23.496Z</time>
      </trkpt>
      <trkpt lat="45.75274" lon="4.85062">
        <ele>227.704993</ele>
        <time>2021-04-24T06:21:25.511Z</time>
      </trkpt>
      <trkpt lat="45.75278" lon="4.85042">
        <ele>227.383021</ele>
        <time>2021-04-24T06:21:27.523Z</time>
      </trkpt>
      <trkpt lat="45.75283" lon="4.85022">
        <ele>227.044518</ele>
        <time>2021-04-24T06:21:29.499Z</time>
      </trkpt>
      <trkpt lat="45.75288" lon="4.85">
        <ele>226.689782</ele>
        <time>2021-04-24T06:21:31.500Z</time>
      </trkpt>
      <trkpt lat="45.75295" lon="4.84981">
        <ele>226.509748</ele>
        <time>2021-04-24T06:21:33.490Z</time>
      </trkpt>
      <trkpt lat="45.75301" lon="4.84963">
        <ele>226.414352</ele>
        <time>2021-04-24T06:21:35.510Z</time>
      </trkpt>
      <trkpt lat="45.75308" lon="4.84944">
        <ele>226.312564</ele>
        <time>2021-04-24T06:21:37.498Z</time>
      </trkpt>
      <trkpt lat="45.75314" lon="4.84925">
        <ele>226.214092</ele>
        <time>2021-04-24T06:21:39.505Z</time>
      </trkpt>
      <trkpt lat="45.75323" lon="4.84908">
        <ele>226.118921</ele>
        <time>2021-04-24T06:21:41.513Z</time>
      </trkpt>
      <trkpt lat="45.75331" lon="4.84891">
        <ele>226.021042</ele>
        <time>2021-04-24T06:21:43.509Z</time>
      </trkpt>
      <trkpt lat="45.75337" lon="4.84871">
        <ele>225.922008</ele>
        <time>2021-04-24T06:21:45.504Z</time>
      </trkpt>
      <trkpt lat="45.75342" lon="4.84852">
        <ele>225.827688</ele>
        <time>2021-04-24T06:21:47.491Z</time>
      </trkpt>
      <trkpt lat="45.75348" lon="4.84833">
        <ele>225.727865</ele>
        <time>2021-04-24T06:21:49.525Z</time>
      </trkpt>
      <trkpt lat="45.75354" lon="4.84811">
        <ele>225.619674</ele>
        <time>2021-04-24T06:21:51.503Z</time>
      </trkpt>
      <trkpt lat="45.75362" lon="4.8479">
        <ele>225.506527</ele>
        <time>2021-04-24T06:21:53.495Z</time>
      </trkpt>
      <trkpt lat="45.7537" lon="4.84774">
        <ele>225.417851</ele>
        <time>2021-04-24T06:21:55.508Z</time>
      </trkpt>
      <trkpt lat="45.75372" lon="4.8475">
        <ele>225.161116</ele>
        <time>2021-04-24T06:21:57.498Z</time>
      </trkpt>
      <trkpt lat="45.75376" lon="4.84728">
        <ele>224.841174</ele>
        <time>2021-04-24T06:21:59.505Z</time>
      </trkpt>
      <trkpt lat="45.75386" lon="4.84711">
        <ele>224.529352</ele>
        <time>2021-04-24T06:22:01.529Z</time>
      </trkpt>
      <trkpt lat="45.75395" lon="4.84694">
        <ele>224.21182</ele>
        <time>2021-04-24T06:22:03.497Z</time>
      </trkpt>
      <trkpt lat="45.75403" lon="4.84674">
        <ele>223.894486</ele>
        <time>2021-04-24T06:22:05.493Z</time>
      </trkpt>
      <trkpt lat="45.7541" lon="4.84655">
        <ele>223.582587</ele>
        <time>2021-04-24T06:22:07.511Z</time>
      </trkpt>
      <trkpt lat="45.75415" lon="4.84633">
        <ele>223.260521</ele>
        <time>2021-04-24T06:22:09.507Z</time>
      </trkpt>
      <trkpt lat="45.75422" lon="4.84615">
        <ele>222.968991</ele>
        <time>2021-04-24T06:22:11.506Z</time>
      </trkpt>
      <trkpt lat="45.7543" lon="4.846">
        <ele>222.693511</ele>
        <time>2021-04-24T06:22:13.481Z</time>
      </trkpt>
      <trkpt lat="45.75434" lon="4.84586">
        <ele>222.476657</ele>
        <time>2021-04-24T06:22:15.504Z</time>
      </trkpt>
      <trkpt lat="45.75439" lon="4.8457">
        <ele>222.237162</ele>
        <time>2021-04-24T06:22:18.492Z</time>
      </trkpt>
      <trkpt lat="45.75442" lon="4.84553">
        <ele>221.987526</ele>
        <time>2021-04-24T06:22:20.499Z</time>
      </trkpt>
      <trkpt lat="45.75447" lon="4.84536">
        <ele>221.714372</ele>
        <time>2021-04-24T06:22:22.478Z</time>
      </trkpt>
      <trkpt lat="45.75454" lon="4.84518">
        <ele>222.184667</ele>
        <time>2021-04-24T06:22:24.492Z</time>
      </trkpt>
      <trkpt lat="45.75459" lon="4.84507">
        <ele>222.50105</ele>
        <time>2021-04-24T06:22:25.496Z</time>
      </trkpt>
      <trkpt lat="45.75468" lon="4.8449">
        <ele>223.011173</ele>
        <time>2021-04-24T06:22:27.485Z</time>
      </trkpt>
      <trkpt lat="45.75475" lon="4.84472">
        <ele>223.497532</ele>
        <time>2021-04-24T06:22:29.495Z</time>
      </trkpt>
      <trkpt lat="45.75483" lon="4.84458">
        <ele>223.943325</ele>
        <time>2021-04-24T06:22:31.482Z</time>
      </trkpt>
      <trkpt lat="45.75489" lon="4.8444">
        <ele>224.427667</ele>
        <time>2021-04-24T06:22:33.491Z</time>
      </trkpt>
      <trkpt lat="45.75496" lon="4.84425">
        <ele>224.861371</ele>
        <time>2021-04-24T06:22:35.501Z</time>
      </trkpt>
      <trkpt lat="45.75502" lon="4.84406">
        <ele>225.348758</ele>
        <time>2021-04-24T06:22:37.496Z</time>
      </trkpt>
      <trkpt lat="45.75505" lon="4.84391">
        <ele>225.7345</ele>
        <time>2021-04-24T06:22:39.503Z</time>
      </trkpt>
      <trkpt lat="45.75508" lon="4.84378">
        <ele>226.053429</ele>
        <time>2021-04-24T06:22:41.530Z</time>
      </trkpt>
      <trkpt lat="45.75512" lon="4.84366">
        <ele>226.378884</ele>
        <time>2021-04-24T06:22:43.496Z</time>
      </trkpt>
      <trkpt lat="45.75518" lon="4.84348">
        <ele>226.838335</ele>
        <time>2021-04-24T06:22:46.505Z</time>
      </trkpt>
      <trkpt lat="45.75521" lon="4.84333">
        <ele>227.212112</ele>
        <time>2021-04-24T06:22:49.504Z</time>
      </trkpt>
      <trkpt lat="45.75525" lon="4.84318">
        <ele>227.591594</ele>
        <time>2021-04-24T06:22:53.521Z</time>
      </trkpt>
      <trkpt lat="45.7553" lon="4.84307">
        <ele>227.868719</ele>
        <time>2021-04-24T06:22:56.495Z</time>
      </trkpt>
      <trkpt lat="45.75537" lon="4.84295">
        <ele>227.791485</ele>
        <time>2021-04-24T06:22:59.504Z</time>
      </trkpt>
      <trkpt lat="45.75544" lon="4.84278">
        <ele>227.691286</ele>
        <time>2021-04-24T06:23:02.503Z</time>
      </trkpt>
      <trkpt lat="45.75549" lon="4.84264">
        <ele>227.611264</ele>
        <time>2021-04-24T06:23:04.504Z</time>
      </trkpt>
      <trkpt lat="45.75555" lon="4.84251">
        <ele>227.533637</ele>
        <time>2021-04-24T06:23:06.500Z</time>
      </trkpt>
      <trkpt lat="45.7556" lon="4.84236">
        <ele>227.447508</ele>
        <time>2021-04-24T06:23:08.502Z</time>
      </trkpt>
      <trkpt lat="45.75566" lon="4.8422">
        <ele>227.356437</ele>
        <time>2021-04-24T06:23:10.501Z</time>
      </trkpt>
      <trkpt lat="45.75574" lon="4.84205">
        <ele>227.26177</ele>
        <time>2021-04-24T06:23:12.492Z</time>
      </trkpt>
      <trkpt lat="45.75577" lon="4.84188">
        <ele>227.175068</ele>
        <time>2021-04-24T06:23:14.497Z</time>
      </trkpt>
      <trkpt lat="45.75584" lon="4.84173">
        <ele>227.083301</ele>
        <time>2021-04-24T06:23:16.503Z</time>
      </trkpt>
      <trkpt lat="45.75586" lon="4.84154">
        <ele>226.982618</ele>
        <time>2021-04-24T06:23:18.498Z</time>
      </trkpt>
      <trkpt lat="45.75588" lon="4.84141">
        <ele>226.916369</ele>
        <time>2021-04-24T06:23:20.483Z</time>
      </trkpt>
      <trkpt lat="45.75596" lon="4.84128">
        <ele>226.828883</ele>
        <time>2021-04-24T06:23:23.503Z</time>
      </trkpt>
      <trkpt lat="45.75599" lon="4.84116">
        <ele>226.761221</ele>
        <time>2021-04-24T06:23:25.496Z</time>
      </trkpt>
      <trkpt lat="45.75604" lon="4.84104">
        <ele>226.693512</ele>
        <time>2021-04-24T06:23:27.495Z</time>
      </trkpt>
      <trkpt lat="45.75609" lon="4.84087">
        <ele>226.599522</ele>
        <time>2021-04-24T06:23:30.506Z</time>
      </trkpt>
      <trkpt lat="45.75614" lon="4.84076">
        <ele>226.463766</ele>
        <time>2021-04-24T06:23:33.500Z</time>
      </trkpt>
      <trkpt lat="45.75618" lon="4.84064">
        <ele>226.274189</ele>
        <time>2021-04-24T06:23:37.498Z</time>
      </trkpt>
      <trkpt lat="45.75623" lon="4.84048">
        <ele>226.041924</ele>
        <time>2021-04-24T06:23:41.503Z</time>
      </trkpt>
      <trkpt lat="45.75628" lon="4.84034">
        <ele>225.819402</ele>
        <time>2021-04-24T06:23:44.504Z</time>
      </trkpt>
      <trkpt lat="45.75635" lon="4.84023">
        <ele>225.614427</ele>
        <time>2021-04-24T06:23:47.496Z</time>
      </trkpt>
      <trkpt lat="45.75645" lon="4.84026">
        <ele>225.408144</ele>
        <time>2021-04-24T06:23:50.499Z</time>
      </trkpt>
      <trkpt lat="45.75653" lon="4.84036">
        <ele>225.197061</ele>
        <time>2021-04-24T06:23:52.507Z</time>
      </trkpt>
      <trkpt lat="45.75662" lon="4.8404">
        <ele>225.003306</ele>
        <time>2021-04-24T06:23:54.525Z</time>
      </trkpt>
      <trkpt lat="45.75672" lon="4.84045">
        <ele>224.793496</ele>
        <time>2021-04-24T06:23:56.511Z</time>
      </trkpt>
      <trkpt lat="45.75682" lon="4.84048">
        <ele>224.602026</ele>
        <time>2021-04-24T06:23:58.503Z</time>
      </trkpt>
      <trkpt lat="45.75692" lon="4.84051">
        <ele>224.39155</ele>
        <time>2021-04-24T06:24:00.518Z</time>
      </trkpt>
      <trkpt lat="45.75701" lon="4.84054">
        <ele>224.201886</ele>
        <time>2021-04-24T06:24:02.506Z</time>
      </trkpt>
      <trkpt lat="45.75711" lon="4.84055">
        <ele>224.009091</ele>
        <time>2021-04-24T06:24:04.494Z</time>
      </trkpt>
      <trkpt lat="45.75718" lon="4.84065">
        <ele>223.819422</ele>
        <time>2021-04-24T06:24:07.498Z</time>
      </trkpt>
      <trkpt lat="45.75731" lon="4.84069">
        <ele>223.556977</ele>
        <time>2021-04-24T06:24:10.504Z</time>
      </trkpt>
      <trkpt lat="45.75741" lon="4.84072">
        <ele>223.354885</ele>
        <time>2021-04-24T06:24:12.487Z</time>
      </trkpt>
      <trkpt lat="45.75751" lon="4.84073">
        <ele>223.145423</ele>
        <time>2021-04-24T06:24:14.499Z</time>
      </trkpt>
      <trkpt lat="45.75763" lon="4.84075">
        <ele>222.954479</ele>
        <time>2021-04-24T06:24:16.507Z</time>
      </trkpt>
      <trkpt lat="45.75774" lon="4.84078">
        <ele>222.857281</ele>
        <time>2021-04-24T06:24:18.500Z</time>
      </trkpt>
      <trkpt lat="45.75786" lon="4.84079">
        <ele>222.754264</ele>
        <time>2021-04-24T06:24:20.494Z</time>
      </trkpt>
      <trkpt lat="45.75798" lon="4.84082">
        <ele>222.652408</ele>
        <time>2021-04-24T06:24:22.491Z</time>
      </trkpt>
      <trkpt lat="45.75808" lon="4.84081">
        <ele>222.567235</ele>
        <time>2021-04-24T06:24:24.497Z</time>
      </trkpt>
      <trkpt lat="45.75819" lon="4.84082">
        <ele>222.471156</ele>
        <time>2021-04-24T06:24:26.489Z</time>
      </trkpt>
      <trkpt lat="45.75828" lon="4.84074">
        <ele>222.380738</ele>
        <time>2021-04-24T06:24:28.498Z</time>
      </trkpt>
      <trkpt lat="45.75838" lon="4.84076">
        <ele>222.289974</ele>
        <time>2021-04-24T06:24:31.490Z</time>
      </trkpt>
      <trkpt lat="45.75843" lon="4.84063">
        <ele>222.202855</ele>
        <time>2021-04-24T06:24:35.481Z</time>
      </trkpt>
      <trkpt lat="45.75852" lon="4.84057">
        <ele>222.113178</ele>
        <time>2021-04-24T06:24:41.495Z</time>
      </trkpt>
      <trkpt lat="45.75865" lon="4.84059">
        <ele>222.003914</ele>
        <time>2021-04-24T06:24:44.486Z</time>
      </trkpt>
      <trkpt lat="45.75875" lon="4.84057">
        <ele>221.912931</ele>
        <time>2021-04-24T06:24:46.492Z</time>
      </trkpt>
      <trkpt lat="45.75887" lon="4.84057">
        <ele>221.812684</ele>
        <time>2021-04-24T06:24:48.497Z</time>
      </trkpt>
      <trkpt lat="45.759" lon="4.84059">
        <ele>221.698341</ele>
        <time>2021-04-24T06:24:50.502Z</time>
      </trkpt>
      <trkpt lat="45.75913" lon="4.84059">
        <ele>221.582538</ele>
        <time>2021-04-24T06:24:52.486Z</time>
      </trkpt>
      <trkpt lat="45.75927" lon="4.84058">
        <ele>221.467585</ele>
        <time>2021-04-24T06:24:54.494Z</time>
      </trkpt>
      <trkpt lat="45.75939" lon="4.84059">
        <ele>221.210774</ele>
        <time>2021-04-24T06:24:56.481Z</time>
      </trkpt>
      <trkpt lat="45.75953" lon="4.84059">
        <ele>220.852367</ele>
        <time>2021-04-24T06:24:58.490Z</time>
      </trkpt>
      <trkpt lat="45.75967" lon="4.84061">
        <ele>220.490507</ele>
        <time>2021-04-24T06:25:00.480Z</time>
      </trkpt>
      <trkpt lat="45.7598" lon="4.84063">
        <ele>220.140374</ele>
        <time>2021-04-24T06:25:02.490Z</time>
      </trkpt>
      <trkpt lat="45.75994" lon="4.84065">
        <ele>219.771554</ele>
        <time>2021-04-24T06:25:04.492Z</time>
      </trkpt>
      <trkpt lat="45.76007" lon="4.84067">
        <ele>219.425361</ele>
        <time>2021-04-24T06:25:06.494Z</time>
      </trkpt>
      <trkpt lat="45.76023" lon="4.84069">
        <ele>219.005517</ele>
        <time>2021-04-24T06:25:08.491Z</time>
      </trkpt>
      <trkpt lat="45.76036" lon="4.8407">
        <ele>218.675114</ele>
        <time>2021-04-24T06:25:10.493Z</time>
      </trkpt>
      <trkpt lat="45.7605" lon="4.84071">
        <ele>218.321948</ele>
        <time>2021-04-24T06:25:12.508Z</time>
      </trkpt>
      <trkpt lat="45.76065" lon="4.84071">
        <ele>217.935133</ele>
        <time>2021-04-24T06:25:14.495Z</time>
      </trkpt>
      <trkpt lat="45.76079" lon="4.84073">
        <ele>217.556802</ele>
        <time>2021-04-24T06:25:16.496Z</time>
      </trkpt>
      <trkpt lat="45.76093" lon="4.84072">
        <ele>217.185138</ele>
        <time>2021-04-24T06:25:18.495Z</time>
      </trkpt>
      <trkpt lat="45.76108" lon="4.84072">
        <ele>216.795706</ele>
        <time>2021-04-24T06:25:20.501Z</time>
      </trkpt>
      <trkpt lat="45.76123" lon="4.84074">
        <ele>216.743863</ele>
        <time>2021-04-24T06:25:22.490Z</time>
      </trkpt>
      <trkpt lat="45.76139" lon="4.84078">
        <ele>216.717221</ele>
        <time>2021-04-24T06:25:24.504Z</time>
      </trkpt>
      <trkpt lat="45.76162" lon="4.84082">
        <ele>216.678438</ele>
        <time>2021-04-24T06:25:27.499Z</time>
      </trkpt>
      <trkpt lat="45.76177" lon="4.84083">
        <ele>216.653089</ele>
        <time>2021-04-24T06:25:29.500Z</time>
      </trkpt>
      <trkpt lat="45.76192" lon="4.84086">
        <ele>216.626872</ele>
        <time>2021-04-24T06:25:31.513Z</time>
      </trkpt>
      <trkpt lat="45.76207" lon="4.84087">
        <ele>216.601359</ele>
        <time>2021-04-24T06:25:33.500Z</time>
      </trkpt>
      <trkpt lat="45.76222" lon="4.8409">
        <ele>216.575604</ele>
        <time>2021-04-24T06:25:35.497Z</time>
      </trkpt>
      <trkpt lat="45.76238" lon="4.84093">
        <ele>216.549294</ele>
        <time>2021-04-24T06:25:37.497Z</time>
      </trkpt>
      <trkpt lat="45.76252" lon="4.84093">
        <ele>216.525487</ele>
        <time>2021-04-24T06:25:39.505Z</time>
      </trkpt>
      <trkpt lat="45.76266" lon="4.84094">
        <ele>216.500796</ele>
        <time>2021-04-24T06:25:41.494Z</time>
      </trkpt>
      <trkpt lat="45.7628" lon="4.84096">
        <ele>216.477041</ele>
        <time>2021-04-24T06:25:43.507Z</time>
      </trkpt>
      <trkpt lat="45.76295" lon="4.84096">
        <ele>216.462219</ele>
        <time>2021-04-24T06:25:45.502Z</time>
      </trkpt>
      <trkpt lat="45.76309" lon="4.84099">
        <ele>216.459252</ele>
        <time>2021-04-24T06:25:47.512Z</time>
      </trkpt>
      <trkpt lat="45.76324" lon="4.84101">
        <ele>216.456337</ele>
        <time>2021-04-24T06:25:49.502Z</time>
      </trkpt>
      <trkpt lat="45.76338" lon="4.84099">
        <ele>216.453426</ele>
        <time>2021-04-24T06:25:51.492Z</time>
      </trkpt>
      <trkpt lat="45.76354" lon="4.84098">
        <ele>216.450397</ele>
        <time>2021-04-24T06:25:53.498Z</time>
      </trkpt>
      <trkpt lat="45.76368" lon="4.84099">
        <ele>216.447569</ele>
        <time>2021-04-24T06:25:55.478Z</time>
      </trkpt>
      <trkpt lat="45.76382" lon="4.84105">
        <ele>216.44466</ele>
        <time>2021-04-24T06:25:57.512Z</time>
      </trkpt>
      <trkpt lat="45.76396" lon="4.8411">
        <ele>216.441753</ele>
        <time>2021-04-24T06:25:59.486Z</time>
      </trkpt>
      <trkpt lat="45.76411" lon="4.84111">
        <ele>216.438783</ele>
        <time>2021-04-24T06:26:01.499Z</time>
      </trkpt>
      <trkpt lat="45.76427" lon="4.84112">
        <ele>216.435494</ele>
        <time>2021-04-24T06:26:03.484Z</time>
      </trkpt>
      <trkpt lat="45.76442" lon="4.84111">
        <ele>216.432547</ele>
        <time>2021-04-24T06:26:05.482Z</time>
      </trkpt>
      <trkpt lat="45.76456" lon="4.84112">
        <ele>216.429621</ele>
        <time>2021-04-24T06:26:07.485Z</time>
      </trkpt>
      <trkpt lat="45.76471" lon="4.84113">
        <ele>216.387442</ele>
        <time>2021-04-24T06:26:09.484Z</time>
      </trkpt>
      <trkpt lat="45.76486" lon="4.84111">
        <ele>216.233245</ele>
        <time>2021-04-24T06:26:11.481Z</time>
      </trkpt>
      <trkpt lat="45.76499" lon="4.8411">
        <ele>216.087612</ele>
        <time>2021-04-24T06:26:13.491Z</time>
      </trkpt>
      <trkpt lat="45.76514" lon="4.84109">
        <ele>215.932212</ele>
        <time>2021-04-24T06:26:15.503Z</time>
      </trkpt>
      <trkpt lat="45.76528" lon="4.84108">
        <ele>215.78661</ele>
        <time>2021-04-24T06:26:17.489Z</time>
      </trkpt>
      <trkpt lat="45.76542" lon="4.84107">
        <ele>215.64108</ele>
        <time>2021-04-24T06:26:19.515Z</time>
      </trkpt>
      <trkpt lat="45.76557" lon="4.84108">
        <ele>215.486174</ele>
        <time>2021-04-24T06:26:21.544Z</time>
      </trkpt>
      <trkpt lat="45.76571" lon="4.84105">
        <ele>215.33926</ele>
        <time>2021-04-24T06:26:23.501Z</time>
      </trkpt>
      <trkpt lat="45.76586" lon="4.84104">
        <ele>215.178883</ele>
        <time>2021-04-24T06:26:25.589Z</time>
      </trkpt>
      <trkpt lat="45.76601" lon="4.84104">
        <ele>215.022933</ele>
        <time>2021-04-24T06:26:27.502Z</time>
      </trkpt>
      <trkpt lat="45.76615" lon="4.84103">
        <ele>214.871161</ele>
        <time>2021-04-24T06:26:29.490Z</time>
      </trkpt>
      <trkpt lat="45.76631" lon="4.84105">
        <ele>214.71263</ele>
        <time>2021-04-24T06:26:31.487Z</time>
      </trkpt>
      <trkpt lat="45.76644" lon="4.841">
        <ele>214.564665</ele>
        <time>2021-04-24T06:26:33.546Z</time>
      </trkpt>
      <trkpt lat="45.76659" lon="4.84101">
        <ele>214.73962</ele>
        <time>2021-04-24T06:26:35.501Z</time>
      </trkpt>
      <trkpt lat="45.76674" lon="4.84098">
        <ele>214.979693</ele>
        <time>2021-04-24T06:26:37.502Z</time>
      </trkpt>
      <trkpt lat="45.76688" lon="4.84095">
        <ele>215.202839</ele>
        <time>2021-04-24T06:26:39.506Z</time>
      </trkpt>
      <trkpt lat="45.76704" lon="4.84096">
        <ele>215.45529</ele>
        <time>2021-04-24T06:26:41.498Z</time>
      </trkpt>
      <trkpt lat="45.76719" lon="4.84091">
        <ele>215.695785</ele>
        <time>2021-04-24T06:26:43.534Z</time>
      </trkpt>
      <trkpt lat="45.76733" lon="4.84088">
        <ele>215.922685</ele>
        <time>2021-04-24T06:26:45.511Z</time>
      </trkpt>
      <trkpt lat="45.76747" lon="4.84086">
        <ele>216.137088</ele>
        <time>2021-04-24T06:26:47.491Z</time>
      </trkpt>
      <trkpt lat="45.7676" lon="4.84082">
        <ele>216.351812</ele>
        <time>2021-04-24T06:26:49.510Z</time>
      </trkpt>
      <trkpt lat="45.76774" lon="4.8408">
        <ele>216.571008</ele>
        <time>2021-04-24T06:26:51.492Z</time>
      </trkpt>
      <trkpt lat="45.76787" lon="4.84076">
        <ele>216.780385</ele>
        <time>2021-04-24T06:26:53.491Z</time>
      </trkpt>
      <trkpt lat="45.76802" lon="4.84075">
        <ele>217.006288</ele>
        <time>2021-04-24T06:26:55.553Z</time>
      </trkpt>
      <trkpt lat="45.76817" lon="4.84073">
        <ele>217.241173</ele>
        <time>2021-04-24T06:26:57.510Z</time>
      </trkpt>
      <trkpt lat="45.7683" lon="4.84071">
        <ele>217.313578</ele>
        <time>2021-04-24T06:26:59.511Z</time>
      </trkpt>
      <trkpt lat="45.76844" lon="4.84072">
        <ele>217.191364</ele>
        <time>2021-04-24T06:27:01.535Z</time>
      </trkpt>
      <trkpt lat="45.76858" lon="4.84071">
        <ele>217.068119</ele>
        <time>2021-04-24T06:27:03.500Z</time>
      </trkpt>
      <trkpt lat="45.76872" lon="4.84069">
        <ele>216.946563</ele>
        <time>2021-04-24T06:27:05.529Z</time>
      </trkpt>
      <trkpt lat="45.76886" lon="4.84068">
        <ele>216.823128</ele>
        <time>2021-04-24T06:27:07.508Z</time>
      </trkpt>
      <trkpt lat="45.769" lon="4.84067">
        <ele>216.69381</ele>
        <time>2021-04-24T06:27:09.506Z</time>
      </trkpt>
      <trkpt lat="45.76915" lon="4.84066">
        <ele>216.56611</ele>
        <time>2021-04-24T06:27:11.506Z</time>
      </trkpt>
      <trkpt lat="45.7693" lon="4.84066">
        <ele>216.431583</ele>
        <time>2021-04-24T06:27:13.500Z</time>
      </trkpt>
      <trkpt lat="45.76945" lon="4.84066">
        <ele>216.303203</ele>
        <time>2021-04-24T06:27:15.499Z</time>
      </trkpt>
      <trkpt lat="45.7696" lon="4.84065">
        <ele>216.170162</ele>
        <time>2021-04-24T06:27:17.545Z</time>
      </trkpt>
      <trkpt lat="45.76975" lon="4.84064">
        <ele>216.039152</ele>
        <time>2021-04-24T06:27:19.501Z</time>
      </trkpt>
      <trkpt lat="45.7699" lon="4.84064">
        <ele>215.908077</ele>
        <time>2021-04-24T06:27:21.479Z</time>
      </trkpt>
      <trkpt lat="45.77005" lon="4.84065">
        <ele>215.792108</ele>
        <time>2021-04-24T06:27:23.495Z</time>
      </trkpt>
      <trkpt lat="45.7702" lon="4.84067">
        <ele>215.974855</ele>
        <time>2021-04-24T06:27:25.505Z</time>
      </trkpt>
      <trkpt lat="45.77035" lon="4.84068">
        <ele>216.16326</ele>
        <time>2021-04-24T06:27:27.498Z</time>
      </trkpt>
      <trkpt lat="45.7705" lon="4.84068">
        <ele>216.342925</ele>
        <time>2021-04-24T06:27:29.500Z</time>
      </trkpt>
      <trkpt lat="45.77064" lon="4.84068">
        <ele>216.521392</ele>
        <time>2021-04-24T06:27:31.500Z</time>
      </trkpt>
      <trkpt lat="45.77079" lon="4.84069">
        <ele>216.697588</ele>
        <time>2021-04-24T06:27:33.513Z</time>
      </trkpt>
      <trkpt lat="45.77094" lon="4.84068">
        <ele>216.884858</ele>
        <time>2021-04-24T06:27:35.497Z</time>
      </trkpt>
      <trkpt lat="45.77108" lon="4.84068">
        <ele>217.052295</ele>
        <time>2021-04-24T06:27:37.497Z</time>
      </trkpt>
      <trkpt lat="45.77121" lon="4.84067">
        <ele>217.213676</ele>
        <time>2021-04-24T06:27:39.536Z</time>
      </trkpt>
      <trkpt lat="45.77135" lon="4.84068">
        <ele>217.384881</ele>
        <time>2021-04-24T06:27:41.506Z</time>
      </trkpt>
      <trkpt lat="45.77148" lon="4.84069">
        <ele>217.537938</ele>
        <time>2021-04-24T06:27:43.509Z</time>
      </trkpt>
      <trkpt lat="45.7716" lon="4.84069">
        <ele>217.688273</ele>
        <time>2021-04-24T06:27:45.524Z</time>
      </trkpt>
      <trkpt lat="45.77171" lon="4.84069">
        <ele>217.827601</ele>
        <time>2021-04-24T06:27:47.507Z</time>
      </trkpt>
      <trkpt lat="45.77185" lon="4.84071">
        <ele>218.058537</ele>
        <time>2021-04-24T06:27:49.502Z</time>
      </trkpt>
      <trkpt lat="45.77199" lon="4.84071">
        <ele>218.758642</ele>
        <time>2021-04-24T06:27:51.531Z</time>
      </trkpt>
      <trkpt lat="45.77211" lon="4.84069">
        <ele>219.388974</ele>
        <time>2021-04-24T06:27:53.485Z</time>
      </trkpt>
      <trkpt lat="45.77223" lon="4.8407">
        <ele>220.028305</ele>
        <time>2021-04-24T06:27:55.508Z</time>
      </trkpt>
      <trkpt lat="45.77235" lon="4.84067">
        <ele>220.64015</ele>
        <time>2021-04-24T06:27:57.506Z</time>
      </trkpt>
      <trkpt lat="45.77244" lon="4.84067">
        <ele>221.118946</ele>
        <time>2021-04-24T06:27:58.499Z</time>
      </trkpt>
      <trkpt lat="45.77257" lon="4.84076">
        <ele>221.824986</ele>
        <time>2021-04-24T06:28:00.502Z</time>
      </trkpt>
      <trkpt lat="45.77264" lon="4.84083">
        <ele>222.287642</ele>
        <time>2021-04-24T06:28:02.501Z</time>
      </trkpt>
      <trkpt lat="45.77275" lon="4.84088">
        <ele>222.861881</ele>
        <time>2021-04-24T06:28:04.496Z</time>
      </trkpt>
      <trkpt lat="45.77285" lon="4.84093">
        <ele>223.436318</ele>
        <time>2021-04-24T06:28:06.490Z</time>
      </trkpt>
      <trkpt lat="45.77295" lon="4.84098">
        <ele>223.959695</ele>
        <time>2021-04-24T06:28:08.506Z</time>
      </trkpt>
      <trkpt lat="45.77304" lon="4.84106">
        <ele>224.508083</ele>
        <time>2021-04-24T06:28:10.478Z</time>
      </trkpt>
      <trkpt lat="45.77316" lon="4.84113">
        <ele>225.168869</ele>
        <time>2021-04-24T06:28:13.477Z</time>
      </trkpt>
      <trkpt lat="45.77325" lon="4.84121">
        <ele>225.737853</ele>
        <time>2021-04-24T06:28:16.492Z</time>
      </trkpt>
      <trkpt lat="45.77335" lon="4.84128">
        <ele>226.306886</ele>
        <time>2021-04-24T06:28:19.502Z</time>
      </trkpt>
      <trkpt lat="45.77326" lon="4.84132">
        <ele>226.815926</ele>
        <time>2021-04-24T06:28:23.496Z</time>
      </trkpt>
      <trkpt lat="45.77316" lon="4.84127">
        <ele>227.296591</ele>
        <time>2021-04-24T06:28:28.492Z</time>
      </trkpt>
      <trkpt lat="45.77307" lon="4.84122">
        <ele>227.537747</ele>
        <time>2021-04-24T06:28:32.492Z</time>
      </trkpt>
      <trkpt lat="45.77295" lon="4.84117">
        <ele>227.84876</ele>
        <time>2021-04-24T06:28:35.501Z</time>
      </trkpt>
      <trkpt lat="45.77284" lon="4.84114">
        <ele>228.132128</ele>
        <time>2021-04-24T06:28:37.502Z</time>
      </trkpt>
      <trkpt lat="45.77273" lon="4.84111">
        <ele>228.40797</ele>
        <time>2021-04-24T06:28:39.486Z</time>
      </trkpt>
      <trkpt lat="45.77262" lon="4.8411">
        <ele>228.690211</ele>
        <time>2021-04-24T06:28:41.485Z</time>
      </trkpt>
      <trkpt lat="45.7725" lon="4.84105">
        <ele>229.007152</ele>
        <time>2021-04-24T06:28:44.551Z</time>
      </trkpt>
      <trkpt lat="45.77243" lon="4.84096">
        <ele>229.241936</ele>
        <time>2021-04-24T06:28:46.501Z</time>
      </trkpt>
      <trkpt lat="45.77243" lon="4.84082">
        <ele>229.487714</ele>
        <time>2021-04-24T06:28:48.504Z</time>
      </trkpt>
      <trkpt lat="45.77244" lon="4.84067">
        <ele>229.753394</ele>
        <time>2021-04-24T06:28:50.509Z</time>
      </trkpt>
      <trkpt lat="45.77246" lon="4.84049">
        <ele>230.067786</ele>
        <time>2021-04-24T06:28:52.491Z</time>
      </trkpt>
      <trkpt lat="45.77248" lon="4.84032">
        <ele>230.362332</ele>
        <time>2021-04-24T06:28:54.490Z</time>
      </trkpt>
      <trkpt lat="45.77249" lon="4.84015">
        <ele>230.661836</ele>
        <time>2021-04-24T06:28:56.485Z</time>
      </trkpt>
      <trkpt lat="45.77251" lon="4.83996">
        <ele>230.998453</ele>
        <time>2021-04-24T06:28:58.484Z</time>
      </trkpt>
      <trkpt lat="45.77252" lon="4.8398">
        <ele>231.291706</ele>
        <time>2021-04-24T06:29:00.494Z</time>
      </trkpt>
      <trkpt lat="45.77253" lon="4.83966">
        <ele>231.538259</ele>
        <time>2021-04-24T06:29:02.491Z</time>
      </trkpt>
      <trkpt lat="45.77256" lon="4.83947">
        <ele>231.694683</ele>
        <time>2021-04-24T06:29:05.509Z</time>
      </trkpt>
      <trkpt lat="45.77257" lon="4.8393">
        <ele>231.500936</ele>
        <time>2021-04-24T06:29:08.488Z</time>
      </trkpt>
      <trkpt lat="45.77258" lon="4.83916">
        <ele>231.33564</ele>
        <time>2021-04-24T06:29:10.501Z</time>
      </trkpt>
      <trkpt lat="45.7726" lon="4.83902">
        <ele>231.174377</ele>
        <time>2021-04-24T06:29:12.493Z</time>
      </trkpt>
      <trkpt lat="45.77261" lon="4.83887">
        <ele>231.007781</ele>
        <time>2021-04-24T06:29:14.495Z</time>
      </trkpt>
      <trkpt lat="45.77263" lon="4.83872">
        <ele>230.835689</ele>
        <time>2021-04-24T06:29:16.515Z</time>
      </trkpt>
      <trkpt lat="45.77271" lon="4.83857">
        <ele>230.626653</ele>
        <time>2021-04-24T06:29:19.502Z</time>
      </trkpt>
      <trkpt lat="45.77279" lon="4.83849">
        <ele>230.470518</ele>
        <time>2021-04-24T06:29:23.488Z</time>
      </trkpt>
      <trkpt lat="45.77278" lon="4.83834">
        <ele>230.292818</ele>
        <time>2021-04-24T06:29:26.500Z</time>
      </trkpt>
      <trkpt lat="45.77279" lon="4.83815">
        <ele>230.075433</ele>
        <time>2021-04-24T06:29:29.493Z</time>
      </trkpt>
      <trkpt lat="45.77281" lon="4.83799">
        <ele>229.893796</ele>
        <time>2021-04-24T06:29:31.493Z</time>
      </trkpt>
      <trkpt lat="45.77282" lon="4.83781">
        <ele>229.696478</ele>
        <time>2021-04-24T06:29:33.500Z</time>
      </trkpt>
      <trkpt lat="45.77284" lon="4.83762">
        <ele>229.476212</ele>
        <time>2021-04-24T06:29:35.498Z</time>
      </trkpt>
      <trkpt lat="45.77286" lon="4.83741">
        <ele>229.241217</ele>
        <time>2021-04-24T06:29:37.498Z</time>
      </trkpt>
      <trkpt lat="45.77289" lon="4.83722">
        <ele>229.016185</ele>
        <time>2021-04-24T06:29:39.503Z</time>
      </trkpt>
      <trkpt lat="45.77292" lon="4.837">
        <ele>228.845377</ele>
        <time>2021-04-24T06:29:41.499Z</time>
      </trkpt>
      <trkpt lat="45.77295" lon="4.8368">
        <ele>228.833509</ele>
        <time>2021-04-24T06:29:43.488Z</time>
      </trkpt>
      <trkpt lat="45.773" lon="4.83662">
        <ele>228.822559</ele>
        <time>2021-04-24T06:29:45.484Z</time>
      </trkpt>
      <trkpt lat="45.77459" lon="4.81398">
        <ele>221.852837</ele>
        <time>2021-04-24T06:33:24.507Z</time>
      </trkpt>
      <trkpt lat="45.77466" lon="4.81389">
        <ele>221.556496</ele>
        <time>2021-04-24T06:33:26.498Z</time>
      </trkpt>
      <trkpt lat="45.77468" lon="4.81368">
        <ele>221.114657</ele>
        <time>2021-04-24T06:33:28.494Z</time>
      </trkpt>
      <trkpt lat="45.77469" lon="4.81348">
        <ele>220.67459</ele>
        <time>2021-04-24T06:33:30.490Z</time>
      </trkpt>
      <trkpt lat="45.7747" lon="4.81327">
        <ele>220.22891</ele>
        <time>2021-04-24T06:33:32.502Z</time>
      </trkpt>
      <trkpt lat="45.77472" lon="4.81307">
        <ele>219.802238</ele>
        <time>2021-04-24T06:33:34.507Z</time>
      </trkpt>
      <trkpt lat="45.77473" lon="4.81288">
        <ele>219.389248</ele>
        <time>2021-04-24T06:33:36.501Z</time>
      </trkpt>
      <trkpt lat="45.77474" lon="4.81269">
        <ele>218.97995</ele>
        <time>2021-04-24T06:33:38.498Z</time>
      </trkpt>
      <trkpt lat="45.77475" lon="4.81249">
        <ele>218.544722</ele>
        <time>2021-04-24T06:33:40.532Z</time>
      </trkpt>
      <trkpt lat="45.77477" lon="4.8123">
        <ele>218.139871</ele>
        <time>2021-04-24T06:33:42.500Z</time>
      </trkpt>
      <trkpt lat="45.77479" lon="4.8121">
        <ele>217.689876</ele>
        <time>2021-04-24T06:33:44.497Z</time>
      </trkpt>
      <trkpt lat="45.77481" lon="4.81191">
        <ele>217.277809</ele>
        <time>2021-04-24T06:33:46.540Z</time>
      </trkpt>
      <trkpt lat="45.77483" lon="4.81172">
        <ele>216.871576</ele>
        <time>2021-04-24T06:33:48.504Z</time>
      </trkpt>
      <trkpt lat="45.77484" lon="4.81153">
        <ele>216.459873</ele>
        <time>2021-04-24T06:33:50.512Z</time>
      </trkpt>
      <trkpt lat="45.77486" lon="4.81136">
        <ele>216.431228</ele>
        <time>2021-04-24T06:33:52.540Z</time>
      </trkpt>
      <trkpt lat="45.77488" lon="4.8112">
        <ele>216.508213</ele>
        <time>2021-04-24T06:33:54.492Z</time>
      </trkpt>
      <trkpt lat="45.77489" lon="4.81103">
        <ele>216.587536</ele>
        <time>2021-04-24T06:33:56.510Z</time>
      </trkpt>
      <trkpt lat="45.77491" lon="4.8109">
        <ele>216.651699</ele>
        <time>2021-04-24T06:33:58.510Z</time>
      </trkpt>
      <trkpt lat="45.77493" lon="4.81077">
        <ele>216.712969</ele>
        <time>2021-04-24T06:34:00.501Z</time>
      </trkpt>
      <trkpt lat="45.77502" lon="4.81065">
        <ele>216.798284</ele>
        <time>2021-04-24T06:34:03.504Z</time>
      </trkpt>
      <trkpt lat="45.77511" lon="4.81062">
        <ele>216.862797</ele>
        <time>2021-04-24T06:34:05.499Z</time>
      </trkpt>
      <trkpt lat="45.77522" lon="4.81058">
        <ele>216.938835</ele>
        <time>2021-04-24T06:34:07.516Z</time>
      </trkpt>
      <trkpt lat="45.77534" lon="4.81055">
        <ele>217.017198</ele>
        <time>2021-04-24T06:34:09.501Z</time>
      </trkpt>
      <trkpt lat="45.77547" lon="4.8105">
        <ele>217.108953</ele>
        <time>2021-04-24T06:34:11.509Z</time>
      </trkpt>
      <trkpt lat="45.77559" lon="4.81048">
        <ele>217.19249</ele>
        <time>2021-04-24T06:34:13.514Z</time>
      </trkpt>
      <trkpt lat="45.77574" lon="4.81041">
        <ele>217.300208</ele>
        <time>2021-04-24T06:34:15.503Z</time>
      </trkpt>
      <trkpt lat="45.77589" lon="4.81037">
        <ele>217.39929</ele>
        <time>2021-04-24T06:34:17.505Z</time>
      </trkpt>
      <trkpt lat="45.77604" lon="4.81034">
        <ele>217.504768</ele>
        <time>2021-04-24T06:34:19.499Z</time>
      </trkpt>
      <trkpt lat="45.77619" lon="4.81035">
        <ele>217.505354</ele>
        <time>2021-04-24T06:34:21.505Z</time>
      </trkpt>
      <trkpt lat="45.77635" lon="4.81036">
        <ele>217.005934</ele>
        <time>2021-04-24T06:34:23.505Z</time>
      </trkpt>
      <trkpt lat="45.7765" lon="4.81039">
        <ele>216.543212</ele>
        <time>2021-04-24T06:34:25.499Z</time>
      </trkpt>
      <trkpt lat="45.77664" lon="4.81043">
        <ele>216.101556</ele>
        <time>2021-04-24T06:34:27.506Z</time>
      </trkpt>
      <trkpt lat="45.77678" lon="4.81046">
        <ele>215.670955</ele>
        <time>2021-04-24T06:34:29.509Z</time>
      </trkpt>
      <trkpt lat="45.77689" lon="4.81046">
        <ele>215.30194</ele>
        <time>2021-04-24T06:34:31.490Z</time>
      </trkpt>
      <trkpt lat="45.77704" lon="4.81052">
        <ele>214.835331</ele>
        <time>2021-04-24T06:34:33.488Z</time>
      </trkpt>
      <trkpt lat="45.77717" lon="4.81056">
        <ele>214.418843</ele>
        <time>2021-04-24T06:34:35.492Z</time>
      </trkpt>
      <trkpt lat="45.77729" lon="4.81058">
        <ele>214.053618</ele>
        <time>2021-04-24T06:34:37.513Z</time>
      </trkpt>
      <trkpt lat="45.77742" lon="4.81062">
        <ele>213.642606</ele>
        <time>2021-04-24T06:34:39.495Z</time>
      </trkpt>
      <trkpt lat="45.77755" lon="4.81068">
        <ele>213.204017</ele>
        <time>2021-04-24T06:34:41.522Z</time>
      </trkpt>
      <trkpt lat="45.77769" lon="4.81075">
        <ele>212.737107</ele>
        <time>2021-04-24T06:34:43.505Z</time>
      </trkpt>
      <trkpt lat="45.77784" lon="4.81081">
        <ele>212.276821</ele>
        <time>2021-04-24T06:34:45.505Z</time>
      </trkpt>
      <trkpt lat="45.77794" lon="4.81088">
        <ele>212.058165</ele>
        <time>2021-04-24T06:34:47.498Z</time>
      </trkpt>
      <trkpt lat="45.77808" lon="4.81096">
        <ele>212.301462</ele>
        <time>2021-04-24T06:34:49.483Z</time>
      </trkpt>
      <trkpt lat="45.7782" lon="4.81101">
        <ele>212.517617</ele>
        <time>2021-04-24T06:34:51.507Z</time>
      </trkpt>
      <trkpt lat="45.77835" lon="4.81108">
        <ele>212.774795</ele>
        <time>2021-04-24T06:34:53.500Z</time>
      </trkpt>
      <trkpt lat="45.77849" lon="4.81111">
        <ele>213.010856</ele>
        <time>2021-04-24T06:34:55.517Z</time>
      </trkpt>
      <trkpt lat="45.77863" lon="4.8112">
        <ele>213.266838</ele>
        <time>2021-04-24T06:34:57.503Z</time>
      </trkpt>
      <trkpt lat="45.77877" lon="4.81126">
        <ele>213.497537</ele>
        <time>2021-04-24T06:34:59.508Z</time>
      </trkpt>
      <trkpt lat="45.77889" lon="4.81133">
        <ele>213.715332</ele>
        <time>2021-04-24T06:35:01.518Z</time>
      </trkpt>
      <trkpt lat="45.77901" lon="4.81137">
        <ele>213.920326</ele>
        <time>2021-04-24T06:35:03.504Z</time>
      </trkpt>
      <trkpt lat="45.77912" lon="4.81141">
        <ele>214.102931</ele>
        <time>2021-04-24T06:35:05.507Z</time>
      </trkpt>
      <trkpt lat="45.77923" lon="4.81144">
        <ele>214.289846</ele>
        <time>2021-04-24T06:35:07.496Z</time>
      </trkpt>
      <trkpt lat="45.77933" lon="4.81147">
        <ele>214.461937</ele>
        <time>2021-04-24T06:35:09.518Z</time>
      </trkpt>
      <trkpt lat="45.77944" lon="4.81149">
        <ele>214.641948</ele>
        <time>2021-04-24T06:35:11.501Z</time>
      </trkpt>
      <trkpt lat="45.77955" lon="4.81156">
        <ele>214.835525</ele>
        <time>2021-04-24T06:35:13.498Z</time>
      </trkpt>
      <trkpt lat="45.77966" lon="4.8116">
        <ele>215.083875</ele>
        <time>2021-04-24T06:35:15.503Z</time>
      </trkpt>
      <trkpt lat="45.77978" lon="4.8116">
        <ele>215.497665</ele>
        <time>2021-04-24T06:35:17.518Z</time>
      </trkpt>
      <trkpt lat="45.77986" lon="4.81152">
        <ele>215.84527</ele>
        <time>2021-04-24T06:35:19.625Z</time>
      </trkpt>
      <trkpt lat="45.7799" lon="4.81138">
        <ele>216.210302</ele>
        <time>2021-04-24T06:35:21.504Z</time>
      </trkpt>
      <trkpt lat="45.77993" lon="4.8112">
        <ele>216.67374</ele>
        <time>2021-04-24T06:35:23.555Z</time>
      </trkpt>
      <trkpt lat="45.77998" lon="4.81103">
        <ele>217.114858</ele>
        <time>2021-04-24T06:35:25.495Z</time>
      </trkpt>
      <trkpt lat="45.78003" lon="4.81087">
        <ele>217.542802</ele>
        <time>2021-04-24T06:35:27.486Z</time>
      </trkpt>
      <trkpt lat="45.78008" lon="4.81069">
        <ele>218.01417</ele>
        <time>2021-04-24T06:35:29.491Z</time>
      </trkpt>
      <trkpt lat="45.78013" lon="4.81052">
        <ele>218.472801</ele>
        <time>2021-04-24T06:35:31.486Z</time>
      </trkpt>
      <trkpt lat="45.78018" lon="4.81035">
        <ele>218.927859</ele>
        <time>2021-04-24T06:35:33.489Z</time>
      </trkpt>
      <trkpt lat="45.78022" lon="4.81019">
        <ele>219.337598</ele>
        <time>2021-04-24T06:35:35.497Z</time>
      </trkpt>
      <trkpt lat="45.78026" lon="4.81003">
        <ele>219.756463</ele>
        <time>2021-04-24T06:35:37.502Z</time>
      </trkpt>
      <trkpt lat="45.78031" lon="4.80987">
        <ele>220.187891</ele>
        <time>2021-04-24T06:35:39.494Z</time>
      </trkpt>
      <trkpt lat="45.78035" lon="4.80971">
        <ele>220.582543</ele>
        <time>2021-04-24T06:35:41.498Z</time>
      </trkpt>
      <trkpt lat="45.78038" lon="4.80957">
        <ele>220.950638</ele>
        <time>2021-04-24T06:35:43.508Z</time>
      </trkpt>
      <trkpt lat="45.78043" lon="4.80942">
        <ele>221.330467</ele>
        <time>2021-04-24T06:35:46.495Z</time>
      </trkpt>
      <trkpt lat="45.78045" lon="4.80928">
        <ele>221.541581</ele>
        <time>2021-04-24T06:35:50.487Z</time>
      </trkpt>
      <trkpt lat="45.78054" lon="4.80928">
        <ele>221.73573</ele>
        <time>2021-04-24T06:36:00.489Z</time>
      </trkpt>
      <trkpt lat="45.78058" lon="4.80913">
        <ele>221.973346</ele>
        <time>2021-04-24T06:36:05.487Z</time>
      </trkpt>
      <trkpt lat="45.78059" lon="4.80898">
        <ele>222.196916</ele>
        <time>2021-04-24T06:36:08.493Z</time>
      </trkpt>
      <trkpt lat="45.78066" lon="4.8088">
        <ele>222.492176</ele>
        <time>2021-04-24T06:36:11.491Z</time>
      </trkpt>
      <trkpt lat="45.78071" lon="4.80866">
        <ele>222.720627</ele>
        <time>2021-04-24T06:36:13.505Z</time>
      </trkpt>
      <trkpt lat="45.78077" lon="4.80849">
        <ele>223.000561</ele>
        <time>2021-04-24T06:36:15.496Z</time>
      </trkpt>
      <trkpt lat="45.78084" lon="4.80834">
        <ele>223.272209</ele>
        <time>2021-04-24T06:36:17.492Z</time>
      </trkpt>
      <trkpt lat="45.78092" lon="4.80818">
        <ele>223.559435</ele>
        <time>2021-04-24T06:36:19.504Z</time>
      </trkpt>
      <trkpt lat="45.78099" lon="4.80802">
        <ele>223.841033</ele>
        <time>2021-04-24T06:36:21.506Z</time>
      </trkpt>
      <trkpt lat="45.78109" lon="4.80786">
        <ele>224.159922</ele>
        <time>2021-04-24T06:36:23.555Z</time>
      </trkpt>
      <trkpt lat="45.78117" lon="4.80767">
        <ele>224.472862</ele>
        <time>2021-04-24T06:36:25.503Z</time>
      </trkpt>
      <trkpt lat="45.78123" lon="4.8075">
        <ele>224.763234</ele>
        <time>2021-04-24T06:36:27.512Z</time>
      </trkpt>
      <trkpt lat="45.7813" lon="4.80735">
        <ele>225.019281</ele>
        <time>2021-04-24T06:36:29.520Z</time>
      </trkpt>
      <trkpt lat="45.7814" lon="4.8072">
        <ele>224.955826</ele>
        <time>2021-04-24T06:36:31.498Z</time>
      </trkpt>
      <trkpt lat="45.78145" lon="4.80705">
        <ele>224.839636</ele>
        <time>2021-04-24T06:36:33.496Z</time>
      </trkpt>
      <trkpt lat="45.78148" lon="4.8069">
        <ele>224.734451</ele>
        <time>2021-04-24T06:36:35.518Z</time>
      </trkpt>
      <trkpt lat="45.78157" lon="4.80676">
        <ele>224.608831</ele>
        <time>2021-04-24T06:36:37.499Z</time>
      </trkpt>
      <trkpt lat="45.78169" lon="4.8068">
        <ele>224.490663</ele>
        <time>2021-04-24T06:36:39.510Z</time>
      </trkpt>
      <trkpt lat="45.78182" lon="4.80689">
        <ele>224.356178</ele>
        <time>2021-04-24T06:36:41.486Z</time>
      </trkpt>
      <trkpt lat="45.78193" lon="4.80695">
        <ele>224.236665</ele>
        <time>2021-04-24T06:36:43.509Z</time>
      </trkpt>
      <trkpt lat="45.78206" lon="4.80703">
        <ele>224.098867</ele>
        <time>2021-04-24T06:36:45.507Z</time>
      </trkpt>
      <trkpt lat="45.78219" lon="4.80712">
        <ele>223.96003</ele>
        <time>2021-04-24T06:36:47.498Z</time>
      </trkpt>
      <trkpt lat="45.78233" lon="4.80721">
        <ele>223.816002</ele>
        <time>2021-04-24T06:36:49.495Z</time>
      </trkpt>
      <trkpt lat="45.78244" lon="4.80732">
        <ele>223.687697</ele>
        <time>2021-04-24T06:36:51.502Z</time>
      </trkpt>
      <trkpt lat="45.78257" lon="4.80736">
        <ele>223.563156</ele>
        <time>2021-04-24T06:36:53.498Z</time>
      </trkpt>
      <trkpt lat="45.78271" lon="4.8074">
        <ele>223.419157</ele>
        <time>2021-04-24T06:36:55.490Z</time>
      </trkpt>
      <trkpt lat="45.78282" lon="4.80744">
        <ele>223.317037</ele>
        <time>2021-04-24T06:36:57.491Z</time>
      </trkpt>
      <trkpt lat="45.78291" lon="4.80748">
        <ele>223.245649</ele>
        <time>2021-04-24T06:37:00.485Z</time>
      </trkpt>
      <trkpt lat="45.783" lon="4.8075">
        <ele>223.173665</ele>
        <time>2021-04-24T06:37:09.503Z</time>
      </trkpt>
      <trkpt lat="45.78309" lon="4.80757">
        <ele>223.098311</ele>
        <time>2021-04-24T06:37:12.493Z</time>
      </trkpt>
      <trkpt lat="45.78318" lon="4.80763">
        <ele>223.025433</ele>
        <time>2021-04-24T06:37:14.486Z</time>
      </trkpt>
      <trkpt lat="45.78328" lon="4.80768">
        <ele>222.942935</ele>
        <time>2021-04-24T06:37:16.480Z</time>
      </trkpt>
      <trkpt lat="45.78336" lon="4.80776">
        <ele>222.865556</ele>
        <time>2021-04-24T06:37:18.488Z</time>
      </trkpt>
      <trkpt lat="45.7835" lon="4.80785">
        <ele>222.747412</ele>
        <time>2021-04-24T06:37:21.489Z</time>
      </trkpt>
      <trkpt lat="45.78361" lon="4.80793">
        <ele>222.652786</ele>
        <time>2021-04-24T06:37:23.501Z</time>
      </trkpt>
      <trkpt lat="45.78374" lon="4.80801">
        <ele>222.548411</ele>
        <time>2021-04-24T06:37:25.495Z</time>
      </trkpt>
      <trkpt lat="45.78387" lon="4.80807">
        <ele>222.438763</ele>
        <time>2021-04-24T06:37:27.501Z</time>
      </trkpt>
      <trkpt lat="45.784" lon="4.80811">
        <ele>222.334612</ele>
        <time>2021-04-24T06:37:29.509Z</time>
      </trkpt>
      <trkpt lat="45.78414" lon="4.80816">
        <ele>222.228913</ele>
        <time>2021-04-24T06:37:31.501Z</time>
      </trkpt>
      <trkpt lat="45.78427" lon="4.80824">
        <ele>222.119516</ele>
        <time>2021-04-24T06:37:33.562Z</time>
      </trkpt>
      <trkpt lat="45.78441" lon="4.8083">
        <ele>222.004386</ele>
        <time>2021-04-24T06:37:35.493Z</time>
      </trkpt>
      <trkpt lat="45.78453" lon="4.80836">
        <ele>222.020383</ele>
        <time>2021-04-24T06:37:37.507Z</time>
      </trkpt>
      <trkpt lat="45.78468" lon="4.80831">
        <ele>222.167867</ele>
        <time>2021-04-24T06:37:39.530Z</time>
      </trkpt>
      <trkpt lat="45.78484" lon="4.80825">
        <ele>222.32818</ele>
        <time>2021-04-24T06:37:41.501Z</time>
      </trkpt>
      <trkpt lat="45.78497" lon="4.80819">
        <ele>222.454951</ele>
        <time>2021-04-24T06:37:43.502Z</time>
      </trkpt>
      <trkpt lat="45.78509" lon="4.80811">
        <ele>222.581401</ele>
        <time>2021-04-24T06:37:45.549Z</time>
      </trkpt>
      <trkpt lat="45.78523" lon="4.80799">
        <ele>222.7332</ele>
        <time>2021-04-24T06:37:47.504Z</time>
      </trkpt>
      <trkpt lat="45.78537" lon="4.80791">
        <ele>222.876696</ele>
        <time>2021-04-24T06:37:49.487Z</time>
      </trkpt>
      <trkpt lat="45.7855" lon="4.80781">
        <ele>223.020173</ele>
        <time>2021-04-24T06:37:51.543Z</time>
      </trkpt>
      <trkpt lat="45.78565" lon="4.80778">
        <ele>223.165922</ele>
        <time>2021-04-24T06:37:53.496Z</time>
      </trkpt>
      <trkpt lat="45.78578" lon="4.80785">
        <ele>223.292588</ele>
        <time>2021-04-24T06:37:55.493Z</time>
      </trkpt>
      <trkpt lat="45.78589" lon="4.80793">
        <ele>223.415789</ele>
        <time>2021-04-24T06:37:57.494Z</time>
      </trkpt>
      <trkpt lat="45.78602" lon="4.80796">
        <ele>223.543433</ele>
        <time>2021-04-24T06:37:59.487Z</time>
      </trkpt>
      <trkpt lat="45.78615" lon="4.80803">
        <ele>223.67882</ele>
        <time>2021-04-24T06:38:01.490Z</time>
      </trkpt>
      <trkpt lat="45.78627" lon="4.80807">
        <ele>223.972625</ele>
        <time>2021-04-24T06:38:03.502Z</time>
      </trkpt>
      <trkpt lat="45.78639" lon="4.80812">
        <ele>224.283476</ele>
        <time>2021-04-24T06:38:05.501Z</time>
      </trkpt>
      <trkpt lat="45.7865" lon="4.80817">
        <ele>224.576001</ele>
        <time>2021-04-24T06:38:07.497Z</time>
      </trkpt>
      <trkpt lat="45.78663" lon="4.80822">
        <ele>224.903438</ele>
        <time>2021-04-24T06:38:09.503Z</time>
      </trkpt>
      <trkpt lat="45.78672" lon="4.80826">
        <ele>225.146255</ele>
        <time>2021-04-24T06:38:11.497Z</time>
      </trkpt>
      <trkpt lat="45.78684" lon="4.80833">
        <ele>225.464791</ele>
        <time>2021-04-24T06:38:13.494Z</time>
      </trkpt>
      <trkpt lat="45.78695" lon="4.80837">
        <ele>225.74127</ele>
        <time>2021-04-24T06:38:15.514Z</time>
      </trkpt>
      <trkpt lat="45.78705" lon="4.80844">
        <ele>226.039639</ele>
        <time>2021-04-24T06:38:17.482Z</time>
      </trkpt>
      <trkpt lat="45.78715" lon="4.8085">
        <ele>226.290917</ele>
        <time>2021-04-24T06:38:19.495Z</time>
      </trkpt>
      <trkpt lat="45.78724" lon="4.80854">
        <ele>226.530872</ele>
        <time>2021-04-24T06:38:22.520Z</time>
      </trkpt>
      <trkpt lat="45.78734" lon="4.80848">
        <ele>226.807934</ele>
        <time>2021-04-24T06:38:25.496Z</time>
      </trkpt>
      <trkpt lat="45.78742" lon="4.80854">
        <ele>227.040046</ele>
        <time>2021-04-24T06:38:27.496Z</time>
      </trkpt>
      <trkpt lat="45.78754" lon="4.80861">
        <ele>227.352633</ele>
        <time>2021-04-24T06:38:30.522Z</time>
      </trkpt>
      <trkpt lat="45.78765" lon="4.80864">
        <ele>227.624037</ele>
        <time>2021-04-24T06:38:33.529Z</time>
      </trkpt>
      <trkpt lat="45.78773" lon="4.80871">
        <ele>227.867736</ele>
        <time>2021-04-24T06:38:36.498Z</time>
      </trkpt>
      <trkpt lat="45.78783" lon="4.80876">
        <ele>228.135131</ele>
        <time>2021-04-24T06:38:41.501Z</time>
      </trkpt>
      <trkpt lat="45.78794" lon="4.80881">
        <ele>228.233279</ele>
        <time>2021-04-24T06:38:47.501Z</time>
      </trkpt>
      <trkpt lat="45.78803" lon="4.80883">
        <ele>228.307764</ele>
        <time>2021-04-24T06:38:50.517Z</time>
      </trkpt>
      <trkpt lat="45.78811" lon="4.80873">
        <ele>228.394071</ele>
        <time>2021-04-24T06:38:54.524Z</time>
      </trkpt>
      <trkpt lat="45.78816" lon="4.80858">
        <ele>228.491191</ele>
        <time>2021-04-24T06:38:57.548Z</time>
      </trkpt>
      <trkpt lat="45.78823" lon="4.80846">
        <ele>228.578493</ele>
        <time>2021-04-24T06:39:00.512Z</time>
      </trkpt>
      <trkpt lat="45.7883" lon="4.80835">
        <ele>228.662873</ele>
        <time>2021-04-24T06:39:03.503Z</time>
      </trkpt>
      <trkpt lat="45.78837" lon="4.80824">
        <ele>228.748498</ele>
        <time>2021-04-24T06:39:06.496Z</time>
      </trkpt>
      <trkpt lat="45.78843" lon="4.80811">
        <ele>228.835976</ele>
        <time>2021-04-24T06:39:09.520Z</time>
      </trkpt>
      <trkpt lat="45.78852" lon="4.808">
        <ele>228.936557</ele>
        <time>2021-04-24T06:39:12.500Z</time>
      </trkpt>
      <trkpt lat="45.78862" lon="4.80792">
        <ele>229.026839</ele>
        <time>2021-04-24T06:39:15.496Z</time>
      </trkpt>
      <trkpt lat="45.78873" lon="4.80785">
        <ele>229.128793</ele>
        <time>2021-04-24T06:39:18.527Z</time>
      </trkpt>
      <trkpt lat="45.78885" lon="4.80782">
        <ele>229.226427</ele>
        <time>2021-04-24T06:39:21.503Z</time>
      </trkpt>
      <trkpt lat="45.78898" lon="4.8078">
        <ele>229.336199</ele>
        <time>2021-04-24T06:39:24.526Z</time>
      </trkpt>
      <trkpt lat="45.78908" lon="4.80781">
        <ele>229.411547</ele>
        <time>2021-04-24T06:39:26.523Z</time>
      </trkpt>
      <trkpt lat="45.78917" lon="4.80782">
        <ele>229.487101</ele>
        <time>2021-04-24T06:39:28.498Z</time>
      </trkpt>
      <trkpt lat="45.78926" lon="4.80785">
        <ele>229.562186</ele>
        <time>2021-04-24T06:39:30.544Z</time>
      </trkpt>
      <trkpt lat="45.78938" lon="4.8079">
        <ele>229.601361</ele>
        <time>2021-04-24T06:39:33.504Z</time>
      </trkpt>
      <trkpt lat="45.78949" lon="4.80796">
        <ele>229.57807</ele>
        <time>2021-04-24T06:39:36.524Z</time>
      </trkpt>
      <trkpt lat="45.78961" lon="4.80802">
        <ele>229.550769</ele>
        <time>2021-04-24T06:39:39.509Z</time>
      </trkpt>
      <trkpt lat="45.7897" lon="4.80807">
        <ele>229.531469</ele>
        <time>2021-04-24T06:39:41.500Z</time>
      </trkpt>
      <trkpt lat="45.78981" lon="4.80812">
        <ele>229.508452</ele>
        <time>2021-04-24T06:39:44.493Z</time>
      </trkpt>
      <trkpt lat="45.78993" lon="4.80816">
        <ele>229.482459</ele>
        <time>2021-04-24T06:39:47.511Z</time>
      </trkpt>
      <trkpt lat="45.79002" lon="4.8082">
        <ele>229.462731</ele>
        <time>2021-04-24T06:39:49.517Z</time>
      </trkpt>
      <trkpt lat="45.79015" lon="4.80823">
        <ele>229.435476</ele>
        <time>2021-04-24T06:39:52.504Z</time>
      </trkpt>
      <trkpt lat="45.79028" lon="4.80829">
        <ele>229.408697</ele>
        <time>2021-04-24T06:39:55.513Z</time>
      </trkpt>
      <trkpt lat="45.79036" lon="4.80833">
        <ele>229.390172</ele>
        <time>2021-04-24T06:39:57.517Z</time>
      </trkpt>
      <trkpt lat="45.79046" lon="4.80836">
        <ele>229.369961</ele>
        <time>2021-04-24T06:39:59.500Z</time>
      </trkpt>
      <trkpt lat="45.79055" lon="4.8084">
        <ele>229.350939</ele>
        <time>2021-04-24T06:40:01.494Z</time>
      </trkpt>
      <trkpt lat="45.79063" lon="4.80844">
        <ele>229.33232</ele>
        <time>2021-04-24T06:40:03.484Z</time>
      </trkpt>
      <trkpt lat="45.79076" lon="4.80851">
        <ele>229.30337</ele>
        <time>2021-04-24T06:40:06.507Z</time>
      </trkpt>
      <trkpt lat="45.7909" lon="4.80855">
        <ele>229.274344</ele>
        <time>2021-04-24T06:40:09.491Z</time>
      </trkpt>
      <trkpt lat="45.79099" lon="4.80859">
        <ele>229.255488</ele>
        <time>2021-04-24T06:40:11.499Z</time>
      </trkpt>
      <trkpt lat="45.79111" lon="4.80865">
        <ele>229.714879</ele>
        <time>2021-04-24T06:40:14.490Z</time>
      </trkpt>
      <trkpt lat="45.79124" lon="4.80864">
        <ele>230.476721</ele>
        <time>2021-04-24T06:40:17.491Z</time>
      </trkpt>
      <trkpt lat="45.79133" lon="4.80864">
        <ele>231.081831</ele>
        <time>2021-04-24T06:40:19.496Z</time>
      </trkpt>
      <trkpt lat="45.79145" lon="4.80865">
        <ele>231.812516</ele>
        <time>2021-04-24T06:40:22.508Z</time>
      </trkpt>
      <trkpt lat="45.79153" lon="4.80869">
        <ele>232.373416</ele>
        <time>2021-04-24T06:40:24.494Z</time>
      </trkpt>
      <trkpt lat="45.79165" lon="4.80876">
        <ele>233.144757</ele>
        <time>2021-04-24T06:40:27.498Z</time>
      </trkpt>
      <trkpt lat="45.79177" lon="4.80883">
        <ele>233.956623</ele>
        <time>2021-04-24T06:40:30.493Z</time>
      </trkpt>
      <trkpt lat="45.79188" lon="4.80886">
        <ele>234.685774</ele>
        <time>2021-04-24T06:40:34.522Z</time>
      </trkpt>
      <trkpt lat="45.79196" lon="4.80876">
        <ele>235.322231</ele>
        <time>2021-04-24T06:40:37.505Z</time>
      </trkpt>
      <trkpt lat="45.79197" lon="4.80864">
        <ele>235.88399</ele>
        <time>2021-04-24T06:40:39.495Z</time>
      </trkpt>
      <trkpt lat="45.79197" lon="4.80851">
        <ele>236.445955</ele>
        <time>2021-04-24T06:40:41.503Z</time>
      </trkpt>
      <trkpt lat="45.79196" lon="4.80833">
        <ele>237.214023</ele>
        <time>2021-04-24T06:40:44.490Z</time>
      </trkpt>
      <trkpt lat="45.79191" lon="4.8082">
        <ele>237.857032</ele>
        <time>2021-04-24T06:40:47.496Z</time>
      </trkpt>
      <trkpt lat="45.79181" lon="4.80811">
        <ele>238.609415</ele>
        <time>2021-04-24T06:40:50.497Z</time>
      </trkpt>
      <trkpt lat="45.79169" lon="4.80806">
        <ele>239.368899</ele>
        <time>2021-04-24T06:40:53.505Z</time>
      </trkpt>
      <trkpt lat="45.79157" lon="4.80806">
        <ele>240.098872</ele>
        <time>2021-04-24T06:40:56.501Z</time>
      </trkpt>
      <trkpt lat="45.79147" lon="4.80807">
        <ele>240.705597</ele>
        <time>2021-04-24T06:40:59.497Z</time>
      </trkpt>
      <trkpt lat="45.79136" lon="4.80807">
        <ele>241.197491</ele>
        <time>2021-04-24T06:41:02.501Z</time>
      </trkpt>
      <trkpt lat="45.79127" lon="4.80803">
        <ele>241.672178</ele>
        <time>2021-04-24T06:41:05.494Z</time>
      </trkpt>
      <trkpt lat="45.79118" lon="4.80797">
        <ele>242.123302</ele>
        <time>2021-04-24T06:41:08.494Z</time>
      </trkpt>
      <trkpt lat="45.7911" lon="4.80788">
        <ele>242.608402</ele>
        <time>2021-04-24T06:41:11.488Z</time>
      </trkpt>
      <trkpt lat="45.79102" lon="4.8078">
        <ele>243.085723</ele>
        <time>2021-04-24T06:41:14.503Z</time>
      </trkpt>
      <trkpt lat="45.79096" lon="4.80766">
        <ele>243.621357</ele>
        <time>2021-04-24T06:41:18.499Z</time>
      </trkpt>
      <trkpt lat="45.79089" lon="4.80752">
        <ele>244.192193</ele>
        <time>2021-04-24T06:41:22.495Z</time>
      </trkpt>
      <trkpt lat="45.7908" lon="4.80746">
        <ele>244.670756</ele>
        <time>2021-04-24T06:41:25.493Z</time>
      </trkpt>
      <trkpt lat="45.7907" lon="4.80743">
        <ele>245.145444</ele>
        <time>2021-04-24T06:41:28.497Z</time>
      </trkpt>
      <trkpt lat="45.7906" lon="4.80741">
        <ele>245.621975</ele>
        <time>2021-04-24T06:41:31.496Z</time>
      </trkpt>
      <trkpt lat="45.7905" lon="4.80739">
        <ele>246.114041</ele>
        <time>2021-04-24T06:41:34.513Z</time>
      </trkpt>
      <trkpt lat="45.7904" lon="4.80737">
        <ele>246.591456</ele>
        <time>2021-04-24T06:41:37.512Z</time>
      </trkpt>
      <trkpt lat="45.79031" lon="4.80734">
        <ele>247.028032</ele>
        <time>2021-04-24T06:41:40.503Z</time>
      </trkpt>
      <trkpt lat="45.79023" lon="4.80728">
        <ele>247.473389</ele>
        <time>2021-04-24T06:41:43.494Z</time>
      </trkpt>
      <trkpt lat="45.79017" lon="4.80717">
        <ele>247.936626</ele>
        <time>2021-04-24T06:41:46.516Z</time>
      </trkpt>
      <trkpt lat="45.79013" lon="4.80704">
        <ele>248.416516</ele>
        <time>2021-04-24T06:41:49.507Z</time>
      </trkpt>
      <trkpt lat="45.79013" lon="4.8069">
        <ele>248.882773</ele>
        <time>2021-04-24T06:41:52.486Z</time>
      </trkpt>
      <trkpt lat="45.79016" lon="4.80677">
        <ele>249.22855</ele>
        <time>2021-04-24T06:41:55.501Z</time>
      </trkpt>
      <trkpt lat="45.79023" lon="4.80666">
        <ele>249.511759</ele>
        <time>2021-04-24T06:41:58.492Z</time>
      </trkpt>
      <trkpt lat="45.79031" lon="4.80658">
        <ele>249.77837</ele>
        <time>2021-04-24T06:42:01.490Z</time>
      </trkpt>
      <trkpt lat="45.79038" lon="4.8065">
        <ele>250.039299</ele>
        <time>2021-04-24T06:42:04.505Z</time>
      </trkpt>
      <trkpt lat="45.79044" lon="4.8064">
        <ele>250.295179</ele>
        <time>2021-04-24T06:42:07.499Z</time>
      </trkpt>
      <trkpt lat="45.79048" lon="4.80628">
        <ele>250.562166</ele>
        <time>2021-04-24T06:42:10.538Z</time>
      </trkpt>
      <trkpt lat="45.79052" lon="4.80611">
        <ele>250.908071</ele>
        <time>2021-04-24T06:42:14.505Z</time>
      </trkpt>
      <trkpt lat="45.79054" lon="4.80597">
        <ele>251.195924</ele>
        <time>2021-04-24T06:42:17.492Z</time>
      </trkpt>
      <trkpt lat="45.79057" lon="4.80584">
        <ele>251.473418</ele>
        <time>2021-04-24T06:42:20.513Z</time>
      </trkpt>
      <trkpt lat="45.79063" lon="4.80573">
        <ele>251.733296</ele>
        <time>2021-04-24T06:42:23.497Z</time>
      </trkpt>
      <trkpt lat="45.7907" lon="4.80564">
        <ele>251.996667</ele>
        <time>2021-04-24T06:42:26.498Z</time>
      </trkpt>
      <trkpt lat="45.79078" lon="4.80558">
        <ele>252.267545</ele>
        <time>2021-04-24T06:42:29.498Z</time>
      </trkpt>
      <trkpt lat="45.79086" lon="4.80551">
        <ele>252.543865</ele>
        <time>2021-04-24T06:42:32.492Z</time>
      </trkpt>
      <trkpt lat="45.79094" lon="4.80542">
        <ele>252.819506</ele>
        <time>2021-04-24T06:42:35.502Z</time>
      </trkpt>
      <trkpt lat="45.791" lon="4.80533">
        <ele>253.077513</ele>
        <time>2021-04-24T06:42:38.501Z</time>
      </trkpt>
      <trkpt lat="45.79106" lon="4.80523">
        <ele>253.341928</ele>
        <time>2021-04-24T06:42:41.500Z</time>
      </trkpt>
      <trkpt lat="45.79112" lon="4.80512">
        <ele>253.616263</ele>
        <time>2021-04-24T06:42:44.491Z</time>
      </trkpt>
      <trkpt lat="45.79118" lon="4.80501">
        <ele>253.872987</ele>
        <time>2021-04-24T06:42:47.516Z</time>
      </trkpt>
      <trkpt lat="45.79123" lon="4.8049">
        <ele>254.145711</ele>
        <time>2021-04-24T06:42:50.490Z</time>
      </trkpt>
      <trkpt lat="45.7913" lon="4.80479">
        <ele>254.698671</ele>
        <time>2021-04-24T06:42:53.508Z</time>
      </trkpt>
      <trkpt lat="45.79137" lon="4.80471">
        <ele>255.24572</ele>
        <time>2021-04-24T06:42:56.504Z</time>
      </trkpt>
      <trkpt lat="45.79145" lon="4.80464">
        <ele>255.781914</ele>
        <time>2021-04-24T06:42:59.502Z</time>
      </trkpt>
      <trkpt lat="45.79153" lon="4.80458">
        <ele>256.307379</ele>
        <time>2021-04-24T06:43:02.495Z</time>
      </trkpt>
      <trkpt lat="45.79162" lon="4.80453">
        <ele>256.825625</ele>
        <time>2021-04-24T06:43:05.504Z</time>
      </trkpt>
      <trkpt lat="45.79172" lon="4.80448">
        <ele>257.465282</ele>
        <time>2021-04-24T06:43:09.500Z</time>
      </trkpt>
      <trkpt lat="45.79181" lon="4.80444">
        <ele>257.999242</ele>
        <time>2021-04-24T06:43:12.494Z</time>
      </trkpt>
      <trkpt lat="45.79191" lon="4.80437">
        <ele>258.656093</ele>
        <time>2021-04-24T06:43:16.502Z</time>
      </trkpt>
      <trkpt lat="45.79199" lon="4.8043">
        <ele>259.188456</ele>
        <time>2021-04-24T06:43:19.525Z</time>
      </trkpt>
      <trkpt lat="45.79206" lon="4.80421">
        <ele>259.723096</ele>
        <time>2021-04-24T06:43:22.505Z</time>
      </trkpt>
      <trkpt lat="45.79213" lon="4.80408">
        <ele>260.367537</ele>
        <time>2021-04-24T06:43:26.534Z</time>
      </trkpt>
      <trkpt lat="45.79218" lon="4.80397">
        <ele>260.909567</ele>
        <time>2021-04-24T06:43:29.506Z</time>
      </trkpt>
      <trkpt lat="45.79223" lon="4.80386">
        <ele>261.428624</ele>
        <time>2021-04-24T06:43:32.517Z</time>
      </trkpt>
      <trkpt lat="45.79228" lon="4.80375">
        <ele>261.951699</ele>
        <time>2021-04-24T06:43:35.500Z</time>
      </trkpt>
      <trkpt lat="45.79233" lon="4.80364">
        <ele>262.498797</ele>
        <time>2021-04-24T06:43:38.497Z</time>
      </trkpt>
      <trkpt lat="45.7924" lon="4.80354">
        <ele>263.056501</ele>
        <time>2021-04-24T06:43:41.501Z</time>
      </trkpt>
      <trkpt lat="45.79248" lon="4.80347">
        <ele>263.596568</ele>
        <time>2021-04-24T06:43:44.491Z</time>
      </trkpt>
      <trkpt lat="45.7926" lon="4.80341">
        <ele>264.284665</ele>
        <time>2021-04-24T06:43:48.504Z</time>
      </trkpt>
      <trkpt lat="45.79269" lon="4.80341">
        <ele>264.884866</ele>
        <time>2021-04-24T06:43:51.492Z</time>
      </trkpt>
      <trkpt lat="45.7928" lon="4.80344">
        <ele>265.709072</ele>
        <time>2021-04-24T06:43:55.506Z</time>
      </trkpt>
      <trkpt lat="45.79288" lon="4.80351">
        <ele>266.339875</ele>
        <time>2021-04-24T06:43:58.517Z</time>
      </trkpt>
      <trkpt lat="45.79295" lon="4.80359">
        <ele>266.979336</ele>
        <time>2021-04-24T06:44:01.525Z</time>
      </trkpt>
      <trkpt lat="45.79303" lon="4.80368">
        <ele>267.679346</ele>
        <time>2021-04-24T06:44:04.515Z</time>
      </trkpt>
      <trkpt lat="45.7931" lon="4.80377">
        <ele>268.341929</ele>
        <time>2021-04-24T06:44:07.496Z</time>
      </trkpt>
      <trkpt lat="45.79318" lon="4.80387">
        <ele>269.093663</ele>
        <time>2021-04-24T06:44:12.506Z</time>
      </trkpt>
      <trkpt lat="45.79326" lon="4.80396">
        <ele>269.807641</ele>
        <time>2021-04-24T06:44:16.506Z</time>
      </trkpt>
      <trkpt lat="45.79333" lon="4.80406">
        <ele>270.501729</ele>
        <time>2021-04-24T06:44:19.509Z</time>
      </trkpt>
      <trkpt lat="45.7934" lon="4.80415">
        <ele>271.162306</ele>
        <time>2021-04-24T06:44:22.525Z</time>
      </trkpt>
      <trkpt lat="45.79349" lon="4.80425">
        <ele>271.914945</ele>
        <time>2021-04-24T06:44:26.519Z</time>
      </trkpt>
      <trkpt lat="45.79358" lon="4.80433">
        <ele>272.680177</ele>
        <time>2021-04-24T06:44:30.502Z</time>
      </trkpt>
      <trkpt lat="45.79367" lon="4.8044">
        <ele>273.393223</ele>
        <time>2021-04-24T06:44:33.503Z</time>
      </trkpt>
      <trkpt lat="45.79377" lon="4.80444">
        <ele>274.142359</ele>
        <time>2021-04-24T06:44:36.539Z</time>
      </trkpt>
      <trkpt lat="45.79388" lon="4.80448">
        <ele>274.922317</ele>
        <time>2021-04-24T06:44:39.499Z</time>
      </trkpt>
      <trkpt lat="45.79398" lon="4.80448">
        <ele>275.628554</ele>
        <time>2021-04-24T06:44:42.504Z</time>
      </trkpt>
      <trkpt lat="45.79407" lon="4.80448">
        <ele>276.286295</ele>
        <time>2021-04-24T06:44:45.501Z</time>
      </trkpt>
      <trkpt lat="45.79418" lon="4.80445">
        <ele>277.03055</ele>
        <time>2021-04-24T06:44:48.558Z</time>
      </trkpt>
      <trkpt lat="45.79429" lon="4.80442">
        <ele>278.147995</ele>
        <time>2021-04-24T06:44:51.520Z</time>
      </trkpt>
      <trkpt lat="45.79439" lon="4.8044">
        <ele>279.186411</ele>
        <time>2021-04-24T06:44:54.516Z</time>
      </trkpt>
      <trkpt lat="45.79449" lon="4.80438">
        <ele>280.247183</ele>
        <time>2021-04-24T06:44:57.496Z</time>
      </trkpt>
      <trkpt lat="45.79459" lon="4.80437">
        <ele>281.289374</ele>
        <time>2021-04-24T06:45:00.543Z</time>
      </trkpt>
      <trkpt lat="45.79469" lon="4.80436">
        <ele>282.269455</ele>
        <time>2021-04-24T06:45:03.498Z</time>
      </trkpt>
      <trkpt lat="45.79478" lon="4.80436">
        <ele>283.207218</ele>
        <time>2021-04-24T06:45:06.511Z</time>
      </trkpt>
      <trkpt lat="45.79487" lon="4.80434">
        <ele>284.140787</ele>
        <time>2021-04-24T06:45:09.500Z</time>
      </trkpt>
      <trkpt lat="45.79496" lon="4.80433">
        <ele>285.104184</ele>
        <time>2021-04-24T06:45:12.507Z</time>
      </trkpt>
      <trkpt lat="45.79507" lon="4.80431">
        <ele>286.264351</ele>
        <time>2021-04-24T06:45:16.503Z</time>
      </trkpt>
      <trkpt lat="45.79516" lon="4.80427">
        <ele>287.214647</ele>
        <time>2021-04-24T06:45:19.508Z</time>
      </trkpt>
      <trkpt lat="45.79526" lon="4.80424">
        <ele>288.272598</ele>
        <time>2021-04-24T06:45:22.514Z</time>
      </trkpt>
      <trkpt lat="45.79536" lon="4.80423">
        <ele>289.302119</ele>
        <time>2021-04-24T06:45:25.507Z</time>
      </trkpt>
      <trkpt lat="45.79546" lon="4.80423">
        <ele>290.341835</ele>
        <time>2021-04-24T06:45:28.522Z</time>
      </trkpt>
      <trkpt lat="45.79555" lon="4.80421">
        <ele>291.281673</ele>
        <time>2021-04-24T06:45:31.505Z</time>
      </trkpt>
      <trkpt lat="45.79564" lon="4.8042">
        <ele>292.2553</ele>
        <time>2021-04-24T06:45:34.494Z</time>
      </trkpt>
      <trkpt lat="45.79574" lon="4.80419">
        <ele>293.275337</ele>
        <time>2021-04-24T06:45:37.497Z</time>
      </trkpt>
      <trkpt lat="45.79583" lon="4.80418">
        <ele>294.206502</ele>
        <time>2021-04-24T06:45:40.501Z</time>
      </trkpt>
      <trkpt lat="45.79594" lon="4.8042">
        <ele>295.351893</ele>
        <time>2021-04-24T06:45:44.497Z</time>
      </trkpt>
      <trkpt lat="45.79604" lon="4.8042">
        <ele>296.012676</ele>
        <time>2021-04-24T06:45:47.512Z</time>
      </trkpt>
      <trkpt lat="45.79613" lon="4.8042">
        <ele>296.524756</ele>
        <time>2021-04-24T06:45:50.496Z</time>
      </trkpt>
      <trkpt lat="45.79623" lon="4.80421">
        <ele>297.071357</ele>
        <time>2021-04-24T06:45:53.497Z</time>
      </trkpt>
      <trkpt lat="45.79632" lon="4.80422">
        <ele>297.601357</ele>
        <time>2021-04-24T06:45:56.494Z</time>
      </trkpt>
      <trkpt lat="45.79644" lon="4.80421">
        <ele>298.249283</ele>
        <time>2021-04-24T06:46:00.505Z</time>
      </trkpt>
      <trkpt lat="45.79654" lon="4.8042">
        <ele>298.797009</ele>
        <time>2021-04-24T06:46:03.505Z</time>
      </trkpt>
      <trkpt lat="45.79663" lon="4.80417">
        <ele>299.347844</ele>
        <time>2021-04-24T06:46:06.499Z</time>
      </trkpt>
      <trkpt lat="45.79672" lon="4.80411">
        <ele>299.895178</ele>
        <time>2021-04-24T06:46:09.501Z</time>
      </trkpt>
      <trkpt lat="45.7968" lon="4.80405">
        <ele>300.429077</ele>
        <time>2021-04-24T06:46:12.494Z</time>
      </trkpt>
      <trkpt lat="45.7969" lon="4.80395">
        <ele>301.097008</ele>
        <time>2021-04-24T06:46:16.507Z</time>
      </trkpt>
      <trkpt lat="45.79699" lon="4.80389">
        <ele>301.637728</ele>
        <time>2021-04-24T06:46:19.494Z</time>
      </trkpt>
      <trkpt lat="45.79707" lon="4.80382">
        <ele>302.168643</ele>
        <time>2021-04-24T06:46:22.499Z</time>
      </trkpt>
      <trkpt lat="45.79715" lon="4.80376">
        <ele>302.680203</ele>
        <time>2021-04-24T06:46:25.532Z</time>
      </trkpt>
      <trkpt lat="45.79725" lon="4.80367">
        <ele>303.356579</ele>
        <time>2021-04-24T06:46:29.521Z</time>
      </trkpt>
      <trkpt lat="45.79733" lon="4.8036">
        <ele>303.894252</ele>
        <time>2021-04-24T06:46:32.499Z</time>
      </trkpt>
      <trkpt lat="45.79743" lon="4.80355">
        <ele>304.466296</ele>
        <time>2021-04-24T06:46:35.550Z</time>
      </trkpt>
      <trkpt lat="45.79753" lon="4.80352">
        <ele>305.046555</ele>
        <time>2021-04-24T06:46:38.490Z</time>
      </trkpt>
      <trkpt lat="45.79763" lon="4.80349">
        <ele>305.605859</ele>
        <time>2021-04-24T06:46:41.525Z</time>
      </trkpt>
      <trkpt lat="45.79772" lon="4.80348">
        <ele>306.376072</ele>
        <time>2021-04-24T06:46:44.492Z</time>
      </trkpt>
      <trkpt lat="45.79781" lon="4.80349">
        <ele>307.222193</ele>
        <time>2021-04-24T06:46:47.550Z</time>
      </trkpt>
      <trkpt lat="45.79791" lon="4.80352">
        <ele>308.176625</ele>
        <time>2021-04-24T06:46:51.496Z</time>
      </trkpt>
      <trkpt lat="45.798" lon="4.80357">
        <ele>309.042832</ele>
        <time>2021-04-24T06:46:54.505Z</time>
      </trkpt>
      <trkpt lat="45.79808" lon="4.80364">
        <ele>309.959991</ele>
        <time>2021-04-24T06:46:57.507Z</time>
      </trkpt>
      <trkpt lat="45.79814" lon="4.80376">
        <ele>310.876207</ele>
        <time>2021-04-24T06:47:00.509Z</time>
      </trkpt>
      <trkpt lat="45.79821" lon="4.80385">
        <ele>311.727449</ele>
        <time>2021-04-24T06:47:03.500Z</time>
      </trkpt>
      <trkpt lat="45.79831" lon="4.80387">
        <ele>312.697213</ele>
        <time>2021-04-24T06:47:06.510Z</time>
      </trkpt>
      <trkpt lat="45.79841" lon="4.8039">
        <ele>313.643216</ele>
        <time>2021-04-24T06:47:09.490Z</time>
      </trkpt>
      <trkpt lat="45.79851" lon="4.80394">
        <ele>314.542526</ele>
        <time>2021-04-24T06:47:12.515Z</time>
      </trkpt>
      <trkpt lat="45.79861" lon="4.80394">
        <ele>315.489676</ele>
        <time>2021-04-24T06:47:15.503Z</time>
      </trkpt>
      <trkpt lat="45.79871" lon="4.80391">
        <ele>316.466842</ele>
        <time>2021-04-24T06:47:18.710Z</time>
      </trkpt>
      <trkpt lat="45.79882" lon="4.8039">
        <ele>317.42746</ele>
        <time>2021-04-24T06:47:21.505Z</time>
      </trkpt>
      <trkpt lat="45.79892" lon="4.80388">
        <ele>318.369792</ele>
        <time>2021-04-24T06:47:24.502Z</time>
      </trkpt>
      <trkpt lat="45.79902" lon="4.80387">
        <ele>319.290258</ele>
        <time>2021-04-24T06:47:27.520Z</time>
      </trkpt>
      <trkpt lat="45.79913" lon="4.80385">
        <ele>320.284609</ele>
        <time>2021-04-24T06:47:30.495Z</time>
      </trkpt>
      <trkpt lat="45.79923" lon="4.80382">
        <ele>321.255962</ele>
        <time>2021-04-24T06:47:33.498Z</time>
      </trkpt>
      <trkpt lat="45.79933" lon="4.80377">
        <ele>322.237281</ele>
        <time>2021-04-24T06:47:36.500Z</time>
      </trkpt>
      <trkpt lat="45.79944" lon="4.8037">
        <ele>322.466854</ele>
        <time>2021-04-24T06:47:39.497Z</time>
      </trkpt>
      <trkpt lat="45.79954" lon="4.80363">
        <ele>322.715671</ele>
        <time>2021-04-24T06:47:42.492Z</time>
      </trkpt>
      <trkpt lat="45.79965" lon="4.80355">
        <ele>322.965704</ele>
        <time>2021-04-24T06:47:45.501Z</time>
      </trkpt>
      <trkpt lat="45.79976" lon="4.80349">
        <ele>323.201071</ele>
        <time>2021-04-24T06:47:48.517Z</time>
      </trkpt>
      <trkpt lat="45.79987" lon="4.80343">
        <ele>323.451622</ele>
        <time>2021-04-24T06:47:51.518Z</time>
      </trkpt>
      <trkpt lat="45.79999" lon="4.80339">
        <ele>323.706452</ele>
        <time>2021-04-24T06:47:54.504Z</time>
      </trkpt>
      <trkpt lat="45.80011" lon="4.80335">
        <ele>323.964636</ele>
        <time>2021-04-24T06:47:57.492Z</time>
      </trkpt>
      <trkpt lat="45.80024" lon="4.80331">
        <ele>324.22049</ele>
        <time>2021-04-24T06:48:00.506Z</time>
      </trkpt>
      <trkpt lat="45.80036" lon="4.80328">
        <ele>324.471545</ele>
        <time>2021-04-24T06:48:03.499Z</time>
      </trkpt>
      <trkpt lat="45.80048" lon="4.80326">
        <ele>324.721126</ele>
        <time>2021-04-24T06:48:06.503Z</time>
      </trkpt>
      <trkpt lat="45.80059" lon="4.80322">
        <ele>324.967994</ele>
        <time>2021-04-24T06:48:09.498Z</time>
      </trkpt>
      <trkpt lat="45.8007" lon="4.80317">
        <ele>325.201532</ele>
        <time>2021-04-24T06:48:12.499Z</time>
      </trkpt>
      <trkpt lat="45.80082" lon="4.80315">
        <ele>325.458806</ele>
        <time>2021-04-24T06:48:15.512Z</time>
      </trkpt>
      <trkpt lat="45.80094" lon="4.80313">
        <ele>325.698158</ele>
        <time>2021-04-24T06:48:18.498Z</time>
      </trkpt>
      <trkpt lat="45.80106" lon="4.80311">
        <ele>325.949114</ele>
        <time>2021-04-24T06:48:21.499Z</time>
      </trkpt>
      <trkpt lat="45.80117" lon="4.80306">
        <ele>326.555235</ele>
        <time>2021-04-24T06:48:24.499Z</time>
      </trkpt>
      <trkpt lat="45.80129" lon="4.80302">
        <ele>327.158968</ele>
        <time>2021-04-24T06:48:27.529Z</time>
      </trkpt>
      <trkpt lat="45.8014" lon="4.80299">
        <ele>327.728866</ele>
        <time>2021-04-24T06:48:30.495Z</time>
      </trkpt>
      <trkpt lat="45.80151" lon="4.80298">
        <ele>328.29997</ele>
        <time>2021-04-24T06:48:33.489Z</time>
      </trkpt>
      <trkpt lat="45.80164" lon="4.80296">
        <ele>328.917935</ele>
        <time>2021-04-24T06:48:36.499Z</time>
      </trkpt>
      <trkpt lat="45.80176" lon="4.80293">
        <ele>329.554092</ele>
        <time>2021-04-24T06:48:39.541Z</time>
      </trkpt>
      <trkpt lat="45.80188" lon="4.8029">
        <ele>330.17824</ele>
        <time>2021-04-24T06:48:42.489Z</time>
      </trkpt>
      <trkpt lat="45.802" lon="4.80287">
        <ele>330.773541</ele>
        <time>2021-04-24T06:48:45.509Z</time>
      </trkpt>
      <trkpt lat="45.80212" lon="4.80285">
        <ele>331.374887</ele>
        <time>2021-04-24T06:48:48.516Z</time>
      </trkpt>
      <trkpt lat="45.80223" lon="4.80281">
        <ele>331.967248</ele>
        <time>2021-04-24T06:48:51.555Z</time>
      </trkpt>
      <trkpt lat="45.80235" lon="4.80278">
        <ele>332.580866</ele>
        <time>2021-04-24T06:48:54.497Z</time>
      </trkpt>
      <trkpt lat="45.80246" lon="4.80273">
        <ele>333.160521</ele>
        <time>2021-04-24T06:48:57.522Z</time>
      </trkpt>
      <trkpt lat="45.80257" lon="4.80267">
        <ele>333.762568</ele>
        <time>2021-04-24T06:49:00.520Z</time>
      </trkpt>
      <trkpt lat="45.80269" lon="4.8026">
        <ele>334.375262</ele>
        <time>2021-04-24T06:49:03.550Z</time>
      </trkpt>
      <trkpt lat="45.8028" lon="4.80255">
        <ele>334.979441</ele>
        <time>2021-04-24T06:49:06.512Z</time>
      </trkpt>
      <trkpt lat="45.80292" lon="4.8025">
        <ele>335.709066</ele>
        <time>2021-04-24T06:49:09.498Z</time>
      </trkpt>
      <trkpt lat="45.80303" lon="4.80245">
        <ele>336.396101</ele>
        <time>2021-04-24T06:49:12.500Z</time>
      </trkpt>
      <trkpt lat="45.80313" lon="4.80242">
        <ele>337.050499</ele>
        <time>2021-04-24T06:49:15.502Z</time>
      </trkpt>
      <trkpt lat="45.80324" lon="4.80239">
        <ele>337.708658</ele>
        <time>2021-04-24T06:49:18.520Z</time>
      </trkpt>
      <trkpt lat="45.80334" lon="4.80235">
        <ele>338.352881</ele>
        <time>2021-04-24T06:49:21.513Z</time>
      </trkpt>
      <trkpt lat="45.80345" lon="4.80233">
        <ele>338.972826</ele>
        <time>2021-04-24T06:49:24.504Z</time>
      </trkpt>
      <trkpt lat="45.80357" lon="4.80232">
        <ele>339.690525</ele>
        <time>2021-04-24T06:49:27.502Z</time>
      </trkpt>
      <trkpt lat="45.80367" lon="4.80227">
        <ele>340.341784</ele>
        <time>2021-04-24T06:49:30.512Z</time>
      </trkpt>
      <trkpt lat="45.8038" lon="4.80223">
        <ele>341.156064</ele>
        <time>2021-04-24T06:49:33.498Z</time>
      </trkpt>
      <trkpt lat="45.80392" lon="4.80221">
        <ele>341.852505</ele>
        <time>2021-04-24T06:49:36.493Z</time>
      </trkpt>
      <trkpt lat="45.80403" lon="4.8022">
        <ele>342.552855</ele>
        <time>2021-04-24T06:49:40.499Z</time>
      </trkpt>
      <trkpt lat="45.80414" lon="4.8022">
        <ele>343.184908</ele>
        <time>2021-04-24T06:49:43.493Z</time>
      </trkpt>
      <trkpt lat="45.80425" lon="4.80221">
        <ele>343.876826</ele>
        <time>2021-04-24T06:49:46.500Z</time>
      </trkpt>
      <trkpt lat="45.80437" lon="4.80219">
        <ele>344.583917</ele>
        <time>2021-04-24T06:49:49.516Z</time>
      </trkpt>
      <trkpt lat="45.80448" lon="4.80215">
        <ele>345.264623</ele>
        <time>2021-04-24T06:49:52.517Z</time>
      </trkpt>
      <trkpt lat="45.80458" lon="4.80212">
        <ele>345.954665</ele>
        <time>2021-04-24T06:49:55.505Z</time>
      </trkpt>
      <trkpt lat="45.80468" lon="4.80207">
        <ele>346.928662</ele>
        <time>2021-04-24T06:49:58.515Z</time>
      </trkpt>
      <trkpt lat="45.80478" lon="4.802">
        <ele>347.958801</ele>
        <time>2021-04-24T06:50:01.501Z</time>
      </trkpt>
      <trkpt lat="45.80488" lon="4.80195">
        <ele>348.93959</ele>
        <time>2021-04-24T06:50:04.502Z</time>
      </trkpt>
      <trkpt lat="45.80497" lon="4.80191">
        <ele>349.85722</ele>
        <time>2021-04-24T06:50:07.505Z</time>
      </trkpt>
      <trkpt lat="45.80508" lon="4.80185">
        <ele>350.925638</ele>
        <time>2021-04-24T06:50:11.490Z</time>
      </trkpt>
      <trkpt lat="45.8052" lon="4.8018">
        <ele>352.056337</ele>
        <time>2021-04-24T06:50:15.504Z</time>
      </trkpt>
      <trkpt lat="45.80529" lon="4.80176">
        <ele>353.013427</ele>
        <time>2021-04-24T06:50:18.516Z</time>
      </trkpt>
      <trkpt lat="45.80539" lon="4.8017">
        <ele>353.955358</ele>
        <time>2021-04-24T06:50:21.491Z</time>
      </trkpt>
      <trkpt lat="45.80548" lon="4.80166">
        <ele>354.854871</ele>
        <time>2021-04-24T06:50:24.546Z</time>
      </trkpt>
      <trkpt lat="45.80558" lon="4.80166">
        <ele>355.805572</ele>
        <time>2021-04-24T06:50:27.499Z</time>
      </trkpt>
      <trkpt lat="45.80568" lon="4.80163">
        <ele>356.717363</ele>
        <time>2021-04-24T06:50:30.520Z</time>
      </trkpt>
      <trkpt lat="45.80577" lon="4.80162">
        <ele>357.618138</ele>
        <time>2021-04-24T06:50:33.498Z</time>
      </trkpt>
      <trkpt lat="45.80586" lon="4.80158">
        <ele>358.483939</ele>
        <time>2021-04-24T06:50:36.502Z</time>
      </trkpt>
      <trkpt lat="45.80598" lon="4.80154">
        <ele>359.6074</ele>
        <time>2021-04-24T06:50:40.512Z</time>
      </trkpt>
      <trkpt lat="45.8061" lon="4.8015">
        <ele>360.720034</ele>
        <time>2021-04-24T06:50:44.490Z</time>
      </trkpt>
      <trkpt lat="45.80619" lon="4.80148">
        <ele>361.622401</ele>
        <time>2021-04-24T06:50:47.502Z</time>
      </trkpt>
      <trkpt lat="45.80629" lon="4.80146">
        <ele>362.528502</ele>
        <time>2021-04-24T06:50:50.511Z</time>
      </trkpt>
      <trkpt lat="45.80639" lon="4.80144">
        <ele>362.904424</ele>
        <time>2021-04-24T06:50:53.518Z</time>
      </trkpt>
      <trkpt lat="45.80649" lon="4.80141">
        <ele>363.250357</ele>
        <time>2021-04-24T06:50:56.500Z</time>
      </trkpt>
      <trkpt lat="45.80659" lon="4.80136">
        <ele>363.618483</ele>
        <time>2021-04-24T06:50:59.505Z</time>
      </trkpt>
      <trkpt lat="45.8067" lon="4.80133">
        <ele>363.975334</ele>
        <time>2021-04-24T06:51:02.501Z</time>
      </trkpt>
      <trkpt lat="45.80679" lon="4.80127">
        <ele>364.322968</ele>
        <time>2021-04-24T06:51:05.504Z</time>
      </trkpt>
      <trkpt lat="45.80689" lon="4.80123">
        <ele>364.659518</ele>
        <time>2021-04-24T06:51:08.498Z</time>
      </trkpt>
      <trkpt lat="45.80698" lon="4.80118">
        <ele>364.993526</ele>
        <time>2021-04-24T06:51:11.511Z</time>
      </trkpt>
      <trkpt lat="45.80707" lon="4.80112">
        <ele>365.315968</ele>
        <time>2021-04-24T06:51:14.491Z</time>
      </trkpt>
      <trkpt lat="45.80716" lon="4.80107">
        <ele>365.646198</ele>
        <time>2021-04-24T06:51:17.513Z</time>
      </trkpt>
      <trkpt lat="45.80725" lon="4.80103">
        <ele>365.9707</ele>
        <time>2021-04-24T06:51:20.495Z</time>
      </trkpt>
      <trkpt lat="45.80734" lon="4.80098">
        <ele>366.303322</ele>
        <time>2021-04-24T06:51:23.496Z</time>
      </trkpt>
      <trkpt lat="45.80744" lon="4.80093">
        <ele>366.639334</ele>
        <time>2021-04-24T06:51:26.499Z</time>
      </trkpt>
      <trkpt lat="45.80753" lon="4.80088">
        <ele>366.96065</ele>
        <time>2021-04-24T06:51:29.508Z</time>
      </trkpt>
      <trkpt lat="45.80762" lon="4.80083">
        <ele>367.305147</ele>
        <time>2021-04-24T06:51:32.506Z</time>
      </trkpt>
      <trkpt lat="45.80771" lon="4.80078">
        <ele>367.632014</ele>
        <time>2021-04-24T06:51:35.512Z</time>
      </trkpt>
      <trkpt lat="45.8078" lon="4.80071">
        <ele>367.979017</ele>
        <time>2021-04-24T06:51:38.509Z</time>
      </trkpt>
      <trkpt lat="45.80788" lon="4.80061">
        <ele>368.337759</ele>
        <time>2021-04-24T06:51:41.501Z</time>
      </trkpt>
      <trkpt lat="45.80795" lon="4.8005">
        <ele>368.65857</ele>
        <time>2021-04-24T06:51:44.502Z</time>
      </trkpt>
      <trkpt lat="45.80801" lon="4.80039">
        <ele>368.797235</ele>
        <time>2021-04-24T06:51:47.507Z</time>
      </trkpt>
      <trkpt lat="45.80807" lon="4.80028">
        <ele>368.945772</ele>
        <time>2021-04-24T06:51:50.505Z</time>
      </trkpt>
      <trkpt lat="45.80813" lon="4.80017">
        <ele>369.081968</ele>
        <time>2021-04-24T06:51:53.498Z</time>
      </trkpt>
      <trkpt lat="45.8082" lon="4.80006">
        <ele>369.227252</ele>
        <time>2021-04-24T06:51:56.511Z</time>
      </trkpt>
      <trkpt lat="45.80826" lon="4.79994">
        <ele>369.381516</ele>
        <time>2021-04-24T06:51:59.506Z</time>
      </trkpt>
      <trkpt lat="45.80832" lon="4.7998">
        <ele>369.544676</ele>
        <time>2021-04-24T06:52:02.548Z</time>
      </trkpt>
      <trkpt lat="45.80839" lon="4.79969">
        <ele>369.691164</ele>
        <time>2021-04-24T06:52:05.505Z</time>
      </trkpt>
      <trkpt lat="45.80846" lon="4.79961">
        <ele>369.823431</ele>
        <time>2021-04-24T06:52:08.507Z</time>
      </trkpt>
      <trkpt lat="45.80852" lon="4.79949">
        <ele>369.973343</ele>
        <time>2021-04-24T06:52:11.497Z</time>
      </trkpt>
      <trkpt lat="45.80857" lon="4.79936">
        <ele>370.126634</ele>
        <time>2021-04-24T06:52:14.507Z</time>
      </trkpt>
      <trkpt lat="45.80863" lon="4.79923">
        <ele>370.279017</ele>
        <time>2021-04-24T06:52:17.506Z</time>
      </trkpt>
      <trkpt lat="45.80869" lon="4.79911">
        <ele>370.425683</ele>
        <time>2021-04-24T06:52:20.520Z</time>
      </trkpt>
      <trkpt lat="45.80874" lon="4.79899">
        <ele>370.568206</ele>
        <time>2021-04-24T06:52:23.499Z</time>
      </trkpt>
      <trkpt lat="45.8088" lon="4.79886">
        <ele>370.72079</ele>
        <time>2021-04-24T06:52:26.495Z</time>
      </trkpt>
      <trkpt lat="45.80887" lon="4.79874">
        <ele>370.878236</ele>
        <time>2021-04-24T06:52:29.517Z</time>
      </trkpt>
      <trkpt lat="45.80895" lon="4.79864">
        <ele>371.033073</ele>
        <time>2021-04-24T06:52:32.492Z</time>
      </trkpt>
      <trkpt lat="45.80906" lon="4.79859">
        <ele>371.194113</ele>
        <time>2021-04-24T06:52:35.502Z</time>
      </trkpt>
      <trkpt lat="45.80917" lon="4.79855">
        <ele>372.285099</ele>
        <time>2021-04-24T06:52:39.515Z</time>
      </trkpt>
      <trkpt lat="45.80927" lon="4.79857">
        <ele>373.484064</ele>
        <time>2021-04-24T06:52:42.486Z</time>
      </trkpt>
      <trkpt lat="45.80936" lon="4.79855">
        <ele>374.679288</ele>
        <time>2021-04-24T06:52:45.504Z</time>
      </trkpt>
      <trkpt lat="45.80945" lon="4.79851">
        <ele>375.771483</ele>
        <time>2021-04-24T06:52:48.505Z</time>
      </trkpt>
      <trkpt lat="45.80956" lon="4.79845">
        <ele>377.183769</ele>
        <time>2021-04-24T06:52:51.502Z</time>
      </trkpt>
      <trkpt lat="45.80965" lon="4.79841">
        <ele>378.272554</ele>
        <time>2021-04-24T06:52:53.529Z</time>
      </trkpt>
      <trkpt lat="45.80976" lon="4.79836">
        <ele>379.677345</ele>
        <time>2021-04-24T06:52:56.502Z</time>
      </trkpt>
      <trkpt lat="45.80988" lon="4.79834">
        <ele>381.063265</ele>
        <time>2021-04-24T06:52:59.543Z</time>
      </trkpt>
      <trkpt lat="45.80997" lon="4.79839">
        <ele>382.233602</ele>
        <time>2021-04-24T06:53:02.525Z</time>
      </trkpt>
      <trkpt lat="45.81007" lon="4.79843">
        <ele>383.520801</ele>
        <time>2021-04-24T06:53:05.532Z</time>
      </trkpt>
      <trkpt lat="45.81018" lon="4.7984">
        <ele>384.807852</ele>
        <time>2021-04-24T06:53:08.505Z</time>
      </trkpt>
      <trkpt lat="45.81028" lon="4.79838">
        <ele>386.06991</ele>
        <time>2021-04-24T06:53:11.543Z</time>
      </trkpt>
      <trkpt lat="45.81039" lon="4.79837">
        <ele>387.362772</ele>
        <time>2021-04-24T06:53:14.500Z</time>
      </trkpt>
      <trkpt lat="45.81049" lon="4.79835">
        <ele>388.565686</ele>
        <time>2021-04-24T06:53:17.513Z</time>
      </trkpt>
      <trkpt lat="45.81058" lon="4.79835">
        <ele>389.702177</ele>
        <time>2021-04-24T06:53:20.511Z</time>
      </trkpt>
      <trkpt lat="45.8107" lon="4.79834">
        <ele>391.101808</ele>
        <time>2021-04-24T06:53:24.510Z</time>
      </trkpt>
      <trkpt lat="45.8108" lon="4.79832">
        <ele>392.278564</ele>
        <time>2021-04-24T06:53:27.513Z</time>
      </trkpt>
      <trkpt lat="45.8109" lon="4.79831">
        <ele>393.138254</ele>
        <time>2021-04-24T06:53:30.499Z</time>
      </trkpt>
      <trkpt lat="45.811" lon="4.79831">
        <ele>393.807429</ele>
        <time>2021-04-24T06:53:33.514Z</time>
      </trkpt>
      <trkpt lat="45.81109" lon="4.7983">
        <ele>394.411599</ele>
        <time>2021-04-24T06:53:36.508Z</time>
      </trkpt>
      <trkpt lat="45.81118" lon="4.7983">
        <ele>395.033931</ele>
        <time>2021-04-24T06:53:39.506Z</time>
      </trkpt>
      <trkpt lat="45.81127" lon="4.79829">
        <ele>395.644701</ele>
        <time>2021-04-24T06:53:42.497Z</time>
      </trkpt>
      <trkpt lat="45.81137" lon="4.79829">
        <ele>396.280221</ele>
        <time>2021-04-24T06:53:45.503Z</time>
      </trkpt>
      <trkpt lat="45.81147" lon="4.79829">
        <ele>396.915792</ele>
        <time>2021-04-24T06:53:48.506Z</time>
      </trkpt>
      <trkpt lat="45.81156" lon="4.79829">
        <ele>397.557932</ele>
        <time>2021-04-24T06:53:51.515Z</time>
      </trkpt>
      <trkpt lat="45.81166" lon="4.79829">
        <ele>398.167026</ele>
        <time>2021-04-24T06:53:54.507Z</time>
      </trkpt>
      <trkpt lat="45.81175" lon="4.79829">
        <ele>398.822795</ele>
        <time>2021-04-24T06:53:57.516Z</time>
      </trkpt>
      <trkpt lat="45.81184" lon="4.79825">
        <ele>399.443014</ele>
        <time>2021-04-24T06:54:00.518Z</time>
      </trkpt>
      <trkpt lat="45.81193" lon="4.79819">
        <ele>400.087997</ele>
        <time>2021-04-24T06:54:03.483Z</time>
      </trkpt>
      <trkpt lat="45.81203" lon="4.79814">
        <ele>400.754916</ele>
        <time>2021-04-24T06:54:06.508Z</time>
      </trkpt>
      <trkpt lat="45.81213" lon="4.79809">
        <ele>401.483989</ele>
        <time>2021-04-24T06:54:09.502Z</time>
      </trkpt>
      <trkpt lat="45.81223" lon="4.79803">
        <ele>402.180603</ele>
        <time>2021-04-24T06:54:12.509Z</time>
      </trkpt>
      <trkpt lat="45.81232" lon="4.79798">
        <ele>402.833326</ele>
        <time>2021-04-24T06:54:15.506Z</time>
      </trkpt>
      <trkpt lat="45.81241" lon="4.79794">
        <ele>403.478275</ele>
        <time>2021-04-24T06:54:18.513Z</time>
      </trkpt>
      <trkpt lat="45.81252" lon="4.7979">
        <ele>404.212628</ele>
        <time>2021-04-24T06:54:22.495Z</time>
      </trkpt>
      <trkpt lat="45.81263" lon="4.79783">
        <ele>404.880586</ele>
        <time>2021-04-24T06:54:26.507Z</time>
      </trkpt>
      <trkpt lat="45.81272" lon="4.79778">
        <ele>405.325441</ele>
        <time>2021-04-24T06:54:29.494Z</time>
      </trkpt>
      <trkpt lat="45.81281" lon="4.79774">
        <ele>405.781512</ele>
        <time>2021-04-24T06:54:32.511Z</time>
      </trkpt>
      <trkpt lat="45.8129" lon="4.7977">
        <ele>406.23227</ele>
        <time>2021-04-24T06:54:35.494Z</time>
      </trkpt>
      <trkpt lat="45.81301" lon="4.79767">
        <ele>406.757466</ele>
        <time>2021-04-24T06:54:39.508Z</time>
      </trkpt>
      <trkpt lat="45.81311" lon="4.79764">
        <ele>407.199817</ele>
        <time>2021-04-24T06:54:42.491Z</time>
      </trkpt>
      <trkpt lat="45.81321" lon="4.7976">
        <ele>407.668322</ele>
        <time>2021-04-24T06:54:45.516Z</time>
      </trkpt>
      <trkpt lat="45.8133" lon="4.79757">
        <ele>408.112966</ele>
        <time>2021-04-24T06:54:48.501Z</time>
      </trkpt>
      <trkpt lat="45.8134" lon="4.79755">
        <ele>408.597922</ele>
        <time>2021-04-24T06:54:51.511Z</time>
      </trkpt>
      <trkpt lat="45.8135" lon="4.79753">
        <ele>409.073673</ele>
        <time>2021-04-24T06:54:54.499Z</time>
      </trkpt>
      <trkpt lat="45.8136" lon="4.79751">
        <ele>409.538322</ele>
        <time>2021-04-24T06:54:57.504Z</time>
      </trkpt>
      <trkpt lat="45.8137" lon="4.79749">
        <ele>409.99107</ele>
        <time>2021-04-24T06:55:00.496Z</time>
      </trkpt>
      <trkpt lat="45.8138" lon="4.79747">
        <ele>410.468036</ele>
        <time>2021-04-24T06:55:03.497Z</time>
      </trkpt>
      <trkpt lat="45.8139" lon="4.79744">
        <ele>410.938206</ele>
        <time>2021-04-24T06:55:06.526Z</time>
      </trkpt>
      <trkpt lat="45.81399" lon="4.79741">
        <ele>411.383658</ele>
        <time>2021-04-24T06:55:09.519Z</time>
      </trkpt>
      <trkpt lat="45.81411" lon="4.79739">
        <ele>411.916584</ele>
        <time>2021-04-24T06:55:12.513Z</time>
      </trkpt>
      <trkpt lat="45.81423" lon="4.79737">
        <ele>412.470975</ele>
        <time>2021-04-24T06:55:15.510Z</time>
      </trkpt>
      <trkpt lat="45.81434" lon="4.79732">
        <ele>412.987902</ele>
        <time>2021-04-24T06:55:18.506Z</time>
      </trkpt>
      <trkpt lat="45.81447" lon="4.79726">
        <ele>413.135703</ele>
        <time>2021-04-24T06:55:21.505Z</time>
      </trkpt>
      <trkpt lat="45.81456" lon="4.79722">
        <ele>413.239212</ele>
        <time>2021-04-24T06:55:23.496Z</time>
      </trkpt>
      <trkpt lat="45.81467" lon="4.79715">
        <ele>413.380471</ele>
        <time>2021-04-24T06:55:26.507Z</time>
      </trkpt>
      <trkpt lat="45.81479" lon="4.79709">
        <ele>413.516647</ele>
        <time>2021-04-24T06:55:29.527Z</time>
      </trkpt>
      <trkpt lat="45.81491" lon="4.79704">
        <ele>413.65806</ele>
        <time>2021-04-24T06:55:32.502Z</time>
      </trkpt>
      <trkpt lat="45.81503" lon="4.79699">
        <ele>413.799041</ele>
        <time>2021-04-24T06:55:35.502Z</time>
      </trkpt>
      <trkpt lat="45.81513" lon="4.79695">
        <ele>413.914185</ele>
        <time>2021-04-24T06:55:37.498Z</time>
      </trkpt>
      <trkpt lat="45.81524" lon="4.79694">
        <ele>414.042418</ele>
        <time>2021-04-24T06:55:40.509Z</time>
      </trkpt>
      <trkpt lat="45.81535" lon="4.79688">
        <ele>414.171221</ele>
        <time>2021-04-24T06:55:43.505Z</time>
      </trkpt>
      <trkpt lat="45.81547" lon="4.79684">
        <ele>414.311001</ele>
        <time>2021-04-24T06:55:46.510Z</time>
      </trkpt>
      <trkpt lat="45.81559" lon="4.7968">
        <ele>414.444421</ele>
        <time>2021-04-24T06:55:49.538Z</time>
      </trkpt>
      <trkpt lat="45.81571" lon="4.79675">
        <ele>414.584111</ele>
        <time>2021-04-24T06:55:52.503Z</time>
      </trkpt>
      <trkpt lat="45.81583" lon="4.79671">
        <ele>414.7238</ele>
        <time>2021-04-24T06:55:55.498Z</time>
      </trkpt>
      <trkpt lat="45.81594" lon="4.79664">
        <ele>414.862397</ele>
        <time>2021-04-24T06:55:58.497Z</time>
      </trkpt>
      <trkpt lat="45.81604" lon="4.79653">
        <ele>415.044599</ele>
        <time>2021-04-24T06:56:01.507Z</time>
      </trkpt>
      <trkpt lat="45.81615" lon="4.79644">
        <ele>415.605395</ele>
        <time>2021-04-24T06:56:04.503Z</time>
      </trkpt>
      <trkpt lat="45.81624" lon="4.79634">
        <ele>416.141571</ele>
        <time>2021-04-24T06:56:07.536Z</time>
      </trkpt>
      <trkpt lat="45.81635" lon="4.79625">
        <ele>416.686743</ele>
        <time>2021-04-24T06:56:10.512Z</time>
      </trkpt>
      <trkpt lat="45.81646" lon="4.79618">
        <ele>417.21994</ele>
        <time>2021-04-24T06:56:13.565Z</time>
      </trkpt>
      <trkpt lat="45.81656" lon="4.79611">
        <ele>417.746326</ele>
        <time>2021-04-24T06:56:16.523Z</time>
      </trkpt>
      <trkpt lat="45.81667" lon="4.79604">
        <ele>418.283615</ele>
        <time>2021-04-24T06:56:19.496Z</time>
      </trkpt>
      <trkpt lat="45.81677" lon="4.79595">
        <ele>418.819327</ele>
        <time>2021-04-24T06:56:22.508Z</time>
      </trkpt>
      <trkpt lat="45.81691" lon="4.79587">
        <ele>419.526654</ele>
        <time>2021-04-24T06:56:26.487Z</time>
      </trkpt>
      <trkpt lat="45.81702" lon="4.79581">
        <ele>420.053848</ele>
        <time>2021-04-24T06:56:29.505Z</time>
      </trkpt>
      <trkpt lat="45.81712" lon="4.79572">
        <ele>420.584657</ele>
        <time>2021-04-24T06:56:32.495Z</time>
      </trkpt>
      <trkpt lat="45.81722" lon="4.79561">
        <ele>421.163161</ele>
        <time>2021-04-24T06:56:35.495Z</time>
      </trkpt>
      <trkpt lat="45.81731" lon="4.79548">
        <ele>421.726167</ele>
        <time>2021-04-24T06:56:38.502Z</time>
      </trkpt>
      <trkpt lat="45.81738" lon="4.79534">
        <ele>422.276768</ele>
        <time>2021-04-24T06:56:41.494Z</time>
      </trkpt>
      <trkpt lat="45.81746" lon="4.79521">
        <ele>422.809405</ele>
        <time>2021-04-24T06:56:44.505Z</time>
      </trkpt>
      <trkpt lat="45.81754" lon="4.7951">
        <ele>423.402531</ele>
        <time>2021-04-24T06:56:47.519Z</time>
      </trkpt>
      <trkpt lat="45.81766" lon="4.79501">
        <ele>424.227858</ele>
        <time>2021-04-24T06:56:50.516Z</time>
      </trkpt>
      <trkpt lat="45.81777" lon="4.79495">
        <ele>425.014924</ele>
        <time>2021-04-24T06:56:53.502Z</time>
      </trkpt>
      <trkpt lat="45.81789" lon="4.7949">
        <ele>425.812813</ele>
        <time>2021-04-24T06:56:56.513Z</time>
      </trkpt>
      <trkpt lat="45.818" lon="4.79486">
        <ele>426.53079</ele>
        <time>2021-04-24T06:56:59.491Z</time>
      </trkpt>
      <trkpt lat="45.81811" lon="4.7948">
        <ele>427.262835</ele>
        <time>2021-04-24T06:57:02.493Z</time>
      </trkpt>
      <trkpt lat="45.81821" lon="4.79473">
        <ele>428.017083</ele>
        <time>2021-04-24T06:57:05.497Z</time>
      </trkpt>
      <trkpt lat="45.81832" lon="4.79469">
        <ele>428.725343</ele>
        <time>2021-04-24T06:57:08.501Z</time>
      </trkpt>
      <trkpt lat="45.81842" lon="4.79466">
        <ele>429.399307</ele>
        <time>2021-04-24T06:57:11.508Z</time>
      </trkpt>
      <trkpt lat="45.81853" lon="4.79462">
        <ele>430.079522</ele>
        <time>2021-04-24T06:57:14.509Z</time>
      </trkpt>
      <trkpt lat="45.81863" lon="4.79461">
        <ele>430.760274</ele>
        <time>2021-04-24T06:57:17.497Z</time>
      </trkpt>
      <trkpt lat="45.81875" lon="4.79458">
        <ele>431.505496</ele>
        <time>2021-04-24T06:57:20.488Z</time>
      </trkpt>
      <trkpt lat="45.81886" lon="4.79455">
        <ele>432.2126</ele>
        <time>2021-04-24T06:57:23.513Z</time>
      </trkpt>
      <trkpt lat="45.81896" lon="4.79452">
        <ele>432.884734</ele>
        <time>2021-04-24T06:57:26.487Z</time>
      </trkpt>
      <trkpt lat="45.81906" lon="4.79449">
        <ele>433.534713</ele>
        <time>2021-04-24T06:57:29.501Z</time>
      </trkpt>
      <trkpt lat="45.81916" lon="4.79445">
        <ele>434.20541</ele>
        <time>2021-04-24T06:57:32.497Z</time>
      </trkpt>
      <trkpt lat="45.81925" lon="4.79442">
        <ele>434.815808</ele>
        <time>2021-04-24T06:57:35.486Z</time>
      </trkpt>
      <trkpt lat="45.81935" lon="4.79439">
        <ele>435.418719</ele>
        <time>2021-04-24T06:57:38.495Z</time>
      </trkpt>
      <trkpt lat="45.81944" lon="4.79435">
        <ele>436.043172</ele>
        <time>2021-04-24T06:57:41.506Z</time>
      </trkpt>
      <trkpt lat="45.81954" lon="4.79431">
        <ele>436.660213</ele>
        <time>2021-04-24T06:57:44.511Z</time>
      </trkpt>
      <trkpt lat="45.81964" lon="4.79428">
        <ele>437.305161</ele>
        <time>2021-04-24T06:57:47.488Z</time>
      </trkpt>
      <trkpt lat="45.81973" lon="4.79423">
        <ele>437.924288</ele>
        <time>2021-04-24T06:57:50.518Z</time>
      </trkpt>
      <trkpt lat="45.81982" lon="4.79418">
        <ele>438.527408</ele>
        <time>2021-04-24T06:57:53.500Z</time>
      </trkpt>
      <trkpt lat="45.81993" lon="4.79411">
        <ele>439.261108</ele>
        <time>2021-04-24T06:57:57.504Z</time>
      </trkpt>
      <trkpt lat="45.82004" lon="4.79407">
        <ele>440.02457</ele>
        <time>2021-04-24T06:58:01.627Z</time>
      </trkpt>
      <trkpt lat="45.82013" lon="4.79401">
        <ele>440.619392</ele>
        <time>2021-04-24T06:58:04.505Z</time>
      </trkpt>
      <trkpt lat="45.82017" lon="4.79389">
        <ele>441.196146</ele>
        <time>2021-04-24T06:58:07.494Z</time>
      </trkpt>
      <trkpt lat="45.82023" lon="4.79376">
        <ele>441.903496</ele>
        <time>2021-04-24T06:58:11.499Z</time>
      </trkpt>
      <trkpt lat="45.82033" lon="4.79367">
        <ele>442.633815</ele>
        <time>2021-04-24T06:58:15.490Z</time>
      </trkpt>
      <trkpt lat="45.82044" lon="4.79361">
        <ele>443.382486</ele>
        <time>2021-04-24T06:58:19.495Z</time>
      </trkpt>
      <trkpt lat="45.82052" lon="4.79355">
        <ele>443.969293</ele>
        <time>2021-04-24T06:58:22.484Z</time>
      </trkpt>
      <trkpt lat="45.82061" lon="4.79349">
        <ele>444.57626</ele>
        <time>2021-04-24T06:58:25.510Z</time>
      </trkpt>
      <trkpt lat="45.82069" lon="4.79344">
        <ele>445.156794</ele>
        <time>2021-04-24T06:58:28.500Z</time>
      </trkpt>
      <trkpt lat="45.82079" lon="4.79339">
        <ele>445.790808</ele>
        <time>2021-04-24T06:58:31.496Z</time>
      </trkpt>
      <trkpt lat="45.82088" lon="4.79334">
        <ele>446.61245</ele>
        <time>2021-04-24T06:58:34.500Z</time>
      </trkpt>
      <trkpt lat="45.82098" lon="4.79329">
        <ele>447.511324</ele>
        <time>2021-04-24T06:58:37.508Z</time>
      </trkpt>
      <trkpt lat="45.82107" lon="4.79323">
        <ele>448.308992</ele>
        <time>2021-04-24T06:58:40.511Z</time>
      </trkpt>
      <trkpt lat="45.82115" lon="4.79318">
        <ele>449.128112</ele>
        <time>2021-04-24T06:58:43.495Z</time>
      </trkpt>
      <trkpt lat="45.82127" lon="4.79312">
        <ele>450.174328</ele>
        <time>2021-04-24T06:58:47.540Z</time>
      </trkpt>
      <trkpt lat="45.82136" lon="4.79307">
        <ele>451.028835</ele>
        <time>2021-04-24T06:58:50.500Z</time>
      </trkpt>
      <trkpt lat="45.82145" lon="4.79302">
        <ele>451.83874</ele>
        <time>2021-04-24T06:58:53.521Z</time>
      </trkpt>
      <trkpt lat="45.82154" lon="4.79299">
        <ele>452.620927</ele>
        <time>2021-04-24T06:58:56.518Z</time>
      </trkpt>
      <trkpt lat="45.82163" lon="4.79297">
        <ele>453.446845</ele>
        <time>2021-04-24T06:58:59.510Z</time>
      </trkpt>
      <trkpt lat="45.82172" lon="4.79291">
        <ele>454.287533</ele>
        <time>2021-04-24T06:59:02.509Z</time>
      </trkpt>
      <trkpt lat="45.82181" lon="4.79287">
        <ele>455.073743</ele>
        <time>2021-04-24T06:59:05.514Z</time>
      </trkpt>
      <trkpt lat="45.8219" lon="4.79282">
        <ele>455.86547</ele>
        <time>2021-04-24T06:59:08.516Z</time>
      </trkpt>
      <trkpt lat="45.82199" lon="4.79279">
        <ele>456.696677</ele>
        <time>2021-04-24T06:59:11.522Z</time>
      </trkpt>
      <trkpt lat="45.82209" lon="4.79276">
        <ele>457.564917</ele>
        <time>2021-04-24T06:59:14.510Z</time>
      </trkpt>
      <trkpt lat="45.82219" lon="4.79273">
        <ele>458.422544</ele>
        <time>2021-04-24T06:59:17.507Z</time>
      </trkpt>
      <trkpt lat="45.82229" lon="4.79271">
        <ele>459.280623</ele>
        <time>2021-04-24T06:59:20.517Z</time>
      </trkpt>
      <trkpt lat="45.82239" lon="4.7927">
        <ele>460.160655</ele>
        <time>2021-04-24T06:59:23.495Z</time>
      </trkpt>
      <trkpt lat="45.82249" lon="4.79268">
        <ele>461.018734</ele>
        <time>2021-04-24T06:59:26.501Z</time>
      </trkpt>
      <trkpt lat="45.82259" lon="4.79264">
        <ele>461.714863</ele>
        <time>2021-04-24T06:59:29.515Z</time>
      </trkpt>
      <trkpt lat="45.82269" lon="4.7926">
        <ele>462.258755</ele>
        <time>2021-04-24T06:59:32.499Z</time>
      </trkpt>
      <trkpt lat="45.82279" lon="4.79257">
        <ele>462.825709</ele>
        <time>2021-04-24T06:59:35.504Z</time>
      </trkpt>
      <trkpt lat="45.82289" lon="4.79253">
        <ele>463.390946</ele>
        <time>2021-04-24T06:59:38.496Z</time>
      </trkpt>
      <trkpt lat="45.82299" lon="4.79249">
        <ele>463.952297</ele>
        <time>2021-04-24T06:59:41.494Z</time>
      </trkpt>
      <trkpt lat="45.82309" lon="4.79245">
        <ele>464.517888</ele>
        <time>2021-04-24T06:59:44.504Z</time>
      </trkpt>
      <trkpt lat="45.82319" lon="4.79239">
        <ele>465.07931</ele>
        <time>2021-04-24T06:59:47.507Z</time>
      </trkpt>
      <trkpt lat="45.82329" lon="4.79234">
        <ele>465.625069</ele>
        <time>2021-04-24T06:59:50.502Z</time>
      </trkpt>
      <trkpt lat="45.82338" lon="4.79228">
        <ele>466.185642</ele>
        <time>2021-04-24T06:59:53.506Z</time>
      </trkpt>
      <trkpt lat="45.82348" lon="4.79223">
        <ele>466.725773</ele>
        <time>2021-04-24T06:59:56.506Z</time>
      </trkpt>
      <trkpt lat="45.82358" lon="4.79218">
        <ele>467.321047</ele>
        <time>2021-04-24T06:59:59.514Z</time>
      </trkpt>
      <trkpt lat="45.82369" lon="4.79213">
        <ele>467.911278</ele>
        <time>2021-04-24T07:00:02.500Z</time>
      </trkpt>
      <trkpt lat="45.82379" lon="4.79208">
        <ele>468.477618</ele>
        <time>2021-04-24T07:00:05.513Z</time>
      </trkpt>
      <trkpt lat="45.82389" lon="4.79203">
        <ele>469.035299</ele>
        <time>2021-04-24T07:00:08.508Z</time>
      </trkpt>
      <trkpt lat="45.82398" lon="4.79198">
        <ele>469.575187</ele>
        <time>2021-04-24T07:00:11.503Z</time>
      </trkpt>
      <trkpt lat="45.82407" lon="4.79194">
        <ele>470.062642</ele>
        <time>2021-04-24T07:00:14.505Z</time>
      </trkpt>
      <trkpt lat="45.82416" lon="4.79189">
        <ele>470.585115</ele>
        <time>2021-04-24T07:00:17.503Z</time>
      </trkpt>
      <trkpt lat="45.82425" lon="4.79183">
        <ele>471.163765</ele>
        <time>2021-04-24T07:00:20.498Z</time>
      </trkpt>
      <trkpt lat="45.82435" lon="4.79179">
        <ele>471.980636</ele>
        <time>2021-04-24T07:00:23.496Z</time>
      </trkpt>
      <trkpt lat="45.82443" lon="4.79175">
        <ele>472.717181</ele>
        <time>2021-04-24T07:00:26.503Z</time>
      </trkpt>
      <trkpt lat="45.82452" lon="4.79171">
        <ele>473.459731</ele>
        <time>2021-04-24T07:00:29.493Z</time>
      </trkpt>
      <trkpt lat="45.82461" lon="4.79167">
        <ele>474.221027</ele>
        <time>2021-04-24T07:00:32.489Z</time>
      </trkpt>
      <trkpt lat="45.82472" lon="4.79162">
        <ele>475.147111</ele>
        <time>2021-04-24T07:00:36.489Z</time>
      </trkpt>
      <trkpt lat="45.82481" lon="4.7916">
        <ele>475.889338</ele>
        <time>2021-04-24T07:00:39.490Z</time>
      </trkpt>
      <trkpt lat="45.8249" lon="4.79158">
        <ele>476.61652</ele>
        <time>2021-04-24T07:00:42.501Z</time>
      </trkpt>
      <trkpt lat="45.825" lon="4.79156">
        <ele>477.391476</ele>
        <time>2021-04-24T07:00:45.501Z</time>
      </trkpt>
      <trkpt lat="45.82511" lon="4.79153">
        <ele>478.32042</ele>
        <time>2021-04-24T07:00:49.500Z</time>
      </trkpt>
      <trkpt lat="45.82523" lon="4.79151">
        <ele>479.275832</ele>
        <time>2021-04-24T07:00:53.510Z</time>
      </trkpt>
      <trkpt lat="45.82533" lon="4.79147">
        <ele>480.137063</ele>
        <time>2021-04-24T07:00:57.512Z</time>
      </trkpt>
      <trkpt lat="45.82543" lon="4.79144">
        <ele>480.984415</ele>
        <time>2021-04-24T07:01:01.502Z</time>
      </trkpt>
      <trkpt lat="45.82554" lon="4.79141">
        <ele>481.822757</ele>
        <time>2021-04-24T07:01:04.510Z</time>
      </trkpt>
      <trkpt lat="45.82564" lon="4.79139">
        <ele>482.704745</ele>
        <time>2021-04-24T07:01:07.500Z</time>
      </trkpt>
      <trkpt lat="45.82575" lon="4.79136">
        <ele>483.56902</ele>
        <time>2021-04-24T07:01:10.505Z</time>
      </trkpt>
      <trkpt lat="45.82585" lon="4.79133">
        <ele>484.417507</ele>
        <time>2021-04-24T07:01:13.501Z</time>
      </trkpt>
      <trkpt lat="45.82596" lon="4.79131">
        <ele>485.252192</ele>
        <time>2021-04-24T07:01:16.519Z</time>
      </trkpt>
      <trkpt lat="45.82606" lon="4.79129">
        <ele>485.578852</ele>
        <time>2021-04-24T07:01:19.496Z</time>
      </trkpt>
      <trkpt lat="45.82616" lon="4.79127">
        <ele>485.650331</ele>
        <time>2021-04-24T07:01:22.484Z</time>
      </trkpt>
      <trkpt lat="45.82626" lon="4.79124">
        <ele>485.718227</ele>
        <time>2021-04-24T07:01:25.502Z</time>
      </trkpt>
      <trkpt lat="45.82635" lon="4.79121">
        <ele>485.781565</ele>
        <time>2021-04-24T07:01:28.501Z</time>
      </trkpt>
      <trkpt lat="45.82643" lon="4.79117">
        <ele>485.846013</ele>
        <time>2021-04-24T07:01:31.501Z</time>
      </trkpt>
      <trkpt lat="45.82653" lon="4.79113">
        <ele>485.914824</ele>
        <time>2021-04-24T07:01:34.505Z</time>
      </trkpt>
      <trkpt lat="45.82662" lon="4.79108">
        <ele>485.986376</ele>
        <time>2021-04-24T07:01:37.498Z</time>
      </trkpt>
      <trkpt lat="45.82672" lon="4.79105">
        <ele>486.057907</ele>
        <time>2021-04-24T07:01:40.497Z</time>
      </trkpt>
      <trkpt lat="45.82683" lon="4.79103">
        <ele>486.131276</ele>
        <time>2021-04-24T07:01:43.550Z</time>
      </trkpt>
      <trkpt lat="45.82693" lon="4.79102">
        <ele>486.202883</ele>
        <time>2021-04-24T07:01:46.499Z</time>
      </trkpt>
      <trkpt lat="45.82703" lon="4.79104">
        <ele>486.273741</ele>
        <time>2021-04-24T07:01:49.519Z</time>
      </trkpt>
      <trkpt lat="45.82712" lon="4.79108">
        <ele>486.338375</ele>
        <time>2021-04-24T07:01:52.509Z</time>
      </trkpt>
      <trkpt lat="45.82721" lon="4.79109">
        <ele>486.404038</ele>
        <time>2021-04-24T07:01:55.543Z</time>
      </trkpt>
      <trkpt lat="45.8273" lon="4.79111">
        <ele>486.468312</ele>
        <time>2021-04-24T07:01:58.497Z</time>
      </trkpt>
      <trkpt lat="45.82739" lon="4.79114">
        <ele>486.532613</ele>
        <time>2021-04-24T07:02:01.517Z</time>
      </trkpt>
      <trkpt lat="45.82749" lon="4.79116">
        <ele>486.600011</ele>
        <time>2021-04-24T07:02:04.502Z</time>
      </trkpt>
      <trkpt lat="45.82758" lon="4.79118">
        <ele>486.665876</ele>
        <time>2021-04-24T07:02:07.523Z</time>
      </trkpt>
      <trkpt lat="45.82767" lon="4.79121">
        <ele>486.733019</ele>
        <time>2021-04-24T07:02:10.500Z</time>
      </trkpt>
      <trkpt lat="45.82777" lon="4.79122">
        <ele>487.099718</ele>
        <time>2021-04-24T07:02:13.521Z</time>
      </trkpt>
      <trkpt lat="45.82789" lon="4.79123">
        <ele>488.587048</ele>
        <time>2021-04-24T07:02:16.502Z</time>
      </trkpt>
      <trkpt lat="45.82798" lon="4.79125">
        <ele>489.874139</ele>
        <time>2021-04-24T07:02:19.494Z</time>
      </trkpt>
      <trkpt lat="45.82808" lon="4.79128">
        <ele>491.16145</ele>
        <time>2021-04-24T07:02:22.487Z</time>
      </trkpt>
      <trkpt lat="45.82818" lon="4.79134">
        <ele>492.591013</ele>
        <time>2021-04-24T07:02:25.496Z</time>
      </trkpt>
      <trkpt lat="45.82827" lon="4.79141">
        <ele>493.947808</ele>
        <time>2021-04-24T07:02:28.521Z</time>
      </trkpt>
      <trkpt lat="45.82834" lon="4.7915">
        <ele>495.251535</ele>
        <time>2021-04-24T07:02:31.525Z</time>
      </trkpt>
      <trkpt lat="45.82841" lon="4.79162">
        <ele>496.603592</ele>
        <time>2021-04-24T07:02:34.511Z</time>
      </trkpt>
      <trkpt lat="45.82846" lon="4.79174">
        <ele>497.922411</ele>
        <time>2021-04-24T07:02:37.501Z</time>
      </trkpt>
      <trkpt lat="45.8285" lon="4.79186">
        <ele>499.191128</ele>
        <time>2021-04-24T07:02:40.496Z</time>
      </trkpt>
      <trkpt lat="45.82855" lon="4.79199">
        <ele>500.49518</ele>
        <time>2021-04-24T07:02:43.497Z</time>
      </trkpt>
      <trkpt lat="45.82858" lon="4.79213">
        <ele>501.894968</ele>
        <time>2021-04-24T07:02:46.517Z</time>
      </trkpt>
      <trkpt lat="45.82862" lon="4.79227">
        <ele>503.264517</ele>
        <time>2021-04-24T07:02:49.509Z</time>
      </trkpt>
      <trkpt lat="45.82866" lon="4.7924">
        <ele>504.590979</ele>
        <time>2021-04-24T07:02:52.502Z</time>
      </trkpt>
      <trkpt lat="45.82872" lon="4.79252">
        <ele>505.91803</ele>
        <time>2021-04-24T07:02:55.500Z</time>
      </trkpt>
      <trkpt lat="45.82878" lon="4.79264">
        <ele>507.283622</ele>
        <time>2021-04-24T07:02:58.522Z</time>
      </trkpt>
      <trkpt lat="45.82884" lon="4.79274">
        <ele>508.570328</ele>
        <time>2021-04-24T07:03:01.518Z</time>
      </trkpt>
      <trkpt lat="45.82892" lon="4.79284">
        <ele>509.895214</ele>
        <time>2021-04-24T07:03:04.501Z</time>
      </trkpt>
      <trkpt lat="45.82899" lon="4.79292">
        <ele>511.05531</ele>
        <time>2021-04-24T07:03:07.502Z</time>
      </trkpt>
      <trkpt lat="45.82909" lon="4.79298">
        <ele>512.099627</ele>
        <time>2021-04-24T07:03:10.498Z</time>
      </trkpt>
      <trkpt lat="45.82919" lon="4.79302">
        <ele>513.149796</ele>
        <time>2021-04-24T07:03:13.503Z</time>
      </trkpt>
      <trkpt lat="45.82929" lon="4.79303">
        <ele>514.178424</ele>
        <time>2021-04-24T07:03:16.508Z</time>
      </trkpt>
      <trkpt lat="45.82939" lon="4.79303">
        <ele>515.191334</ele>
        <time>2021-04-24T07:03:19.513Z</time>
      </trkpt>
      <trkpt lat="45.82949" lon="4.793">
        <ele>516.220108</ele>
        <time>2021-04-24T07:03:22.522Z</time>
      </trkpt>
      <trkpt lat="45.82959" lon="4.79298">
        <ele>517.281312</ele>
        <time>2021-04-24T07:03:25.543Z</time>
      </trkpt>
      <trkpt lat="45.82968" lon="4.79293">
        <ele>518.253255</ele>
        <time>2021-04-24T07:03:28.511Z</time>
      </trkpt>
      <trkpt lat="45.82978" lon="4.79289">
        <ele>519.273881</ele>
        <time>2021-04-24T07:03:31.523Z</time>
      </trkpt>
      <trkpt lat="45.82987" lon="4.79286">
        <ele>520.258737</ele>
        <time>2021-04-24T07:03:34.517Z</time>
      </trkpt>
      <trkpt lat="45.82997" lon="4.79283">
        <ele>521.291493</ele>
        <time>2021-04-24T07:03:37.552Z</time>
      </trkpt>
      <trkpt lat="45.83009" lon="4.79282">
        <ele>522.418324</ele>
        <time>2021-04-24T07:03:40.486Z</time>
      </trkpt>
      <trkpt lat="45.8302" lon="4.7928">
        <ele>523.565887</ele>
        <time>2021-04-24T07:03:43.509Z</time>
      </trkpt>
      <trkpt lat="45.83031" lon="4.7928">
        <ele>524.649617</ele>
        <time>2021-04-24T07:03:46.502Z</time>
      </trkpt>
      <trkpt lat="45.8304" lon="4.79279">
        <ele>525.65241</ele>
        <time>2021-04-24T07:03:49.520Z</time>
      </trkpt>
      <trkpt lat="45.83051" lon="4.79279">
        <ele>526.675704</ele>
        <time>2021-04-24T07:03:52.503Z</time>
      </trkpt>
      <trkpt lat="45.83061" lon="4.79278">
        <ele>527.730851</ele>
        <time>2021-04-24T07:03:55.516Z</time>
      </trkpt>
      <trkpt lat="45.83072" lon="4.79277">
        <ele>528.835035</ele>
        <time>2021-04-24T07:03:58.512Z</time>
      </trkpt>
      <trkpt lat="45.83082" lon="4.79276">
        <ele>529.066992</ele>
        <time>2021-04-24T07:04:01.506Z</time>
      </trkpt>
      <trkpt lat="45.83094" lon="4.79277">
        <ele>529.312213</ele>
        <time>2021-04-24T07:04:04.502Z</time>
      </trkpt>
      <trkpt lat="45.83105" lon="4.79279">
        <ele>529.564695</ele>
        <time>2021-04-24T07:04:07.502Z</time>
      </trkpt>
      <trkpt lat="45.83117" lon="4.7928">
        <ele>529.821528</ele>
        <time>2021-04-24T07:04:10.502Z</time>
      </trkpt>
      <trkpt lat="45.83127" lon="4.79284">
        <ele>530.050706</ele>
        <time>2021-04-24T07:04:13.501Z</time>
      </trkpt>
      <trkpt lat="45.83138" lon="4.79288">
        <ele>530.300432</ele>
        <time>2021-04-24T07:04:16.506Z</time>
      </trkpt>
      <trkpt lat="45.83149" lon="4.7929">
        <ele>530.533811</ele>
        <time>2021-04-24T07:04:19.496Z</time>
      </trkpt>
      <trkpt lat="45.83159" lon="4.79294">
        <ele>530.772938</ele>
        <time>2021-04-24T07:04:22.514Z</time>
      </trkpt>
      <trkpt lat="45.83175" lon="4.79299">
        <ele>531.129827</ele>
        <time>2021-04-24T07:04:26.501Z</time>
      </trkpt>
      <trkpt lat="45.83184" lon="4.79301">
        <ele>531.326684</ele>
        <time>2021-04-24T07:04:28.504Z</time>
      </trkpt>
      <trkpt lat="45.83193" lon="4.79303">
        <ele>531.53002</ele>
        <time>2021-04-24T07:04:30.518Z</time>
      </trkpt>
      <trkpt lat="45.83203" lon="4.79306">
        <ele>531.736883</ele>
        <time>2021-04-24T07:04:32.506Z</time>
      </trkpt>
      <trkpt lat="45.83214" lon="4.79309">
        <ele>531.979799</ele>
        <time>2021-04-24T07:04:34.503Z</time>
      </trkpt>
      <trkpt lat="45.83227" lon="4.79314">
        <ele>532.284362</ele>
        <time>2021-04-24T07:04:37.501Z</time>
      </trkpt>
      <trkpt lat="45.83237" lon="4.79317">
        <ele>532.50761</ele>
        <time>2021-04-24T07:04:39.511Z</time>
      </trkpt>
      <trkpt lat="45.83247" lon="4.7932">
        <ele>532.737279</ele>
        <time>2021-04-24T07:04:41.500Z</time>
      </trkpt>
      <trkpt lat="45.83258" lon="4.79322">
        <ele>532.614892</ele>
        <time>2021-04-24T07:04:43.498Z</time>
      </trkpt>
      <trkpt lat="45.83269" lon="4.79326">
        <ele>532.431381</ele>
        <time>2021-04-24T07:04:45.499Z</time>
      </trkpt>
      <trkpt lat="45.83278" lon="4.79329">
        <ele>532.272043</ele>
        <time>2021-04-24T07:04:47.492Z</time>
      </trkpt>
      <trkpt lat="45.83289" lon="4.79331">
        <ele>532.087504</ele>
        <time>2021-04-24T07:04:49.504Z</time>
      </trkpt>
      <trkpt lat="45.83299" lon="4.79333">
        <ele>531.929879</ele>
        <time>2021-04-24T07:04:51.486Z</time>
      </trkpt>
      <trkpt lat="45.83309" lon="4.79337">
        <ele>531.763194</ele>
        <time>2021-04-24T07:04:53.510Z</time>
      </trkpt>
      <trkpt lat="45.83318" lon="4.7934">
        <ele>531.612493</ele>
        <time>2021-04-24T07:04:55.499Z</time>
      </trkpt>
      <trkpt lat="45.83329" lon="4.79341">
        <ele>531.426722</ele>
        <time>2021-04-24T07:04:57.502Z</time>
      </trkpt>
      <trkpt lat="45.8334" lon="4.79342">
        <ele>531.247446</ele>
        <time>2021-04-24T07:04:59.503Z</time>
      </trkpt>
      <trkpt lat="45.8335" lon="4.79343">
        <ele>531.094044</ele>
        <time>2021-04-24T07:05:01.497Z</time>
      </trkpt>
      <trkpt lat="45.8336" lon="4.79343">
        <ele>530.927949</ele>
        <time>2021-04-24T07:05:03.501Z</time>
      </trkpt>
      <trkpt lat="45.8337" lon="4.79344">
        <ele>530.760106</ele>
        <time>2021-04-24T07:05:05.503Z</time>
      </trkpt>
      <trkpt lat="45.83381" lon="4.79346">
        <ele>530.593332</ele>
        <time>2021-04-24T07:05:07.513Z</time>
      </trkpt>
      <trkpt lat="45.83392" lon="4.79348">
        <ele>530.407363</ele>
        <time>2021-04-24T07:05:09.505Z</time>
      </trkpt>
      <trkpt lat="45.83404" lon="4.79352">
        <ele>530.205001</ele>
        <time>2021-04-24T07:05:11.508Z</time>
      </trkpt>
      <trkpt lat="45.83415" lon="4.79355">
        <ele>530.021235</ele>
        <time>2021-04-24T07:05:13.503Z</time>
      </trkpt>
      <trkpt lat="45.83426" lon="4.79358">
        <ele>529.848964</ele>
        <time>2021-04-24T07:05:15.501Z</time>
      </trkpt>
      <trkpt lat="45.83437" lon="4.79361">
        <ele>530.177711</ele>
        <time>2021-04-24T07:05:17.485Z</time>
      </trkpt>
      <trkpt lat="45.83448" lon="4.79365">
        <ele>530.50692</ele>
        <time>2021-04-24T07:05:19.515Z</time>
      </trkpt>
      <trkpt lat="45.83461" lon="4.79369">
        <ele>530.871555</ele>
        <time>2021-04-24T07:05:21.492Z</time>
      </trkpt>
      <trkpt lat="45.83473" lon="4.79371">
        <ele>531.222985</ele>
        <time>2021-04-24T07:05:23.503Z</time>
      </trkpt>
      <trkpt lat="45.83485" lon="4.79372">
        <ele>531.599324</ele>
        <time>2021-04-24T07:05:25.492Z</time>
      </trkpt>
      <trkpt lat="45.83497" lon="4.79371">
        <ele>531.9411</ele>
        <time>2021-04-24T07:05:27.494Z</time>
      </trkpt>
      <trkpt lat="45.83508" lon="4.79367">
        <ele>532.277073</ele>
        <time>2021-04-24T07:05:29.500Z</time>
      </trkpt>
      <trkpt lat="45.8352" lon="4.79364">
        <ele>532.631004</ele>
        <time>2021-04-24T07:05:31.518Z</time>
      </trkpt>
      <trkpt lat="45.83532" lon="4.79362">
        <ele>532.965329</ele>
        <time>2021-04-24T07:05:33.505Z</time>
      </trkpt>
      <trkpt lat="45.83543" lon="4.79362">
        <ele>533.300781</ele>
        <time>2021-04-24T07:05:35.494Z</time>
      </trkpt>
      <trkpt lat="45.83554" lon="4.79361">
        <ele>533.628902</ele>
        <time>2021-04-24T07:05:37.508Z</time>
      </trkpt>
      <trkpt lat="45.83565" lon="4.79361">
        <ele>533.938108</ele>
        <time>2021-04-24T07:05:39.494Z</time>
      </trkpt>
      <trkpt lat="45.83576" lon="4.7936">
        <ele>534.268233</ele>
        <time>2021-04-24T07:05:41.495Z</time>
      </trkpt>
      <trkpt lat="45.83587" lon="4.79358">
        <ele>534.585624</ele>
        <time>2021-04-24T07:05:43.515Z</time>
      </trkpt>
      <trkpt lat="45.83598" lon="4.79358">
        <ele>534.903808</ele>
        <time>2021-04-24T07:05:45.501Z</time>
      </trkpt>
      <trkpt lat="45.83609" lon="4.79357">
        <ele>535.39624</ele>
        <time>2021-04-24T07:05:47.515Z</time>
      </trkpt>
      <trkpt lat="45.83619" lon="4.79355">
        <ele>536.123824</ele>
        <time>2021-04-24T07:05:49.495Z</time>
      </trkpt>
      <trkpt lat="45.83629" lon="4.79354">
        <ele>536.83949</ele>
        <time>2021-04-24T07:05:51.535Z</time>
      </trkpt>
      <trkpt lat="45.83641" lon="4.79353">
        <ele>537.632775</ele>
        <time>2021-04-24T07:05:53.518Z</time>
      </trkpt>
      <trkpt lat="45.83652" lon="4.79352">
        <ele>538.400713</ele>
        <time>2021-04-24T07:05:55.615Z</time>
      </trkpt>
      <trkpt lat="45.83667" lon="4.79349">
        <ele>539.474625</ele>
        <time>2021-04-24T07:05:58.510Z</time>
      </trkpt>
      <trkpt lat="45.83676" lon="4.79347">
        <ele>540.118901</ele>
        <time>2021-04-24T07:06:00.497Z</time>
      </trkpt>
      <trkpt lat="45.8369" lon="4.79347">
        <ele>541.035846</ele>
        <time>2021-04-24T07:06:03.517Z</time>
      </trkpt>
      <trkpt lat="45.83699" lon="4.79347">
        <ele>541.710202</ele>
        <time>2021-04-24T07:06:05.510Z</time>
      </trkpt>
      <trkpt lat="45.83709" lon="4.79346">
        <ele>542.397893</ele>
        <time>2021-04-24T07:06:07.522Z</time>
      </trkpt>
      <trkpt lat="45.83718" lon="4.79345">
        <ele>543.043476</ele>
        <time>2021-04-24T07:06:09.498Z</time>
      </trkpt>
      <trkpt lat="45.83727" lon="4.79344">
        <ele>543.675607</ele>
        <time>2021-04-24T07:06:11.500Z</time>
      </trkpt>
      <trkpt lat="45.83737" lon="4.79344">
        <ele>544.350449</ele>
        <time>2021-04-24T07:06:13.544Z</time>
      </trkpt>
      <trkpt lat="45.83751" lon="4.79342">
        <ele>545.326738</ele>
        <time>2021-04-24T07:06:16.504Z</time>
      </trkpt>
      <trkpt lat="45.83761" lon="4.79341">
        <ele>545.981798</ele>
        <time>2021-04-24T07:06:18.515Z</time>
      </trkpt>
      <trkpt lat="45.8377" lon="4.7934">
        <ele>546.642081</ele>
        <time>2021-04-24T07:06:20.506Z</time>
      </trkpt>
      <trkpt lat="45.83779" lon="4.79339">
        <ele>547.297552</ele>
        <time>2021-04-24T07:06:22.497Z</time>
      </trkpt>
      <trkpt lat="45.83789" lon="4.79339">
        <ele>547.848179</ele>
        <time>2021-04-24T07:06:24.510Z</time>
      </trkpt>
      <trkpt lat="45.83798" lon="4.79336">
        <ele>548.345167</ele>
        <time>2021-04-24T07:06:26.501Z</time>
      </trkpt>
      <trkpt lat="45.83808" lon="4.79335">
        <ele>548.855251</ele>
        <time>2021-04-24T07:06:28.518Z</time>
      </trkpt>
      <trkpt lat="45.83817" lon="4.79333">
        <ele>549.349768</ele>
        <time>2021-04-24T07:06:30.505Z</time>
      </trkpt>
      <trkpt lat="45.83826" lon="4.7933">
        <ele>549.847936</ele>
        <time>2021-04-24T07:06:32.519Z</time>
      </trkpt>
      <trkpt lat="45.83837" lon="4.79327">
        <ele>550.403974</ele>
        <time>2021-04-24T07:06:34.523Z</time>
      </trkpt>
      <trkpt lat="45.83846" lon="4.79323">
        <ele>550.894073</ele>
        <time>2021-04-24T07:06:36.504Z</time>
      </trkpt>
      <trkpt lat="45.83858" lon="4.79318">
        <ele>551.577996</ele>
        <time>2021-04-24T07:06:39.504Z</time>
      </trkpt>
      <trkpt lat="45.8387" lon="4.79312">
        <ele>552.203813</ele>
        <time>2021-04-24T07:06:42.511Z</time>
      </trkpt>
      <trkpt lat="45.83882" lon="4.79306">
        <ele>552.865306</ele>
        <time>2021-04-24T07:06:45.502Z</time>
      </trkpt>
      <trkpt lat="45.83893" lon="4.79302">
        <ele>553.479927</ele>
        <time>2021-04-24T07:06:48.509Z</time>
      </trkpt>
      <trkpt lat="45.83905" lon="4.793">
        <ele>554.105443</ele>
        <time>2021-04-24T07:06:51.502Z</time>
      </trkpt>
      <trkpt lat="45.83917" lon="4.793">
        <ele>554.737583</ele>
        <time>2021-04-24T07:06:54.517Z</time>
      </trkpt>
      <trkpt lat="45.83929" lon="4.79301">
        <ele>555.366862</ele>
        <time>2021-04-24T07:06:57.505Z</time>
      </trkpt>
      <trkpt lat="45.83941" lon="4.79302">
        <ele>555.989406</ele>
        <time>2021-04-24T07:07:00.504Z</time>
      </trkpt>
      <trkpt lat="45.83952" lon="4.79303">
        <ele>556.579843</ele>
        <time>2021-04-24T07:07:03.532Z</time>
      </trkpt>
      <trkpt lat="45.83964" lon="4.79301">
        <ele>557.129022</ele>
        <time>2021-04-24T07:07:06.520Z</time>
      </trkpt>
      <trkpt lat="45.83975" lon="4.79298">
        <ele>557.554519</ele>
        <time>2021-04-24T07:07:09.500Z</time>
      </trkpt>
      <trkpt lat="45.83985" lon="4.79295">
        <ele>557.951963</ele>
        <time>2021-04-24T07:07:12.512Z</time>
      </trkpt>
      <trkpt lat="45.83995" lon="4.79293">
        <ele>558.347919</ele>
        <time>2021-04-24T07:07:15.526Z</time>
      </trkpt>
      <trkpt lat="45.84004" lon="4.79289">
        <ele>558.724661</ele>
        <time>2021-04-24T07:07:18.511Z</time>
      </trkpt>
      <trkpt lat="45.84014" lon="4.79286">
        <ele>559.112919</ele>
        <time>2021-04-24T07:07:21.508Z</time>
      </trkpt>
      <trkpt lat="45.84024" lon="4.79283">
        <ele>559.510363</ele>
        <time>2021-04-24T07:07:24.501Z</time>
      </trkpt>
      <trkpt lat="45.84035" lon="4.7928">
        <ele>559.913928</ele>
        <time>2021-04-24T07:07:27.498Z</time>
      </trkpt>
      <trkpt lat="45.84045" lon="4.7928">
        <ele>560.302261</ele>
        <time>2021-04-24T07:07:30.520Z</time>
      </trkpt>
      <trkpt lat="45.84054" lon="4.79279">
        <ele>560.672546</ele>
        <time>2021-04-24T07:07:33.513Z</time>
      </trkpt>
      <trkpt lat="45.84066" lon="4.79278">
        <ele>561.102992</ele>
        <time>2021-04-24T07:07:37.539Z</time>
      </trkpt>
      <trkpt lat="45.84075" lon="4.79281">
        <ele>561.465618</ele>
        <time>2021-04-24T07:07:40.499Z</time>
      </trkpt>
      <trkpt lat="45.84085" lon="4.79284">
        <ele>561.861779</ele>
        <time>2021-04-24T07:07:43.552Z</time>
      </trkpt>
      <trkpt lat="45.84094" lon="4.79289">
        <ele>562.249677</ele>
        <time>2021-04-24T07:07:46.507Z</time>
      </trkpt>
      <trkpt lat="45.84104" lon="4.79293">
        <ele>562.649565</ele>
        <time>2021-04-24T07:07:49.521Z</time>
      </trkpt>
      <trkpt lat="45.84114" lon="4.79297">
        <ele>563.023044</ele>
        <time>2021-04-24T07:07:52.507Z</time>
      </trkpt>
      <trkpt lat="45.84124" lon="4.79302">
        <ele>563.424576</ele>
        <time>2021-04-24T07:07:55.540Z</time>
      </trkpt>
      <trkpt lat="45.84134" lon="4.79307">
        <ele>563.83988</ele>
        <time>2021-04-24T07:07:58.500Z</time>
      </trkpt>
      <trkpt lat="45.84144" lon="4.79312">
        <ele>564.494554</ele>
        <time>2021-04-24T07:08:01.500Z</time>
      </trkpt>
      <trkpt lat="45.84155" lon="4.79317">
        <ele>565.184419</ele>
        <time>2021-04-24T07:08:04.510Z</time>
      </trkpt>
      <trkpt lat="45.84166" lon="4.79321">
        <ele>565.857671</ele>
        <time>2021-04-24T07:08:07.502Z</time>
      </trkpt>
      <trkpt lat="45.84176" lon="4.79327">
        <ele>566.539904</ele>
        <time>2021-04-24T07:08:10.500Z</time>
      </trkpt>
      <trkpt lat="45.84187" lon="4.79331">
        <ele>567.188699</ele>
        <time>2021-04-24T07:08:13.519Z</time>
      </trkpt>
      <trkpt lat="45.84198" lon="4.79335">
        <ele>567.895937</ele>
        <time>2021-04-24T07:08:16.494Z</time>
      </trkpt>
      <trkpt lat="45.84209" lon="4.79335">
        <ele>568.596568</ele>
        <time>2021-04-24T07:08:19.496Z</time>
      </trkpt>
      <trkpt lat="45.84219" lon="4.79328">
        <ele>569.25405</ele>
        <time>2021-04-24T07:08:22.511Z</time>
      </trkpt>
      <trkpt lat="45.84226" lon="4.79317">
        <ele>569.88625</ele>
        <time>2021-04-24T07:08:25.509Z</time>
      </trkpt>
      <trkpt lat="45.84232" lon="4.79305">
        <ele>570.505983</ele>
        <time>2021-04-24T07:08:28.506Z</time>
      </trkpt>
      <trkpt lat="45.84234" lon="4.79292">
        <ele>571.057212</ele>
        <time>2021-04-24T07:08:31.496Z</time>
      </trkpt>
      <trkpt lat="45.84235" lon="4.79276">
        <ele>571.752052</ele>
        <time>2021-04-24T07:08:35.497Z</time>
      </trkpt>
      <trkpt lat="45.84234" lon="4.79263">
        <ele>572.331164</ele>
        <time>2021-04-24T07:08:38.487Z</time>
      </trkpt>
      <trkpt lat="45.84231" lon="4.7925">
        <ele>572.878181</ele>
        <time>2021-04-24T07:08:41.496Z</time>
      </trkpt>
      <trkpt lat="45.84224" lon="4.79237">
        <ele>573.59885</ele>
        <time>2021-04-24T07:08:45.508Z</time>
      </trkpt>
      <trkpt lat="45.84218" lon="4.79226">
        <ele>574.180422</ele>
        <time>2021-04-24T07:08:48.511Z</time>
      </trkpt>
      <trkpt lat="45.8421" lon="4.79216">
        <ele>574.792084</ele>
        <time>2021-04-24T07:08:51.499Z</time>
      </trkpt>
      <trkpt lat="45.84203" lon="4.79205">
        <ele>575.457755</ele>
        <time>2021-04-24T07:08:54.502Z</time>
      </trkpt>
      <trkpt lat="45.84195" lon="4.79195">
        <ele>576.102794</ele>
        <time>2021-04-24T07:08:57.499Z</time>
      </trkpt>
      <trkpt lat="45.84187" lon="4.79185">
        <ele>576.736028</ele>
        <time>2021-04-24T07:09:00.502Z</time>
      </trkpt>
      <trkpt lat="45.8418" lon="4.79175">
        <ele>577.332547</ele>
        <time>2021-04-24T07:09:03.512Z</time>
      </trkpt>
      <trkpt lat="45.84173" lon="4.79165">
        <ele>577.908433</ele>
        <time>2021-04-24T07:09:06.500Z</time>
      </trkpt>
      <trkpt lat="45.84167" lon="4.79155">
        <ele>578.471452</ele>
        <time>2021-04-24T07:09:09.506Z</time>
      </trkpt>
      <trkpt lat="45.8416" lon="4.79143">
        <ele>579.099331</ele>
        <time>2021-04-24T07:09:13.497Z</time>
      </trkpt>
      <trkpt lat="45.84156" lon="4.79132">
        <ele>579.642559</ele>
        <time>2021-04-24T07:09:18.507Z</time>
      </trkpt>
      <trkpt lat="45.84147" lon="4.79124">
        <ele>580.282813</ele>
        <time>2021-04-24T07:10:23.501Z</time>
      </trkpt>
      <trkpt lat="45.84138" lon="4.79112">
        <ele>581.006791</ele>
        <time>2021-04-24T07:10:27.497Z</time>
      </trkpt>
      <trkpt lat="45.8413" lon="4.79102">
        <ele>581.649096</ele>
        <time>2021-04-24T07:10:30.507Z</time>
      </trkpt>
      <trkpt lat="45.84122" lon="4.79092">
        <ele>582.282332</ele>
        <time>2021-04-24T07:10:33.503Z</time>
      </trkpt>
      <trkpt lat="45.84114" lon="4.79082">
        <ele>582.909217</ele>
        <time>2021-04-24T07:10:36.497Z</time>
      </trkpt>
      <trkpt lat="45.84107" lon="4.79073">
        <ele>583.525127</ele>
        <time>2021-04-24T07:10:39.512Z</time>
      </trkpt>
      <trkpt lat="45.84099" lon="4.79063">
        <ele>584.167433</ele>
        <time>2021-04-24T07:10:42.503Z</time>
      </trkpt>
      <trkpt lat="45.8409" lon="4.79053">
        <ele>584.809739</ele>
        <time>2021-04-24T07:10:45.516Z</time>
      </trkpt>
      <trkpt lat="45.84083" lon="4.79043">
        <ele>585.423936</ele>
        <time>2021-04-24T07:10:48.506Z</time>
      </trkpt>
      <trkpt lat="45.84075" lon="4.79034">
        <ele>585.944302</ele>
        <time>2021-04-24T07:10:51.492Z</time>
      </trkpt>
      <trkpt lat="45.84066" lon="4.79027">
        <ele>586.394097</ele>
        <time>2021-04-24T07:10:54.505Z</time>
      </trkpt>
      <trkpt lat="45.84056" lon="4.79024">
        <ele>586.862006</ele>
        <time>2021-04-24T07:10:57.501Z</time>
      </trkpt>
      <trkpt lat="45.84043" lon="4.7902">
        <ele>587.512452</ele>
        <time>2021-04-24T07:11:01.513Z</time>
      </trkpt>
      <trkpt lat="45.84032" lon="4.79016">
        <ele>588.003935</ele>
        <time>2021-04-24T07:11:04.513Z</time>
      </trkpt>
      <trkpt lat="45.84023" lon="4.79009">
        <ele>588.489157</ele>
        <time>2021-04-24T07:11:07.510Z</time>
      </trkpt>
      <trkpt lat="45.84017" lon="4.78996">
        <ele>588.965523</ele>
        <time>2021-04-24T07:11:10.494Z</time>
      </trkpt>
      <trkpt lat="45.84017" lon="4.78982">
        <ele>589.436734</ele>
        <time>2021-04-24T07:11:13.497Z</time>
      </trkpt>
      <trkpt lat="45.84024" lon="4.7897">
        <ele>589.913044</ele>
        <time>2021-04-24T07:11:16.489Z</time>
      </trkpt>
      <trkpt lat="45.84036" lon="4.78964">
        <ele>590.496658</ele>
        <time>2021-04-24T07:11:19.494Z</time>
      </trkpt>
      <trkpt lat="45.84049" lon="4.78967">
        <ele>591.112595</ele>
        <time>2021-04-24T07:11:22.511Z</time>
      </trkpt>
      <trkpt lat="45.84061" lon="4.78972">
        <ele>591.699912</ele>
        <time>2021-04-24T07:11:25.510Z</time>
      </trkpt>
      <trkpt lat="45.84073" lon="4.78976">
        <ele>592.273444</ele>
        <time>2021-04-24T07:11:28.513Z</time>
      </trkpt>
      <trkpt lat="45.84086" lon="4.78979">
        <ele>592.84595</ele>
        <time>2021-04-24T07:11:31.506Z</time>
      </trkpt>
      <trkpt lat="45.84098" lon="4.78979">
        <ele>593.421088</ele>
        <time>2021-04-24T07:11:34.500Z</time>
      </trkpt>
      <trkpt lat="45.8411" lon="4.78977">
        <ele>593.977016</ele>
        <time>2021-04-24T07:11:37.513Z</time>
      </trkpt>
      <trkpt lat="45.84122" lon="4.78974">
        <ele>594.753783</ele>
        <time>2021-04-24T07:11:40.511Z</time>
      </trkpt>
      <trkpt lat="45.84134" lon="4.7897">
        <ele>595.586719</ele>
        <time>2021-04-24T07:11:43.503Z</time>
      </trkpt>
      <trkpt lat="45.84146" lon="4.78964">
        <ele>596.431952</ele>
        <time>2021-04-24T07:11:46.501Z</time>
      </trkpt>
      <trkpt lat="45.84159" lon="4.78959">
        <ele>597.279775</ele>
        <time>2021-04-24T07:11:49.495Z</time>
      </trkpt>
      <trkpt lat="45.84172" lon="4.78954">
        <ele>598.127571</ele>
        <time>2021-04-24T07:11:52.501Z</time>
      </trkpt>
      <trkpt lat="45.84184" lon="4.78949">
        <ele>598.989109</ele>
        <time>2021-04-24T07:11:55.514Z</time>
      </trkpt>
      <trkpt lat="45.84193" lon="4.78944">
        <ele>599.582334</ele>
        <time>2021-04-24T07:11:57.510Z</time>
      </trkpt>
      <trkpt lat="45.84204" lon="4.78934">
        <ele>600.428679</ele>
        <time>2021-04-24T07:12:00.493Z</time>
      </trkpt>
      <trkpt lat="45.84212" lon="4.78918">
        <ele>601.305102</ele>
        <time>2021-04-24T07:12:03.500Z</time>
      </trkpt>
      <trkpt lat="45.84213" lon="4.78903">
        <ele>601.988223</ele>
        <time>2021-04-24T07:12:05.509Z</time>
      </trkpt>
      <trkpt lat="45.84214" lon="4.7889">
        <ele>602.5822</ele>
        <time>2021-04-24T07:12:07.510Z</time>
      </trkpt>
      <trkpt lat="45.84212" lon="4.78872">
        <ele>603.428637</ele>
        <time>2021-04-24T07:12:10.509Z</time>
      </trkpt>
      <trkpt lat="45.8421" lon="4.78859">
        <ele>604.022335</ele>
        <time>2021-04-24T07:12:12.518Z</time>
      </trkpt>
      <trkpt lat="45.84207" lon="4.78841">
        <ele>604.855312</ele>
        <time>2021-04-24T07:12:15.559Z</time>
      </trkpt>
      <trkpt lat="45.84206" lon="4.78822">
        <ele>605.588632</ele>
        <time>2021-04-24T07:12:18.506Z</time>
      </trkpt>
      <trkpt lat="45.84207" lon="4.78809">
        <ele>605.448829</ele>
        <time>2021-04-24T07:12:20.504Z</time>
      </trkpt>
      <trkpt lat="45.84208" lon="4.78795">
        <ele>605.305786</ele>
        <time>2021-04-24T07:12:22.523Z</time>
      </trkpt>
      <trkpt lat="45.8421" lon="4.78781">
        <ele>605.155755</ele>
        <time>2021-04-24T07:12:24.504Z</time>
      </trkpt>
      <trkpt lat="45.84211" lon="4.78765">
        <ele>604.994315</ele>
        <time>2021-04-24T07:12:26.505Z</time>
      </trkpt>
      <trkpt lat="45.84213" lon="4.7875">
        <ele>604.829579</ele>
        <time>2021-04-24T07:12:28.514Z</time>
      </trkpt>
      <trkpt lat="45.84216" lon="4.78734">
        <ele>604.656991</ele>
        <time>2021-04-24T07:12:30.507Z</time>
      </trkpt>
      <trkpt lat="45.84218" lon="4.78717">
        <ele>604.486993</ele>
        <time>2021-04-24T07:12:32.507Z</time>
      </trkpt>
      <trkpt lat="45.8422" lon="4.78701">
        <ele>604.316995</ele>
        <time>2021-04-24T07:12:34.503Z</time>
      </trkpt>
      <trkpt lat="45.84222" lon="4.78685">
        <ele>604.1435</ele>
        <time>2021-04-24T07:12:36.510Z</time>
      </trkpt>
      <trkpt lat="45.84224" lon="4.78668">
        <ele>603.966812</ele>
        <time>2021-04-24T07:12:38.520Z</time>
      </trkpt>
      <trkpt lat="45.84226" lon="4.78654">
        <ele>603.812421</ele>
        <time>2021-04-24T07:12:40.495Z</time>
      </trkpt>
      <trkpt lat="45.84229" lon="4.78639">
        <ele>603.653385</ele>
        <time>2021-04-24T07:12:42.516Z</time>
      </trkpt>
      <trkpt lat="45.8423" lon="4.78621">
        <ele>603.466457</ele>
        <time>2021-04-24T07:12:44.505Z</time>
      </trkpt>
      <trkpt lat="45.84235" lon="4.78602">
        <ele>603.256384</ele>
        <time>2021-04-24T07:12:46.512Z</time>
      </trkpt>
      <trkpt lat="45.8424" lon="4.78583">
        <ele>603.041393</ele>
        <time>2021-04-24T07:12:48.500Z</time>
      </trkpt>
      <trkpt lat="45.84244" lon="4.78562">
        <ele>602.353878</ele>
        <time>2021-04-24T07:12:50.500Z</time>
      </trkpt>
      <trkpt lat="45.84247" lon="4.78546">
        <ele>601.430868</ele>
        <time>2021-04-24T07:12:52.496Z</time>
      </trkpt>
      <trkpt lat="45.84249" lon="4.78525">
        <ele>600.316731</ele>
        <time>2021-04-24T07:12:54.518Z</time>
      </trkpt>
      <trkpt lat="45.84249" lon="4.78504">
        <ele>599.150007</ele>
        <time>2021-04-24T07:12:56.517Z</time>
      </trkpt>
      <trkpt lat="45.84247" lon="4.7848">
        <ele>597.853297</ele>
        <time>2021-04-24T07:12:58.508Z</time>
      </trkpt>
      <trkpt lat="45.84244" lon="4.78458">
        <ele>596.669012</ele>
        <time>2021-04-24T07:13:00.495Z</time>
      </trkpt>
      <trkpt lat="45.84237" lon="4.78441">
        <ele>595.614923</ele>
        <time>2021-04-24T07:13:02.512Z</time>
      </trkpt>
      <trkpt lat="45.84233" lon="4.78419">
        <ele>594.35682</ele>
        <time>2021-04-24T07:13:04.502Z</time>
      </trkpt>
      <trkpt lat="45.84229" lon="4.78405">
        <ele>593.568251</ele>
        <time>2021-04-24T07:13:05.511Z</time>
      </trkpt>
      <trkpt lat="45.84223" lon="4.78383">
        <ele>592.29778</ele>
        <time>2021-04-24T07:13:07.485Z</time>
      </trkpt>
      <trkpt lat="45.84218" lon="4.78372">
        <ele>591.587556</ele>
        <time>2021-04-24T07:13:08.505Z</time>
      </trkpt>
      <trkpt lat="45.84215" lon="4.78359">
        <ele>590.844054</ele>
        <time>2021-04-24T07:13:09.498Z</time>
      </trkpt>
      <trkpt lat="45.84211" lon="4.78346">
        <ele>590.058502</ele>
        <time>2021-04-24T07:13:10.498Z</time>
      </trkpt>
      <trkpt lat="45.8421" lon="4.78333">
        <ele>589.351204</ele>
        <time>2021-04-24T07:13:11.494Z</time>
      </trkpt>
      <trkpt lat="45.8421" lon="4.78318">
        <ele>589.076153</ele>
        <time>2021-04-24T07:13:12.500Z</time>
      </trkpt>
      <trkpt lat="45.84211" lon="4.78303">
        <ele>589.261606</ele>
        <time>2021-04-24T07:13:13.502Z</time>
      </trkpt>
      <trkpt lat="45.84216" lon="4.78292">
        <ele>589.417782</ele>
        <time>2021-04-24T07:13:14.494Z</time>
      </trkpt>
      <trkpt lat="45.84228" lon="4.78279">
        <ele>589.668303</ele>
        <time>2021-04-24T07:13:16.540Z</time>
      </trkpt>
      <trkpt lat="45.84241" lon="4.7827">
        <ele>589.911201</ele>
        <time>2021-04-24T07:13:18.502Z</time>
      </trkpt>
      <trkpt lat="45.84254" lon="4.78266">
        <ele>590.143512</ele>
        <time>2021-04-24T07:13:20.501Z</time>
      </trkpt>
      <trkpt lat="45.84266" lon="4.78263">
        <ele>590.348823</ele>
        <time>2021-04-24T07:13:22.543Z</time>
      </trkpt>
      <trkpt lat="45.84277" lon="4.78262">
        <ele>590.543925</ele>
        <time>2021-04-24T07:13:24.522Z</time>
      </trkpt>
      <trkpt lat="45.8429" lon="4.78256">
        <ele>590.781744</ele>
        <time>2021-04-24T07:13:27.509Z</time>
      </trkpt>
      <trkpt lat="45.84303" lon="4.7825">
        <ele>591.013015</ele>
        <time>2021-04-24T07:13:29.507Z</time>
      </trkpt>
      <trkpt lat="45.84314" lon="4.78247">
        <ele>591.210688</ele>
        <time>2021-04-24T07:13:31.489Z</time>
      </trkpt>
      <trkpt lat="45.84324" lon="4.78245">
        <ele>591.387125</ele>
        <time>2021-04-24T07:13:33.498Z</time>
      </trkpt>
      <trkpt lat="45.84338" lon="4.78241">
        <ele>591.631506</ele>
        <time>2021-04-24T07:13:36.492Z</time>
      </trkpt>
      <trkpt lat="45.84348" lon="4.78236">
        <ele>591.80739</ele>
        <time>2021-04-24T07:13:39.490Z</time>
      </trkpt>
      <trkpt lat="45.8436" lon="4.78236">
        <ele>592.006834</ele>
        <time>2021-04-24T07:13:42.504Z</time>
      </trkpt>
      <trkpt lat="45.84371" lon="4.78235">
        <ele>592.766501</ele>
        <time>2021-04-24T07:13:45.499Z</time>
      </trkpt>
      <trkpt lat="45.84382" lon="4.78236">
        <ele>593.795966</ele>
        <time>2021-04-24T07:13:48.512Z</time>
      </trkpt>
      <trkpt lat="45.84392" lon="4.78238">
        <ele>594.710097</ele>
        <time>2021-04-24T07:13:51.505Z</time>
      </trkpt>
      <trkpt lat="45.84402" lon="4.78241">
        <ele>595.649267</ele>
        <time>2021-04-24T07:13:54.510Z</time>
      </trkpt>
      <trkpt lat="45.84413" lon="4.78247">
        <ele>596.774938</ele>
        <time>2021-04-24T07:13:58.492Z</time>
      </trkpt>
      <trkpt lat="45.84424" lon="4.78251">
        <ele>597.788816</ele>
        <time>2021-04-24T07:14:01.492Z</time>
      </trkpt>
      <trkpt lat="45.84435" lon="4.78255">
        <ele>598.838956</ele>
        <time>2021-04-24T07:14:05.510Z</time>
      </trkpt>
      <trkpt lat="45.84446" lon="4.78256">
        <ele>599.860167</ele>
        <time>2021-04-24T07:14:09.501Z</time>
      </trkpt>
      <trkpt lat="45.84458" lon="4.7826">
        <ele>601.02097</ele>
        <time>2021-04-24T07:14:13.492Z</time>
      </trkpt>
      <trkpt lat="45.8447" lon="4.78261">
        <ele>602.131562</ele>
        <time>2021-04-24T07:14:16.497Z</time>
      </trkpt>
      <trkpt lat="45.84479" lon="4.78262">
        <ele>602.994954</ele>
        <time>2021-04-24T07:14:19.490Z</time>
      </trkpt>
      <trkpt lat="45.84488" lon="4.78262">
        <ele>603.828895</ele>
        <time>2021-04-24T07:14:22.508Z</time>
      </trkpt>
      <trkpt lat="45.84498" lon="4.78262">
        <ele>604.763591</ele>
        <time>2021-04-24T07:14:25.497Z</time>
      </trkpt>
      <trkpt lat="45.84511" lon="4.78262">
        <ele>605.892462</ele>
        <time>2021-04-24T07:14:29.500Z</time>
      </trkpt>
      <trkpt lat="45.8452" lon="4.78263">
        <ele>606.782191</ele>
        <time>2021-04-24T07:14:32.578Z</time>
      </trkpt>
      <trkpt lat="45.84532" lon="4.78266">
        <ele>607.852296</ele>
        <time>2021-04-24T07:14:36.501Z</time>
      </trkpt>
      <trkpt lat="45.84541" lon="4.78267">
        <ele>608.726675</ele>
        <time>2021-04-24T07:14:39.509Z</time>
      </trkpt>
      <trkpt lat="45.84552" lon="4.78267">
        <ele>609.150834</ele>
        <time>2021-04-24T07:14:42.498Z</time>
      </trkpt>
      <trkpt lat="45.84562" lon="4.78268">
        <ele>609.511752</ele>
        <time>2021-04-24T07:14:45.493Z</time>
      </trkpt>
      <trkpt lat="45.84571" lon="4.78268">
        <ele>609.867724</ele>
        <time>2021-04-24T07:14:48.508Z</time>
      </trkpt>
      <trkpt lat="45.84581" lon="4.78266">
        <ele>610.231714</ele>
        <time>2021-04-24T07:14:51.501Z</time>
      </trkpt>
      <trkpt lat="45.8459" lon="4.78264">
        <ele>610.589535</ele>
        <time>2021-04-24T07:14:54.516Z</time>
      </trkpt>
      <trkpt lat="45.846" lon="4.78261">
        <ele>610.956267</ele>
        <time>2021-04-24T07:14:57.504Z</time>
      </trkpt>
      <trkpt lat="45.84608" lon="4.78254">
        <ele>611.312938</ele>
        <time>2021-04-24T07:15:00.507Z</time>
      </trkpt>
      <trkpt lat="45.84615" lon="4.78245">
        <ele>611.679397</ele>
        <time>2021-04-24T07:15:03.497Z</time>
      </trkpt>
      <trkpt lat="45.84623" lon="4.78237">
        <ele>612.042076</ele>
        <time>2021-04-24T07:15:06.521Z</time>
      </trkpt>
      <trkpt lat="45.84628" lon="4.78225">
        <ele>612.423032</ele>
        <time>2021-04-24T07:15:09.503Z</time>
      </trkpt>
      <trkpt lat="45.84633" lon="4.78211">
        <ele>612.821835</ele>
        <time>2021-04-24T07:15:12.510Z</time>
      </trkpt>
      <trkpt lat="45.84637" lon="4.78199">
        <ele>613.184229</ele>
        <time>2021-04-24T07:15:15.502Z</time>
      </trkpt>
      <trkpt lat="45.84642" lon="4.78183">
        <ele>613.629622</ele>
        <time>2021-04-24T07:15:19.497Z</time>
      </trkpt>
      <trkpt lat="45.84645" lon="4.78171">
        <ele>613.987178</ele>
        <time>2021-04-24T07:15:22.498Z</time>
      </trkpt>
      <trkpt lat="45.84649" lon="4.78158">
        <ele>614.341155</ele>
        <time>2021-04-24T07:15:25.511Z</time>
      </trkpt>
      <trkpt lat="45.8465" lon="4.78144">
        <ele>614.716023</ele>
        <time>2021-04-24T07:15:28.509Z</time>
      </trkpt>
      <trkpt lat="45.84653" lon="4.78129">
        <ele>615.129807</ele>
        <time>2021-04-24T07:15:31.496Z</time>
      </trkpt>
      <trkpt lat="45.84656" lon="4.78115">
        <ele>615.519687</ele>
        <time>2021-04-24T07:15:34.504Z</time>
      </trkpt>
      <trkpt lat="45.84662" lon="4.781">
        <ele>615.746578</ele>
        <time>2021-04-24T07:15:37.516Z</time>
      </trkpt>
      <trkpt lat="45.84667" lon="4.78084">
        <ele>615.99302</ele>
        <time>2021-04-24T07:15:40.515Z</time>
      </trkpt>
      <trkpt lat="45.84671" lon="4.78066">
        <ele>616.244276</ele>
        <time>2021-04-24T07:15:43.500Z</time>
      </trkpt>
      <trkpt lat="45.84674" lon="4.7805">
        <ele>616.474876</ele>
        <time>2021-04-24T07:15:46.517Z</time>
      </trkpt>
      <trkpt lat="45.84676" lon="4.78037">
        <ele>616.653009</ele>
        <time>2021-04-24T07:15:49.507Z</time>
      </trkpt>
      <trkpt lat="45.84679" lon="4.78022">
        <ele>616.866155</ele>
        <time>2021-04-24T07:15:53.503Z</time>
      </trkpt>
      <trkpt lat="45.8468" lon="4.78008">
        <ele>617.048844</ele>
        <time>2021-04-24T07:15:56.502Z</time>
      </trkpt>
      <trkpt lat="45.84679" lon="4.77993">
        <ele>617.255966</ele>
        <time>2021-04-24T07:15:59.501Z</time>
      </trkpt>
      <trkpt lat="45.84686" lon="4.77975">
        <ele>617.538599</ele>
        <time>2021-04-24T07:16:02.501Z</time>
      </trkpt>
      <trkpt lat="45.84691" lon="4.77962">
        <ele>617.739433</ele>
        <time>2021-04-24T07:16:04.542Z</time>
      </trkpt>
      <trkpt lat="45.84696" lon="4.77948">
        <ele>617.956846</ele>
        <time>2021-04-24T07:16:06.501Z</time>
      </trkpt>
      <trkpt lat="45.84703" lon="4.77931">
        <ele>618.21427</ele>
        <time>2021-04-24T07:16:08.498Z</time>
      </trkpt>
      <trkpt lat="45.84712" lon="4.77913">
        <ele>618.512041</ele>
        <time>2021-04-24T07:16:10.513Z</time>
      </trkpt>
      <trkpt lat="45.84721" lon="4.77896">
        <ele>618.805781</ele>
        <time>2021-04-24T07:16:12.499Z</time>
      </trkpt>
      <trkpt lat="45.8473" lon="4.77878">
        <ele>618.89431</ele>
        <time>2021-04-24T07:16:14.499Z</time>
      </trkpt>
      <trkpt lat="45.84737" lon="4.77859">
        <ele>618.449161</ele>
        <time>2021-04-24T07:16:16.546Z</time>
      </trkpt>
      <trkpt lat="45.84735" lon="4.7784">
        <ele>618.032706</ele>
        <time>2021-04-24T07:16:18.485Z</time>
      </trkpt>
      <trkpt lat="45.84724" lon="4.77826">
        <ele>617.61039</ele>
        <time>2021-04-24T07:16:20.495Z</time>
      </trkpt>
      <trkpt lat="45.84711" lon="4.77828">
        <ele>617.201938</ele>
        <time>2021-04-24T07:16:22.499Z</time>
      </trkpt>
      <trkpt lat="45.84701" lon="4.77841">
        <ele>616.781415</ele>
        <time>2021-04-24T07:16:24.496Z</time>
      </trkpt>
      <trkpt lat="45.84695" lon="4.77861">
        <ele>616.327124</ele>
        <time>2021-04-24T07:16:26.519Z</time>
      </trkpt>
      <trkpt lat="45.84686" lon="4.77882">
        <ele>615.81695</ele>
        <time>2021-04-24T07:16:28.505Z</time>
      </trkpt>
      <trkpt lat="45.84677" lon="4.77902">
        <ele>615.30702</ele>
        <time>2021-04-24T07:16:30.506Z</time>
      </trkpt>
      <trkpt lat="45.84665" lon="4.77918">
        <ele>614.810834</ele>
        <time>2021-04-24T07:16:32.501Z</time>
      </trkpt>
      <trkpt lat="45.84653" lon="4.77921">
        <ele>614.437274</ele>
        <time>2021-04-24T07:16:34.498Z</time>
      </trkpt>
      <trkpt lat="45.84644" lon="4.77908">
        <ele>614.044551</ele>
        <time>2021-04-24T07:16:36.504Z</time>
      </trkpt>
      <trkpt lat="45.84644" lon="4.77888">
        <ele>613.637568</ele>
        <time>2021-04-24T07:16:38.541Z</time>
      </trkpt>
      <trkpt lat="45.84653" lon="4.77873">
        <ele>612.800431</ele>
        <time>2021-04-24T07:16:40.508Z</time>
      </trkpt>
      <trkpt lat="45.84665" lon="4.77862">
        <ele>611.847396</ele>
        <time>2021-04-24T07:16:42.503Z</time>
      </trkpt>
      <trkpt lat="45.84676" lon="4.77845">
        <ele>610.76452</ele>
        <time>2021-04-24T07:16:44.525Z</time>
      </trkpt>
      <trkpt lat="45.84686" lon="4.77826">
        <ele>609.636232</ele>
        <time>2021-04-24T07:16:46.505Z</time>
      </trkpt>
      <trkpt lat="45.84694" lon="4.77804">
        <ele>608.45097</ele>
        <time>2021-04-24T07:16:48.507Z</time>
      </trkpt>
      <trkpt lat="45.84698" lon="4.77791">
        <ele>607.810154</ele>
        <time>2021-04-24T07:16:49.504Z</time>
      </trkpt>
      <trkpt lat="45.84702" lon="4.77778">
        <ele>607.13218</ele>
        <time>2021-04-24T07:16:50.556Z</time>
      </trkpt>
      <trkpt lat="45.84706" lon="4.77765">
        <ele>606.457068</ele>
        <time>2021-04-24T07:16:51.501Z</time>
      </trkpt>
      <trkpt lat="45.8471" lon="4.77752">
        <ele>605.771998</ele>
        <time>2021-04-24T07:16:52.501Z</time>
      </trkpt>
      <trkpt lat="45.84715" lon="4.77739">
        <ele>605.062686</ele>
        <time>2021-04-24T07:16:53.505Z</time>
      </trkpt>
      <trkpt lat="45.8472" lon="4.77724">
        <ele>604.300357</ele>
        <time>2021-04-24T07:16:54.506Z</time>
      </trkpt>
      <trkpt lat="45.84724" lon="4.7771">
        <ele>603.555296</ele>
        <time>2021-04-24T07:16:55.503Z</time>
      </trkpt>
      <trkpt lat="45.84728" lon="4.77695">
        <ele>602.8037</ele>
        <time>2021-04-24T07:16:56.521Z</time>
      </trkpt>
      <trkpt lat="45.84728" lon="4.7768">
        <ele>602.10421</ele>
        <time>2021-04-24T07:16:57.511Z</time>
      </trkpt>
      <trkpt lat="45.84727" lon="4.77664">
        <ele>601.360728</ele>
        <time>2021-04-24T07:16:58.508Z</time>
      </trkpt>
      <trkpt lat="45.84723" lon="4.77649">
        <ele>600.575223</ele>
        <time>2021-04-24T07:16:59.506Z</time>
      </trkpt>
      <trkpt lat="45.84718" lon="4.77635">
        <ele>599.777751</ele>
        <time>2021-04-24T07:17:00.518Z</time>
      </trkpt>
      <trkpt lat="45.84713" lon="4.7762">
        <ele>598.971256</ele>
        <time>2021-04-24T07:17:01.506Z</time>
      </trkpt>
      <trkpt lat="45.84708" lon="4.77606">
        <ele>598.159807</ele>
        <time>2021-04-24T07:17:02.519Z</time>
      </trkpt>
      <trkpt lat="45.84703" lon="4.77592">
        <ele>597.377797</ele>
        <time>2021-04-24T07:17:03.501Z</time>
      </trkpt>
      <trkpt lat="45.84697" lon="4.7758">
        <ele>596.631156</ele>
        <time>2021-04-24T07:17:04.503Z</time>
      </trkpt>
      <trkpt lat="45.8469" lon="4.77569">
        <ele>595.917287</ele>
        <time>2021-04-24T07:17:05.494Z</time>
      </trkpt>
      <trkpt lat="45.84683" lon="4.77562">
        <ele>595.270535</ele>
        <time>2021-04-24T07:17:06.508Z</time>
      </trkpt>
      <trkpt lat="45.84666" lon="4.77558">
        <ele>594.036689</ele>
        <time>2021-04-24T07:17:08.500Z</time>
      </trkpt>
      <trkpt lat="45.84648" lon="4.77557">
        <ele>592.759535</ele>
        <time>2021-04-24T07:17:10.506Z</time>
      </trkpt>
      <trkpt lat="45.8463" lon="4.77559">
        <ele>591.493786</ele>
        <time>2021-04-24T07:17:12.536Z</time>
      </trkpt>
      <trkpt lat="45.84621" lon="4.77562">
        <ele>590.827386</ele>
        <time>2021-04-24T07:17:13.519Z</time>
      </trkpt>
      <trkpt lat="45.84604" lon="4.77568">
        <ele>589.5301</ele>
        <time>2021-04-24T07:17:15.499Z</time>
      </trkpt>
      <trkpt lat="45.84595" lon="4.77572">
        <ele>588.877939</ele>
        <time>2021-04-24T07:17:16.517Z</time>
      </trkpt>
      <trkpt lat="45.84585" lon="4.77576">
        <ele>588.196943</ele>
        <time>2021-04-24T07:17:17.522Z</time>
      </trkpt>
      <trkpt lat="45.84576" lon="4.7758">
        <ele>587.578825</ele>
        <time>2021-04-24T07:17:18.518Z</time>
      </trkpt>
      <trkpt lat="45.84567" lon="4.77585">
        <ele>586.984538</ele>
        <time>2021-04-24T07:17:19.507Z</time>
      </trkpt>
      <trkpt lat="45.84558" lon="4.77589">
        <ele>586.404855</ele>
        <time>2021-04-24T07:17:20.512Z</time>
      </trkpt>
      <trkpt lat="45.84549" lon="4.77594">
        <ele>585.800325</ele>
        <time>2021-04-24T07:17:21.504Z</time>
      </trkpt>
      <trkpt lat="45.84536" lon="4.77602">
        <ele>584.893368</ele>
        <time>2021-04-24T07:17:23.507Z</time>
      </trkpt>
      <trkpt lat="45.84527" lon="4.77628">
        <ele>583.65937</ele>
        <time>2021-04-24T07:17:26.504Z</time>
      </trkpt>
      <trkpt lat="45.84525" lon="4.77647">
        <ele>582.83132</ele>
        <time>2021-04-24T07:17:27.501Z</time>
      </trkpt>
      <trkpt lat="45.84525" lon="4.77662">
        <ele>582.199726</ele>
        <time>2021-04-24T07:17:28.567Z</time>
      </trkpt>
      <trkpt lat="45.84525" lon="4.77678">
        <ele>581.507101</ele>
        <time>2021-04-24T07:17:29.499Z</time>
      </trkpt>
      <trkpt lat="45.84525" lon="4.77692">
        <ele>580.893002</ele>
        <time>2021-04-24T07:17:30.500Z</time>
      </trkpt>
      <trkpt lat="45.84522" lon="4.77707">
        <ele>580.209477</ele>
        <time>2021-04-24T07:17:31.508Z</time>
      </trkpt>
      <trkpt lat="45.84519" lon="4.77721">
        <ele>579.57058</ele>
        <time>2021-04-24T07:17:32.502Z</time>
      </trkpt>
      <trkpt lat="45.84513" lon="4.77736">
        <ele>578.825958</ele>
        <time>2021-04-24T07:17:33.497Z</time>
      </trkpt>
      <trkpt lat="45.84506" lon="4.77749">
        <ele>578.166166</ele>
        <time>2021-04-24T07:17:34.497Z</time>
      </trkpt>
      <trkpt lat="45.84499" lon="4.77759">
        <ele>577.529562</ele>
        <time>2021-04-24T07:17:35.501Z</time>
      </trkpt>
      <trkpt lat="45.8449" lon="4.77766">
        <ele>576.898065</ele>
        <time>2021-04-24T07:17:36.517Z</time>
      </trkpt>
      <trkpt lat="45.84481" lon="4.77773">
        <ele>576.235111</ele>
        <time>2021-04-24T07:17:37.521Z</time>
      </trkpt>
      <trkpt lat="45.84472" lon="4.77781">
        <ele>575.54693</ele>
        <time>2021-04-24T07:17:38.512Z</time>
      </trkpt>
      <trkpt lat="45.84463" lon="4.77789">
        <ele>574.89712</ele>
        <time>2021-04-24T07:17:39.509Z</time>
      </trkpt>
      <trkpt lat="45.84454" lon="4.77796">
        <ele>574.272509</ele>
        <time>2021-04-24T07:17:40.501Z</time>
      </trkpt>
      <trkpt lat="45.84445" lon="4.77803">
        <ele>573.594212</ele>
        <time>2021-04-24T07:17:41.507Z</time>
      </trkpt>
      <trkpt lat="45.84436" lon="4.77811">
        <ele>572.929055</ele>
        <time>2021-04-24T07:17:42.508Z</time>
      </trkpt>
      <trkpt lat="45.84427" lon="4.77818">
        <ele>572.263897</ele>
        <time>2021-04-24T07:17:43.502Z</time>
      </trkpt>
      <trkpt lat="45.84419" lon="4.77825">
        <ele>571.663378</ele>
        <time>2021-04-24T07:17:44.506Z</time>
      </trkpt>
      <trkpt lat="45.8441" lon="4.77833">
        <ele>571.02447</ele>
        <time>2021-04-24T07:17:45.504Z</time>
      </trkpt>
      <trkpt lat="45.84402" lon="4.77841">
        <ele>570.420152</ele>
        <time>2021-04-24T07:17:46.510Z</time>
      </trkpt>
      <trkpt lat="45.84395" lon="4.77851">
        <ele>569.784382</ele>
        <time>2021-04-24T07:17:47.516Z</time>
      </trkpt>
      <trkpt lat="45.84387" lon="4.77859">
        <ele>569.191548</ele>
        <time>2021-04-24T07:17:48.515Z</time>
      </trkpt>
      <trkpt lat="45.8438" lon="4.77867">
        <ele>568.613604</ele>
        <time>2021-04-24T07:17:49.510Z</time>
      </trkpt>
      <trkpt lat="45.84365" lon="4.7788">
        <ele>567.516871</ele>
        <time>2021-04-24T07:17:51.500Z</time>
      </trkpt>
      <trkpt lat="45.8435" lon="4.77878">
        <ele>566.556018</ele>
        <time>2021-04-24T07:17:53.515Z</time>
      </trkpt>
      <trkpt lat="45.84342" lon="4.77859">
        <ele>565.683104</ele>
        <time>2021-04-24T07:17:55.500Z</time>
      </trkpt>
      <trkpt lat="45.84343" lon="4.77838">
        <ele>564.994684</ele>
        <time>2021-04-24T07:17:57.513Z</time>
      </trkpt>
      <trkpt lat="45.84353" lon="4.77822">
        <ele>564.311839</ele>
        <time>2021-04-24T07:17:59.534Z</time>
      </trkpt>
      <trkpt lat="45.84361" lon="4.77815">
        <ele>563.895713</ele>
        <time>2021-04-24T07:18:00.512Z</time>
      </trkpt>
      <trkpt lat="45.84375" lon="4.77802">
        <ele>563.142776</ele>
        <time>2021-04-24T07:18:02.518Z</time>
      </trkpt>
      <trkpt lat="45.84387" lon="4.77786">
        <ele>562.402363</ele>
        <time>2021-04-24T07:18:04.492Z</time>
      </trkpt>
      <trkpt lat="45.84393" lon="4.77765">
        <ele>561.687031</ele>
        <time>2021-04-24T07:18:06.506Z</time>
      </trkpt>
      <trkpt lat="45.84391" lon="4.77741">
        <ele>560.898426</ele>
        <time>2021-04-24T07:18:08.507Z</time>
      </trkpt>
      <trkpt lat="45.8438" lon="4.77722">
        <ele>560.128067</ele>
        <time>2021-04-24T07:18:10.513Z</time>
      </trkpt>
      <trkpt lat="45.84367" lon="4.77708">
        <ele>559.3735</ele>
        <time>2021-04-24T07:18:12.512Z</time>
      </trkpt>
      <trkpt lat="45.84352" lon="4.77696">
        <ele>558.586884</ele>
        <time>2021-04-24T07:18:14.496Z</time>
      </trkpt>
      <trkpt lat="45.84344" lon="4.77689">
        <ele>558.15945</ele>
        <time>2021-04-24T07:18:15.513Z</time>
      </trkpt>
      <trkpt lat="45.84327" lon="4.77677">
        <ele>557.173484</ele>
        <time>2021-04-24T07:18:17.545Z</time>
      </trkpt>
      <trkpt lat="45.84319" lon="4.77674">
        <ele>556.607371</ele>
        <time>2021-04-24T07:18:18.517Z</time>
      </trkpt>
      <trkpt lat="45.84309" lon="4.77671">
        <ele>556.015461</ele>
        <time>2021-04-24T07:18:19.492Z</time>
      </trkpt>
      <trkpt lat="45.843" lon="4.77666">
        <ele>555.446762</ele>
        <time>2021-04-24T07:18:20.486Z</time>
      </trkpt>
      <trkpt lat="45.8429" lon="4.77667">
        <ele>554.788996</ele>
        <time>2021-04-24T07:18:21.503Z</time>
      </trkpt>
      <trkpt lat="45.8428" lon="4.77667">
        <ele>554.174179</ele>
        <time>2021-04-24T07:18:22.498Z</time>
      </trkpt>
      <trkpt lat="45.84269" lon="4.77668">
        <ele>553.540346</ele>
        <time>2021-04-24T07:18:23.534Z</time>
      </trkpt>
      <trkpt lat="45.84259" lon="4.77669">
        <ele>552.917026</ele>
        <time>2021-04-24T07:18:24.508Z</time>
      </trkpt>
      <trkpt lat="45.84249" lon="4.77672">
        <ele>552.280241</ele>
        <time>2021-04-24T07:18:25.516Z</time>
      </trkpt>
      <trkpt lat="45.84239" lon="4.77673">
        <ele>551.680549</ele>
        <time>2021-04-24T07:18:26.510Z</time>
      </trkpt>
      <trkpt lat="45.84229" lon="4.77673">
        <ele>551.059705</ele>
        <time>2021-04-24T07:18:27.511Z</time>
      </trkpt>
      <trkpt lat="45.8422" lon="4.77671">
        <ele>550.464597</ele>
        <time>2021-04-24T07:18:28.494Z</time>
      </trkpt>
      <trkpt lat="45.84203" lon="4.77663">
        <ele>549.355026</ele>
        <time>2021-04-24T07:18:30.507Z</time>
      </trkpt>
      <trkpt lat="45.84188" lon="4.77652">
        <ele>548.327072</ele>
        <time>2021-04-24T07:18:32.512Z</time>
      </trkpt>
      <trkpt lat="45.84172" lon="4.7765">
        <ele>547.38004</ele>
        <time>2021-04-24T07:18:34.518Z</time>
      </trkpt>
      <trkpt lat="45.8416" lon="4.77659">
        <ele>546.6323</ele>
        <time>2021-04-24T07:18:36.508Z</time>
      </trkpt>
      <trkpt lat="45.84157" lon="4.77679">
        <ele>546.290492</ele>
        <time>2021-04-24T07:18:38.503Z</time>
      </trkpt>
      <trkpt lat="45.8416" lon="4.77696">
        <ele>545.984655</ele>
        <time>2021-04-24T07:18:40.517Z</time>
      </trkpt>
      <trkpt lat="45.84175" lon="4.77705">
        <ele>545.594579</ele>
        <time>2021-04-24T07:18:42.510Z</time>
      </trkpt>
      <trkpt lat="45.84189" lon="4.77709">
        <ele>545.238016</ele>
        <time>2021-04-24T07:18:44.508Z</time>
      </trkpt>
      <trkpt lat="45.84202" lon="4.77714">
        <ele>544.909357</ele>
        <time>2021-04-24T07:18:46.518Z</time>
      </trkpt>
      <trkpt lat="45.84217" lon="4.77722">
        <ele>544.525673</ele>
        <time>2021-04-24T07:18:48.506Z</time>
      </trkpt>
      <trkpt lat="45.84227" lon="4.77742">
        <ele>544.122135</ele>
        <time>2021-04-24T07:18:50.539Z</time>
      </trkpt>
      <trkpt lat="45.8423" lon="4.77766">
        <ele>543.702237</ele>
        <time>2021-04-24T07:18:52.508Z</time>
      </trkpt>
      <trkpt lat="45.84229" lon="4.7778">
        <ele>543.467298</ele>
        <time>2021-04-24T07:18:53.514Z</time>
      </trkpt>
      <trkpt lat="45.8422" lon="4.778">
        <ele>543.059233</ele>
        <time>2021-04-24T07:18:55.509Z</time>
      </trkpt>
      <trkpt lat="45.84207" lon="4.77815">
        <ele>542.665016</ele>
        <time>2021-04-24T07:18:57.502Z</time>
      </trkpt>
      <trkpt lat="45.84195" lon="4.77828">
        <ele>542.223971</ele>
        <time>2021-04-24T07:18:59.500Z</time>
      </trkpt>
      <trkpt lat="45.84183" lon="4.77846">
        <ele>541.123292</ele>
        <time>2021-04-24T07:19:01.501Z</time>
      </trkpt>
      <trkpt lat="45.84171" lon="4.77865">
        <ele>539.989389</ele>
        <time>2021-04-24T07:19:03.499Z</time>
      </trkpt>
      <trkpt lat="45.84159" lon="4.77883">
        <ele>538.868642</ele>
        <time>2021-04-24T07:19:05.501Z</time>
      </trkpt>
      <trkpt lat="45.84153" lon="4.77892">
        <ele>538.2693</ele>
        <time>2021-04-24T07:19:06.507Z</time>
      </trkpt>
      <trkpt lat="45.84143" lon="4.77912">
        <ele>537.203691</ele>
        <time>2021-04-24T07:19:08.503Z</time>
      </trkpt>
      <trkpt lat="45.84133" lon="4.77926">
        <ele>536.2851</ele>
        <time>2021-04-24T07:19:10.499Z</time>
      </trkpt>
      <trkpt lat="45.84121" lon="4.77937">
        <ele>535.374878</ele>
        <time>2021-04-24T07:19:12.515Z</time>
      </trkpt>
      <trkpt lat="45.84108" lon="4.77936">
        <ele>534.524882</ele>
        <time>2021-04-24T07:19:14.503Z</time>
      </trkpt>
      <trkpt lat="45.84099" lon="4.77921">
        <ele>533.644737</ele>
        <time>2021-04-24T07:19:16.511Z</time>
      </trkpt>
      <trkpt lat="45.84097" lon="4.779">
        <ele>532.707856</ele>
        <time>2021-04-24T07:19:18.502Z</time>
      </trkpt>
      <trkpt lat="45.84105" lon="4.77879">
        <ele>531.661139</ele>
        <time>2021-04-24T07:19:20.503Z</time>
      </trkpt>
      <trkpt lat="45.84113" lon="4.7786">
        <ele>530.664148</ele>
        <time>2021-04-24T07:19:22.519Z</time>
      </trkpt>
      <trkpt lat="45.8412" lon="4.7784">
        <ele>529.515499</ele>
        <time>2021-04-24T07:19:24.525Z</time>
      </trkpt>
      <trkpt lat="45.84125" lon="4.77818">
        <ele>528.361973</ele>
        <time>2021-04-24T07:19:26.509Z</time>
      </trkpt>
      <trkpt lat="45.84126" lon="4.77793">
        <ele>527.117966</ele>
        <time>2021-04-24T07:19:28.511Z</time>
      </trkpt>
      <trkpt lat="45.84125" lon="4.77768">
        <ele>525.887108</ele>
        <time>2021-04-24T07:19:30.506Z</time>
      </trkpt>
      <trkpt lat="45.84123" lon="4.77756">
        <ele>525.243066</ele>
        <time>2021-04-24T07:19:31.515Z</time>
      </trkpt>
      <trkpt lat="45.84118" lon="4.77744">
        <ele>524.590826</ele>
        <time>2021-04-24T07:19:32.506Z</time>
      </trkpt>
      <trkpt lat="45.84106" lon="4.77746">
        <ele>523.697193</ele>
        <time>2021-04-24T07:19:33.518Z</time>
      </trkpt>
      <trkpt lat="45.8409" lon="4.77749">
        <ele>522.573578</ele>
        <time>2021-04-24T07:19:35.548Z</time>
      </trkpt>
      <trkpt lat="45.84081" lon="4.77764">
        <ele>521.570673</ele>
        <time>2021-04-24T07:19:37.495Z</time>
      </trkpt>
      <trkpt lat="45.84075" lon="4.77788">
        <ele>520.277066</ele>
        <time>2021-04-24T07:19:39.517Z</time>
      </trkpt>
      <trkpt lat="45.84071" lon="4.77801">
        <ele>519.577064</ele>
        <time>2021-04-24T07:19:40.506Z</time>
      </trkpt>
      <trkpt lat="45.84068" lon="4.77815">
        <ele>518.823143</ele>
        <time>2021-04-24T07:19:41.537Z</time>
      </trkpt>
      <trkpt lat="45.84064" lon="4.77831">
        <ele>517.989015</ele>
        <time>2021-04-24T07:19:42.502Z</time>
      </trkpt>
      <trkpt lat="45.84061" lon="4.77845">
        <ele>517.107172</ele>
        <time>2021-04-24T07:19:43.508Z</time>
      </trkpt>
      <trkpt lat="45.84058" lon="4.77857">
        <ele>516.266358</ele>
        <time>2021-04-24T07:19:44.515Z</time>
      </trkpt>
      <trkpt lat="45.84054" lon="4.77871">
        <ele>515.33698</ele>
        <time>2021-04-24T07:19:45.504Z</time>
      </trkpt>
      <trkpt lat="45.84051" lon="4.77884">
        <ele>514.461847</ele>
        <time>2021-04-24T07:19:46.520Z</time>
      </trkpt>
      <trkpt lat="45.84042" lon="4.77901">
        <ele>513.095786</ele>
        <time>2021-04-24T07:19:48.509Z</time>
      </trkpt>
      <trkpt lat="45.84028" lon="4.77905">
        <ele>511.849163</ele>
        <time>2021-04-24T07:19:50.512Z</time>
      </trkpt>
      <trkpt lat="45.84016" lon="4.77894">
        <ele>510.541998</ele>
        <time>2021-04-24T07:19:52.512Z</time>
      </trkpt>
      <trkpt lat="45.84011" lon="4.77877">
        <ele>509.320115</ele>
        <time>2021-04-24T07:19:54.506Z</time>
      </trkpt>
      <trkpt lat="45.84015" lon="4.77858">
        <ele>508.056795</ele>
        <time>2021-04-24T07:19:56.502Z</time>
      </trkpt>
      <trkpt lat="45.84024" lon="4.77841">
        <ele>506.699571</ele>
        <time>2021-04-24T07:19:58.504Z</time>
      </trkpt>
      <trkpt lat="45.8403" lon="4.77821">
        <ele>505.34684</ele>
        <time>2021-04-24T07:20:00.495Z</time>
      </trkpt>
      <trkpt lat="45.84026" lon="4.77801">
        <ele>504.021029</ele>
        <time>2021-04-24T07:20:02.512Z</time>
      </trkpt>
      <trkpt lat="45.84011" lon="4.77794">
        <ele>502.608231</ele>
        <time>2021-04-24T07:20:04.497Z</time>
      </trkpt>
      <trkpt lat="45.83995" lon="4.77794">
        <ele>501.216151</ele>
        <time>2021-04-24T07:20:06.507Z</time>
      </trkpt>
      <trkpt lat="45.83978" lon="4.77793">
        <ele>499.94537</ele>
        <time>2021-04-24T07:20:08.506Z</time>
      </trkpt>
      <trkpt lat="45.8396" lon="4.77794">
        <ele>498.622663</ele>
        <time>2021-04-24T07:20:10.542Z</time>
      </trkpt>
      <trkpt lat="45.83942" lon="4.77795">
        <ele>497.261358</ele>
        <time>2021-04-24T07:20:12.509Z</time>
      </trkpt>
      <trkpt lat="45.83932" lon="4.77796">
        <ele>496.543538</ele>
        <time>2021-04-24T07:20:13.505Z</time>
      </trkpt>
      <trkpt lat="45.83921" lon="4.77797">
        <ele>495.722161</ele>
        <time>2021-04-24T07:20:14.500Z</time>
      </trkpt>
      <trkpt lat="45.8391" lon="4.77797">
        <ele>494.938962</ele>
        <time>2021-04-24T07:20:15.504Z</time>
      </trkpt>
      <trkpt lat="45.839" lon="4.77798">
        <ele>494.15475</ele>
        <time>2021-04-24T07:20:16.511Z</time>
      </trkpt>
      <trkpt lat="45.8389" lon="4.77799">
        <ele>493.427639</ele>
        <time>2021-04-24T07:20:17.509Z</time>
      </trkpt>
      <trkpt lat="45.8388" lon="4.77799">
        <ele>492.718389</ele>
        <time>2021-04-24T07:20:18.513Z</time>
      </trkpt>
      <trkpt lat="45.83871" lon="4.77798">
        <ele>492.030609</ele>
        <time>2021-04-24T07:20:19.505Z</time>
      </trkpt>
      <trkpt lat="45.83862" lon="4.77796">
        <ele>491.356959</ele>
        <time>2021-04-24T07:20:20.486Z</time>
      </trkpt>
      <trkpt lat="45.83846" lon="4.77789">
        <ele>490.082848</ele>
        <time>2021-04-24T07:20:22.558Z</time>
      </trkpt>
      <trkpt lat="45.83833" lon="4.77774">
        <ele>488.850558</ele>
        <time>2021-04-24T07:20:24.507Z</time>
      </trkpt>
      <trkpt lat="45.83826" lon="4.77765">
        <ele>488.167738</ele>
        <time>2021-04-24T07:20:25.516Z</time>
      </trkpt>
      <trkpt lat="45.83818" lon="4.77741">
        <ele>486.928563</ele>
        <time>2021-04-24T07:20:27.514Z</time>
      </trkpt>
      <trkpt lat="45.83817" lon="4.77725">
        <ele>486.180754</ele>
        <time>2021-04-24T07:20:28.513Z</time>
      </trkpt>
      <trkpt lat="45.83813" lon="4.77713">
        <ele>485.558861</ele>
        <time>2021-04-24T07:20:29.507Z</time>
      </trkpt>
      <trkpt lat="45.8381" lon="4.777">
        <ele>484.947043</ele>
        <time>2021-04-24T07:20:30.535Z</time>
      </trkpt>
      <trkpt lat="45.83807" lon="4.77688">
        <ele>484.324565</ele>
        <time>2021-04-24T07:20:31.512Z</time>
      </trkpt>
      <trkpt lat="45.83804" lon="4.77675">
        <ele>483.708215</ele>
        <time>2021-04-24T07:20:32.500Z</time>
      </trkpt>
      <trkpt lat="45.83802" lon="4.77661">
        <ele>483.046558</ele>
        <time>2021-04-24T07:20:33.504Z</time>
      </trkpt>
      <trkpt lat="45.838" lon="4.77648">
        <ele>482.416076</ele>
        <time>2021-04-24T07:20:34.565Z</time>
      </trkpt>
      <trkpt lat="45.83796" lon="4.77634">
        <ele>481.751974</ele>
        <time>2021-04-24T07:20:35.503Z</time>
      </trkpt>
      <trkpt lat="45.83792" lon="4.7762">
        <ele>481.048687</ele>
        <time>2021-04-24T07:20:36.507Z</time>
      </trkpt>
      <trkpt lat="45.83788" lon="4.77606">
        <ele>480.310287</ele>
        <time>2021-04-24T07:20:37.508Z</time>
      </trkpt>
      <trkpt lat="45.83783" lon="4.77592">
        <ele>479.576344</ele>
        <time>2021-04-24T07:20:38.504Z</time>
      </trkpt>
      <trkpt lat="45.83781" lon="4.77576">
        <ele>478.842077</ele>
        <time>2021-04-24T07:20:39.505Z</time>
      </trkpt>
      <trkpt lat="45.83779" lon="4.77562">
        <ele>478.196873</ele>
        <time>2021-04-24T07:20:40.525Z</time>
      </trkpt>
      <trkpt lat="45.83778" lon="4.77537">
        <ele>477.000774</ele>
        <time>2021-04-24T07:20:42.496Z</time>
      </trkpt>
      <trkpt lat="45.83776" lon="4.77515">
        <ele>476.026838</ele>
        <time>2021-04-24T07:20:44.502Z</time>
      </trkpt>
      <trkpt lat="45.83773" lon="4.77498">
        <ele>475.386134</ele>
        <time>2021-04-24T07:20:46.513Z</time>
      </trkpt>
      <trkpt lat="45.83767" lon="4.77487">
        <ele>474.887026</ele>
        <time>2021-04-24T07:20:48.507Z</time>
      </trkpt>
      <trkpt lat="45.83761" lon="4.77476">
        <ele>474.368812</ele>
        <time>2021-04-24T07:20:50.503Z</time>
      </trkpt>
      <trkpt lat="45.83756" lon="4.77463">
        <ele>473.818063</ele>
        <time>2021-04-24T07:20:52.526Z</time>
      </trkpt>
      <trkpt lat="45.83756" lon="4.77447">
        <ele>473.209776</ele>
        <time>2021-04-24T07:20:54.489Z</time>
      </trkpt>
      <trkpt lat="45.8376" lon="4.77427">
        <ele>472.432956</ele>
        <time>2021-04-24T07:20:56.491Z</time>
      </trkpt>
      <trkpt lat="45.83768" lon="4.77409">
        <ele>471.662121</ele>
        <time>2021-04-24T07:20:58.493Z</time>
      </trkpt>
      <trkpt lat="45.83779" lon="4.77394">
        <ele>470.863323</ele>
        <time>2021-04-24T07:21:00.491Z</time>
      </trkpt>
      <trkpt lat="45.8379" lon="4.77378">
        <ele>470.015675</ele>
        <time>2021-04-24T07:21:02.491Z</time>
      </trkpt>
      <trkpt lat="45.83802" lon="4.77366">
        <ele>469.247879</ele>
        <time>2021-04-24T07:21:04.493Z</time>
      </trkpt>
      <trkpt lat="45.83812" lon="4.77356">
        <ele>468.583508</ele>
        <time>2021-04-24T07:21:06.491Z</time>
      </trkpt>
      <trkpt lat="45.83818" lon="4.77341">
        <ele>467.954275</ele>
        <time>2021-04-24T07:21:08.489Z</time>
      </trkpt>
      <trkpt lat="45.83819" lon="4.77326">
        <ele>467.393301</ele>
        <time>2021-04-24T07:21:10.503Z</time>
      </trkpt>
      <trkpt lat="45.8381" lon="4.77313">
        <ele>466.73379</ele>
        <time>2021-04-24T07:21:12.490Z</time>
      </trkpt>
      <trkpt lat="45.83801" lon="4.77299">
        <ele>465.698726</ele>
        <time>2021-04-24T07:21:14.493Z</time>
      </trkpt>
      <trkpt lat="45.83794" lon="4.77283">
        <ele>464.672343</ele>
        <time>2021-04-24T07:21:16.491Z</time>
      </trkpt>
      <trkpt lat="45.83789" lon="4.77266">
        <ele>463.702232</ele>
        <time>2021-04-24T07:21:18.502Z</time>
      </trkpt>
      <trkpt lat="45.83783" lon="4.77251">
        <ele>462.744568</ele>
        <time>2021-04-24T07:21:20.517Z</time>
      </trkpt>
      <trkpt lat="45.83776" lon="4.77235">
        <ele>461.73272</ele>
        <time>2021-04-24T07:21:22.507Z</time>
      </trkpt>
      <trkpt lat="45.83772" lon="4.77216">
        <ele>460.665193</ele>
        <time>2021-04-24T07:21:24.509Z</time>
      </trkpt>
      <trkpt lat="45.83771" lon="4.77201">
        <ele>459.863498</ele>
        <time>2021-04-24T07:21:26.500Z</time>
      </trkpt>
      <trkpt lat="45.83773" lon="4.77187">
        <ele>459.099752</ele>
        <time>2021-04-24T07:21:29.499Z</time>
      </trkpt>
      <trkpt lat="45.83776" lon="4.77172">
        <ele>458.268319</ele>
        <time>2021-04-24T07:21:33.512Z</time>
      </trkpt>
      <trkpt lat="45.83767" lon="4.77165">
        <ele>457.481566</ele>
        <time>2021-04-24T07:21:36.494Z</time>
      </trkpt>
      <trkpt lat="45.83755" lon="4.77161">
        <ele>456.527222</ele>
        <time>2021-04-24T07:21:39.558Z</time>
      </trkpt>
      <trkpt lat="45.83746" lon="4.77156">
        <ele>455.786486</ele>
        <time>2021-04-24T07:21:41.518Z</time>
      </trkpt>
      <trkpt lat="45.83736" lon="4.77152">
        <ele>455.00492</ele>
        <time>2021-04-24T07:21:43.505Z</time>
      </trkpt>
      <trkpt lat="45.83724" lon="4.77149">
        <ele>454.066208</ele>
        <time>2021-04-24T07:21:45.536Z</time>
      </trkpt>
      <trkpt lat="45.8371" lon="4.77145">
        <ele>452.968192</ele>
        <time>2021-04-24T07:21:47.505Z</time>
      </trkpt>
      <trkpt lat="45.83695" lon="4.77144">
        <ele>451.951979</ele>
        <time>2021-04-24T07:21:49.505Z</time>
      </trkpt>
      <trkpt lat="45.83679" lon="4.77143">
        <ele>450.926378</ele>
        <time>2021-04-24T07:21:51.511Z</time>
      </trkpt>
      <trkpt lat="45.83662" lon="4.77143">
        <ele>449.862434</ele>
        <time>2021-04-24T07:21:53.489Z</time>
      </trkpt>
      <trkpt lat="45.83645" lon="4.77145">
        <ele>448.76294</ele>
        <time>2021-04-24T07:21:55.515Z</time>
      </trkpt>
      <trkpt lat="45.83627" lon="4.77148">
        <ele>447.593958</ele>
        <time>2021-04-24T07:21:57.494Z</time>
      </trkpt>
      <trkpt lat="45.83618" lon="4.77148">
        <ele>447.00058</ele>
        <time>2021-04-24T07:21:58.491Z</time>
      </trkpt>
      <trkpt lat="45.83603" lon="4.77147">
        <ele>446.045745</ele>
        <time>2021-04-24T07:22:00.507Z</time>
      </trkpt>
      <trkpt lat="45.83591" lon="4.7715">
        <ele>445.272083</ele>
        <time>2021-04-24T07:22:02.509Z</time>
      </trkpt>
      <trkpt lat="45.83578" lon="4.77149">
        <ele>444.419501</ele>
        <time>2021-04-24T07:22:04.503Z</time>
      </trkpt>
      <trkpt lat="45.83565" lon="4.77144">
        <ele>443.566565</ele>
        <time>2021-04-24T07:22:06.512Z</time>
      </trkpt>
      <trkpt lat="45.83551" lon="4.77142">
        <ele>442.677665</ele>
        <time>2021-04-24T07:22:08.512Z</time>
      </trkpt>
      <trkpt lat="45.83536" lon="4.77142">
        <ele>441.710409</ele>
        <time>2021-04-24T07:22:10.517Z</time>
      </trkpt>
      <trkpt lat="45.83517" lon="4.77148">
        <ele>440.583093</ele>
        <time>2021-04-24T07:22:12.508Z</time>
      </trkpt>
      <trkpt lat="45.83506" lon="4.77141">
        <ele>439.927761</ele>
        <time>2021-04-24T07:22:14.516Z</time>
      </trkpt>
      <trkpt lat="45.83492" lon="4.7714">
        <ele>439.166977</ele>
        <time>2021-04-24T07:22:16.509Z</time>
      </trkpt>
      <trkpt lat="45.83479" lon="4.77141">
        <ele>438.470405</ele>
        <time>2021-04-24T07:22:18.493Z</time>
      </trkpt>
      <trkpt lat="45.83466" lon="4.7714">
        <ele>437.789148</ele>
        <time>2021-04-24T07:22:20.496Z</time>
      </trkpt>
      <trkpt lat="45.83454" lon="4.77138">
        <ele>437.144179</ele>
        <time>2021-04-24T07:22:22.493Z</time>
      </trkpt>
      <trkpt lat="45.83441" lon="4.7714">
        <ele>436.440207</ele>
        <time>2021-04-24T07:22:24.488Z</time>
      </trkpt>
      <trkpt lat="45.83428" lon="4.77141">
        <ele>435.711042</ele>
        <time>2021-04-24T07:22:26.500Z</time>
      </trkpt>
      <trkpt lat="45.83413" lon="4.77141">
        <ele>434.934634</ele>
        <time>2021-04-24T07:22:28.537Z</time>
      </trkpt>
      <trkpt lat="45.83399" lon="4.77139">
        <ele>434.171338</ele>
        <time>2021-04-24T07:22:30.494Z</time>
      </trkpt>
      <trkpt lat="45.83383" lon="4.77138">
        <ele>433.341259</ele>
        <time>2021-04-24T07:22:32.503Z</time>
      </trkpt>
      <trkpt lat="45.83369" lon="4.77138">
        <ele>432.548656</ele>
        <time>2021-04-24T07:22:34.503Z</time>
      </trkpt>
      <trkpt lat="45.83355" lon="4.77137">
        <ele>431.835719</ele>
        <time>2021-04-24T07:22:36.504Z</time>
      </trkpt>
      <trkpt lat="45.83343" lon="4.77136">
        <ele>431.064207</ele>
        <time>2021-04-24T07:22:38.498Z</time>
      </trkpt>
      <trkpt lat="45.8333" lon="4.77136">
        <ele>430.260733</ele>
        <time>2021-04-24T07:22:40.505Z</time>
      </trkpt>
      <trkpt lat="45.83318" lon="4.77134">
        <ele>429.486666</ele>
        <time>2021-04-24T07:22:42.511Z</time>
      </trkpt>
      <trkpt lat="45.83307" lon="4.77134">
        <ele>428.780146</ele>
        <time>2021-04-24T07:22:44.504Z</time>
      </trkpt>
      <trkpt lat="45.83299" lon="4.77127">
        <ele>428.165066</ele>
        <time>2021-04-24T07:22:46.506Z</time>
      </trkpt>
      <trkpt lat="45.8329" lon="4.77117">
        <ele>427.446905</ele>
        <time>2021-04-24T07:22:48.502Z</time>
      </trkpt>
      <trkpt lat="45.8328" lon="4.7711">
        <ele>426.719363</ele>
        <time>2021-04-24T07:22:50.539Z</time>
      </trkpt>
      <trkpt lat="45.83269" lon="4.77103">
        <ele>425.943411</ele>
        <time>2021-04-24T07:22:52.500Z</time>
      </trkpt>
      <trkpt lat="45.83255" lon="4.77096">
        <ele>425.019868</ele>
        <time>2021-04-24T07:22:54.502Z</time>
      </trkpt>
      <trkpt lat="45.83242" lon="4.77088">
        <ele>424.085044</ele>
        <time>2021-04-24T07:22:56.497Z</time>
      </trkpt>
      <trkpt lat="45.83228" lon="4.77078">
        <ele>423.080332</ele>
        <time>2021-04-24T07:22:58.498Z</time>
      </trkpt>
      <trkpt lat="45.83213" lon="4.77069">
        <ele>422.031565</ele>
        <time>2021-04-24T07:23:00.500Z</time>
      </trkpt>
      <trkpt lat="45.83197" lon="4.77059">
        <ele>420.937811</ele>
        <time>2021-04-24T07:23:02.503Z</time>
      </trkpt>
      <trkpt lat="45.83182" lon="4.77047">
        <ele>419.788236</ele>
        <time>2021-04-24T07:23:04.505Z</time>
      </trkpt>
      <trkpt lat="45.83174" lon="4.7704">
        <ele>419.168865</ele>
        <time>2021-04-24T07:23:05.504Z</time>
      </trkpt>
      <trkpt lat="45.83166" lon="4.77032">
        <ele>418.544866</ele>
        <time>2021-04-24T07:23:06.502Z</time>
      </trkpt>
      <trkpt lat="45.83159" lon="4.77024">
        <ele>417.913899</ele>
        <time>2021-04-24T07:23:07.512Z</time>
      </trkpt>
      <trkpt lat="45.83151" lon="4.77014">
        <ele>417.259832</ele>
        <time>2021-04-24T07:23:08.506Z</time>
      </trkpt>
      <trkpt lat="45.83144" lon="4.77005">
        <ele>416.584623</ele>
        <time>2021-04-24T07:23:09.503Z</time>
      </trkpt>
      <trkpt lat="45.83135" lon="4.76996">
        <ele>415.898181</ele>
        <time>2021-04-24T07:23:10.502Z</time>
      </trkpt>
      <trkpt lat="45.83127" lon="4.76986">
        <ele>415.212832</ele>
        <time>2021-04-24T07:23:11.519Z</time>
      </trkpt>
      <trkpt lat="45.8312" lon="4.76976">
        <ele>414.515435</ele>
        <time>2021-04-24T07:23:12.513Z</time>
      </trkpt>
      <trkpt lat="45.83112" lon="4.76967">
        <ele>413.839131</ele>
        <time>2021-04-24T07:23:13.550Z</time>
      </trkpt>
      <trkpt lat="45.83104" lon="4.76957">
        <ele>413.142727</ele>
        <time>2021-04-24T07:23:14.495Z</time>
      </trkpt>
      <trkpt lat="45.83096" lon="4.76947">
        <ele>412.447638</ele>
        <time>2021-04-24T07:23:15.504Z</time>
      </trkpt>
      <trkpt lat="45.83089" lon="4.76938">
        <ele>411.77628</ele>
        <time>2021-04-24T07:23:16.507Z</time>
      </trkpt>
      <trkpt lat="45.8308" lon="4.76928">
        <ele>411.073642</ele>
        <time>2021-04-24T07:23:17.520Z</time>
      </trkpt>
      <trkpt lat="45.83072" lon="4.7692">
        <ele>410.387513</ele>
        <time>2021-04-24T07:23:18.512Z</time>
      </trkpt>
      <trkpt lat="45.83063" lon="4.76912">
        <ele>409.694074</ele>
        <time>2021-04-24T07:23:19.539Z</time>
      </trkpt>
      <trkpt lat="45.83054" lon="4.76905">
        <ele>409.028566</ele>
        <time>2021-04-24T07:23:20.517Z</time>
      </trkpt>
      <trkpt lat="45.83045" lon="4.76898">
        <ele>408.344628</ele>
        <time>2021-04-24T07:23:21.527Z</time>
      </trkpt>
      <trkpt lat="45.83036" lon="4.76893">
        <ele>407.989265</ele>
        <time>2021-04-24T07:23:22.508Z</time>
      </trkpt>
      <trkpt lat="45.83026" lon="4.76889">
        <ele>407.812576</ele>
        <time>2021-04-24T07:23:23.513Z</time>
      </trkpt>
      <trkpt lat="45.83016" lon="4.76885">
        <ele>407.634232</ele>
        <time>2021-04-24T07:23:24.520Z</time>
      </trkpt>
      <trkpt lat="45.83006" lon="4.76882">
        <ele>407.465459</ele>
        <time>2021-04-24T07:23:25.545Z</time>
      </trkpt>
      <trkpt lat="45.82997" lon="4.7688">
        <ele>407.299406</ele>
        <time>2021-04-24T07:23:26.502Z</time>
      </trkpt>
      <trkpt lat="45.82987" lon="4.76879">
        <ele>407.136374</ele>
        <time>2021-04-24T07:23:27.506Z</time>
      </trkpt>
      <trkpt lat="45.82978" lon="4.76877">
        <ele>406.975626</ele>
        <time>2021-04-24T07:23:28.497Z</time>
      </trkpt>
      <trkpt lat="45.82969" lon="4.76875">
        <ele>406.810518</ele>
        <time>2021-04-24T07:23:29.501Z</time>
      </trkpt>
      <trkpt lat="45.82951" lon="4.76873">
        <ele>406.506818</ele>
        <time>2021-04-24T07:23:31.512Z</time>
      </trkpt>
    </trkseg>
  </trk>
</gpx>